[[[{"header":{"parameterUnit":"kt","parameterCategory":2,"dx":1,"dy":1,"la1":29.587661999999998,"la2":31.0,"lo1":-88.76705300000003,"lo2":-86.6583820000003,"nx":115,"ny":88,"refTime":"2022-10-02T06:00:00:Z","depth":0,"parameterNumber":1,"parameterNumberName":"U-component_of_WINDS"},"data":[-2.4068,-2.4068,-2.4068,-2.4068,-2.4068,-2.4068,-2.3645,-2.2912,-2.2593,-2.2062,-2.0882,-2.0036,-1.9502,-1.9288,-1.7654,-1.5823,-1.4112,-1.3254,-1.1632,-1.0015,-0.9473,-0.8604,-0.7843,-0.7408,-0.7082,-0.6973,-0.6973,-0.6973,-0.6973,-0.6973,-0.6973,-0.6973,-0.6973,-0.6973,-0.6973,-0.6973,-0.6973,-0.6973,-0.6973,-0.6973,-0.6973,-0.6973,-0.6973,-0.6973,-0.6973,-0.6973,-0.6973,-0.6973,-0.6973,-0.6429,-0.5339,-0.4469,-0.338,-0.218,-0.109,0.0,0.0,0.0,0.0,0.0,0.0,0.0,0.0,0.0,0.0,0.0,0.0,0.0,0.0,0.0,0.3376,0.7514,0.9585,0.9476,0.9585,1.024,1.1108,1.2074,1.3367,1.4662,1.5422,1.6182,1.7372,1.7372,1.7372,1.7372,1.7372,1.7372,1.7372,1.7372,1.7378,1.7372,1.7372,1.7372,1.7372,1.7372,1.7372,1.7372,1.7372,1.7372,1.7372,1.7372,1.7372,1.7372,1.7372,1.7372,1.7372,1.7372,1.7372,1.7372,1.7372,1.7479,1.7479,1.758,1.8224,-2.4068,-2.4068,-2.4068,-2.4068,-2.4068,-2.4068,-2.3963,-2.3751,-2.3009,-2.2487,-2.2274,-2.2062,-2.1423,-2.0463,-1.9174,-1.7017,-1.562,-1.5297,-1.3681,-1.2065,-1.0658,-0.9794,-0.8926,-0.7843,-0.7299,-0.7082,-0.6973,-0.6973,-0.6973,-0.697,-0.697,-0.6973,-0.6973,-0.697,-0.6973,-0.6973,-0.6973,-0.6973,-0.6973,-0.6973,-0.6973,-0.6973,-0.6973,-0.6973,-0.6973,-0.6973,-0.6973,-0.6973,-0.6973,-0.6647,-0.6429,-0.556,-0.4469,-0.2834,-0.1853,-0.109,0.0,0.0,0.0,0.0,0.0,0.0,0.0,0.0,0.0,0.0,0.0,0.0,0.0,0.1634,0.4791,0.7843,0.915,0.9806,1.024,1.0678,1.1858,1.293,1.4662,1.6505,1.6828,1.6942,1.7372,1.7372,1.7372,1.7372,1.7372,1.7372,1.7372,1.7372,1.7372,1.7372,1.7372,1.7372,1.7372,1.7372,1.7372,1.7372,1.7372,1.7372,1.7372,1.7372,1.7372,1.7372,1.7372,1.7372,1.7372,1.7372,1.7372,1.7372,1.7587,1.8009,1.8117,1.8753,1.9181,-2.4068,-2.4068,-2.4068,-2.4068,-2.4068,-2.4068,-2.4068,-2.3972,-2.3654,-2.3442,-2.3442,-2.3336,-2.2806,-2.1743,-2.1317,-1.9808,-1.8631,-1.8089,-1.6474,-1.5076,-1.3778,-1.1952,-1.012,-0.8821,-0.806,-0.7082,-0.7082,-0.7082,-0.6973,-0.6965,-0.6923,-0.6886,-0.6941,-0.6944,-0.688,-0.6944,-0.6973,-0.6973,-0.6973,-0.6973,-0.6973,-0.6973,-0.6973,-0.6973,-0.6973,-0.6973,-0.6973,-0.6973,-0.6973,-0.697,-0.696,-0.6308,-0.5214,-0.3371,-0.2177,-0.1524,0.0,0.0,0.0,0.0,0.0,0.0,0.0,0.0,0.0,0.0,0.0,0.0,0.0,0.3049,0.6207,0.8386,0.9697,1.0135,1.0461,1.0787,1.165,1.3043,1.477,1.6391,1.7049,1.7157,1.7372,1.7372,1.7372,1.7372,1.7372,1.7372,1.7372,1.7372,1.7372,1.7372,1.7372,1.7372,1.7372,1.7372,1.7372,1.7372,1.7372,1.7372,1.7372,1.7372,1.7372,1.7372,1.7372,1.7372,1.7372,1.7372,1.7372,1.7694,1.8117,1.8545,1.9395,2.0143,2.2053,-2.4068,-2.4068,-2.4068,-2.4068,-2.4068,-2.4068,-2.4068,-2.4068,-2.4068,-2.4078,-2.4068,-2.3963,-2.3442,-2.2487,-2.2274,-2.153,-2.0562,-1.9808,-1.9266,-1.8082,-1.6789,-1.464,-1.206,-1.1195,-0.9469,-0.8275,-0.7508,-0.75,-0.7017,-0.688,-0.6846,-0.6817,-0.6859,-0.6917,-0.688,-0.6928,-0.6973,-0.6973,-0.6968,-0.6963,-0.6923,-0.6925,-0.691,-0.6883,-0.6878,-0.6865,-0.6867,-0.6875,-0.6886,-0.6894,-0.6894,-0.6454,-0.559,-0.3559,-0.2379,-0.1623,0.0,0.0,0.0,0.0,0.0,0.0,0.0,0.0,0.0,0.0,0.0,0.0,0.3905,0.5326,0.7185,0.8933,1.0461,1.0461,1.0569,1.0791,1.1012,1.2728,1.4339,1.5638,1.672,1.7049,1.7264,1.7372,1.7372,1.7372,1.7372,1.7372,1.7372,1.7372,1.7372,1.7372,1.7372,1.7372,1.7372,1.7372,1.7372,1.7372,1.7372,1.7372,1.7372,1.7372,1.7372,1.7372,1.7479,1.7372,1.7372,1.7479,1.7902,1.8331,1.886,1.9609,2.0463,2.2894,2.5336,-2.4068,-2.4068,-2.4068,-2.4068,-2.4068,-2.4068,-2.4068,-2.4068,-2.4068,-2.4068,-2.4068,-2.4068,-2.3548,-2.2912,-2.2806,-2.2053,-2.1636,-2.1317,-2.0776,-2.0456,-1.9159,-1.7279,-1.5245,-1.4193,-1.1861,-1.0197,-0.9109,-0.8363,-0.7331,-0.6759,-0.6756,-0.6798,-0.6819,-0.6854,-0.6899,-0.6949,-0.6941,-0.6925,-0.6904,-0.6886,-0.683,-0.6796,-0.6767,-0.6695,-0.6682,-0.6682,-0.6676,-0.6669,-0.6661,-0.6663,-0.6658,-0.6639,-0.5933,-0.4812,-0.3282,-0.2121,-0.0738,0.0,0.0,0.0,0.0,0.0,0.0,0.0,0.0,0.0,0.0,0.0,0.3889,0.5431,0.7144,0.8976,1.0108,1.0461,1.0437,1.0633,1.1407,1.2836,1.4339,1.5416,1.6505,1.7157,1.7372,1.7372,1.7372,1.7372,1.7372,1.7372,1.7372,1.7372,1.7372,1.7372,1.7372,1.7372,1.7372,1.7372,1.7372,1.7372,1.7372,1.7372,1.7372,1.7372,1.7372,1.7909,1.8545,1.8016,1.7909,1.8331,1.876,1.9288,2.0143,2.0784,2.3,2.5958,2.8182,-2.4068,-2.4068,-2.4068,-2.4068,-2.4068,-2.4068,-2.4068,-2.4068,-2.4068,-2.4068,-2.4068,-2.4068,-2.3866,-2.3442,-2.3442,-2.3221,-2.2699,-2.2593,-2.2266,-2.1841,-2.1202,-1.9376,-1.7736,-1.6086,-1.4145,-1.2022,-1.0519,-0.9591,-0.8264,-0.7373,-0.6642,-0.6708,-0.6777,-0.6822,-0.6872,-0.6912,-0.6891,-0.6822,-0.6772,-0.6737,-0.6714,-0.6695,-0.6679,-0.665,-0.6645,-0.6645,-0.6642,-0.6645,-0.6639,-0.6634,-0.6634,-0.6489,-0.624,-0.5984,-0.4803,-0.271,0.0,0.0,0.0,0.0,0.0,0.0,0.0,0.0,0.0627,0.0826,0.1343,0.2082,0.3726,0.5294,0.699,0.8587,0.9512,1.0337,1.0401,1.0573,1.1786,1.3018,1.4209,1.5393,1.6265,1.7017,1.7358,1.7372,1.7372,1.7332,1.7319,1.7293,1.7266,1.724,1.722,1.722,1.726,1.7212,1.7372,1.7372,1.7372,1.7372,1.7372,1.7372,1.7372,1.7587,1.8224,1.8867,1.9509,1.9716,1.9823,1.993,1.993,2.089,2.1743,2.3848,2.6684,2.8903,2.9944,-2.4068,-2.4068,-2.4068,-2.4068,-2.4174,-2.4597,-2.4491,-2.4183,-2.4068,-2.4068,-2.4068,-2.4068,-2.4078,-2.4068,-2.4068,-2.4068,-2.4068,-2.3963,-2.3539,-2.3221,-2.2797,-2.113,-1.9814,-1.8744,-1.6577,-1.4485,-1.2419,-1.104,-0.9138,-0.8005,-0.7294,-0.6732,-0.6703,-0.6761,-0.6806,-0.6846,-0.6761,-0.6692,-0.6669,-0.6629,-0.6597,-0.6581,-0.6541,-0.6515,-0.6496,-0.6496,-0.6398,-0.6403,-0.6403,-0.6515,-0.6523,-0.6411,-0.6242,-0.6086,-0.5204,-0.306,0.0,0.0,0.0,0.0,0.0,0.0,0.0,0.0,0.1318,0.1707,0.2302,0.325,0.4454,0.5783,0.7393,0.8737,0.9707,1.0066,1.0175,1.0788,1.2074,1.3268,1.4217,1.5399,1.6392,1.7035,1.7161,1.7174,1.7148,1.7207,1.7207,1.7134,1.7082,1.7002,1.697,1.697,1.7009,1.6989,1.7068,1.7439,1.7345,1.7466,1.7372,1.7372,1.8009,1.8753,1.9181,1.993,2.089,2.1317,2.1734,2.1521,2.1407,2.2372,2.4059,2.7313,2.9944,3.0556,3.1488,-2.4068,-2.4068,-2.4068,-2.4174,-2.4386,-2.5748,-2.5527,-2.4183,-2.4183,-2.4068,-2.4068,-2.4068,-2.4068,-2.4068,-2.4068,-2.4068,-2.4068,-2.4068,-2.3963,-2.3963,-2.367,-2.308,-2.21,-2.1318,-1.915,-1.6866,-1.498,-1.2945,-0.927,-0.8961,-0.813,-0.7097,-0.6716,-0.6773,-0.6904,-0.6907,-0.6738,-0.6584,-0.6557,-0.652,-0.6475,-0.6459,-0.6422,-0.6383,-0.6353,-0.6351,-0.6351,-0.6249,-0.6236,-0.6327,-0.6319,-0.6207,-0.5902,-0.5306,-0.3833,-0.2462,-0.1086,0.0,0.0,0.0,0.0,0.0,0.0,0.0,0.0887,0.2272,0.3266,0.4204,0.5933,0.6957,0.7692,0.8764,0.9775,0.9953,0.9973,1.0908,1.2271,1.332,1.4256,1.5251,1.6336,1.6812,1.693,1.691,1.6871,1.6897,1.6864,1.6818,1.6805,1.6739,1.6862,1.6856,1.7043,1.6942,1.7147,1.744,1.7893,1.9423,1.8944,1.938,1.9601,2.0341,2.1611,2.2567,2.2797,2.3221,2.4165,2.4156,2.3521,2.4569,2.6369,2.9204,3.1695,3.2314,3.2623,-2.5738,-2.5948,-2.6998,-2.6778,-2.5948,-2.6369,-2.6369,-2.5632,-2.4597,-2.4068,-2.4068,-2.4068,-2.4068,-2.4068,-2.4068,-2.4068,-2.4068,-2.4068,-2.4068,-2.4041,-2.3831,-2.3385,-2.2872,-2.2166,-2.0621,-1.9221,-1.7473,-1.5679,-1.2448,-1.1642,-1.0126,-0.8324,-0.6977,-0.7256,-0.7469,-0.7355,-0.7096,-0.6536,-0.6433,-0.6401,-0.6273,-0.6244,-0.6322,-0.6295,-0.6181,-0.6181,-0.6181,-0.6184,-0.6186,-0.6189,-0.6287,-0.6186,-0.6186,-0.5694,-0.4807,-0.3334,-0.2059,-0.1373,0.0,0.0,0.0,0.0,0.0,0.0,0.2844,0.2647,0.3744,0.6013,0.8068,0.8733,0.8733,0.8842,0.9547,0.9775,0.9992,1.048,1.1726,1.2794,1.383,1.4889,1.5913,1.6324,1.664,1.6594,1.6528,1.6515,1.6501,1.6515,1.6515,1.6746,1.6881,1.7147,1.7381,1.806,1.8365,1.829,1.9454,2.1137,2.2021,2.2842,2.2965,2.2868,2.4349,2.5613,2.5326,2.5441,2.6589,2.7218,2.7009,2.7637,2.8996,3.0855,3.3035,3.3561,3.3664,-2.7512,-2.7616,-2.8661,-2.8982,-2.8807,-2.8632,-2.8193,-2.7406,-2.5774,-2.4597,-2.4174,-2.4068,-2.4068,-2.4068,-2.4068,-2.4068,-2.4068,-2.4068,-2.3922,-2.3867,-2.3648,-2.3348,-2.2898,-2.2379,-2.1537,-2.0358,-1.9283,-1.7561,-1.5302,-1.436,-1.2399,-1.0598,-0.9584,-0.8717,-0.8891,-0.8077,-0.7657,-0.6881,-0.6377,-0.6181,-0.6184,-0.6186,-0.6186,-0.6186,-0.6181,-0.6181,-0.6181,-0.6181,-0.6181,-0.6181,-0.6181,-0.6181,-0.6181,-0.6181,-0.5199,-0.3628,-0.3038,-0.2157,0.0,0.0,0.0,0.0,0.0,0.0,0.4411,0.3236,0.5388,0.8226,0.9109,0.9206,0.9296,0.9304,0.9355,0.9583,0.9836,1.042,1.1432,1.2494,1.3647,1.4777,1.5622,1.6128,1.6205,1.6093,1.598,1.6073,1.606,1.608,1.6239,1.6505,1.7262,1.7676,1.8507,1.9229,1.9859,2.0139,2.1046,2.225,2.358,2.5277,2.5889,2.5804,2.6968,2.8244,2.7847,2.7648,2.9204,3.0348,3.0256,3.0475,3.1488,3.3035,3.3869,3.4074,3.419,-2.9231,-2.9242,-2.9416,-3.0794,-3.2521,-3.2426,-3.1229,-2.9665,-2.7643,-2.5909,-2.4491,-2.4068,-2.4068,-2.4068,-2.4068,-2.4023,-2.3995,-2.3977,-2.3812,-2.3501,-2.3403,-2.3154,-2.2788,-2.2432,-2.1696,-2.0935,-2.0227,-1.8868,-1.6644,-1.6452,-1.5392,-1.3722,-1.2748,-1.2219,-1.155,-0.9206,-0.7845,-0.7549,-0.6668,-0.6377,-0.6181,-0.6181,-0.6181,-0.6181,-0.6181,-0.6181,-0.6181,-0.6181,-0.6181,-0.6181,-0.6181,-0.6181,-0.6181,-0.6181,-0.5199,-0.343,-0.3136,-0.2059,0.0,0.0,0.0,0.1764,0.1765,0.294,0.4901,0.6858,0.9003,0.8808,0.9296,0.9296,0.9296,0.93,0.93,0.9465,0.9677,1.0263,1.1554,1.2774,1.4,1.5114,1.5665,1.5981,1.5789,1.558,1.562,1.5607,1.5548,1.5651,1.5918,1.6563,1.7686,1.8575,1.9761,2.0751,2.1786,2.1902,2.2497,2.3413,2.489,2.7022,2.8104,2.8398,2.9275,3.0556,3.0464,2.984,3.1397,3.3047,3.2739,3.2429,3.3664,3.3972,3.4074,3.419,3.419,-3.1479,-3.1929,-3.3029,-3.4007,-3.4414,-3.3178,-3.2351,-3.1555,-2.9743,-2.7693,-2.5843,-2.4597,-2.4068,-2.4068,-2.4059,-2.4073,-2.3853,-2.377,-2.341,-2.3108,-2.2934,-2.2695,-2.2466,-2.2121,-2.1805,-2.1627,-2.1214,-2.071,-1.8876,-1.9075,-1.7716,-1.6769,-1.6453,-1.6092,-1.4729,-1.1438,-0.8523,-0.7741,-0.6864,-0.6279,-0.6181,-0.6181,-0.6181,-0.6181,-0.6181,-0.6181,-0.6181,-0.6181,-0.6181,-0.6181,-0.6181,-0.6181,-0.6181,-0.5985,-0.5099,-0.3921,-0.2842,-0.2157,0.0,0.0,0.0,0.196,0.2253,0.3918,0.5877,0.8031,0.9202,0.9296,0.9296,0.9296,0.9296,0.93,0.93,0.9694,0.9885,1.0757,1.2026,1.3094,1.4264,1.5335,1.5477,1.577,1.5548,1.5548,1.5574,1.5561,1.5528,1.5625,1.6108,1.7154,1.8396,1.9737,2.1083,2.2373,2.3732,2.431,2.4915,2.5982,2.7879,2.9683,3.0485,3.0991,3.1798,3.2223,3.2223,3.212,3.2636,3.3459,3.3985,3.419,3.419,3.4074,3.419,3.419,3.419,-3.363,-3.3919,-3.5284,-3.5862,-3.5704,-3.4584,-3.4097,-3.3701,-3.1873,-3.0141,-2.899,-2.697,-2.579,-2.5403,-2.5106,-2.4601,-2.4149,-2.3793,-2.3219,-2.2824,-2.2503,-2.231,-2.2098,-2.1915,-2.1759,-2.1777,-2.1768,-2.1282,-2.0814,-2.071,-1.9546,-1.9259,-1.9571,-1.9179,-1.7635,-1.453,-1.1142,-0.9198,-0.7448,-0.657,-0.6377,-0.6181,-0.6181,-0.6181,-0.6181,-0.6181,-0.6181,-0.6181,-0.6181,-0.6181,-0.6181,-0.6181,-0.6181,-0.6181,-0.5101,-0.343,-0.3136,-0.1961,0.0,0.0,0.0,0.147,0.2743,0.4603,0.764,0.8714,0.9202,0.9296,0.9296,0.9296,0.9296,0.93,0.9592,0.9987,1.0673,1.1545,1.2517,1.3391,1.4366,1.5238,1.5528,1.5528,1.5528,1.5528,1.5528,1.5528,1.5625,1.5818,1.6872,1.7924,1.9554,2.0996,2.2519,2.3857,2.5291,2.6364,2.7332,2.9195,3.1117,3.1982,3.2627,3.3125,3.2945,3.3253,3.3356,3.315,3.3356,3.3985,3.419,3.419,3.419,3.419,3.419,3.419,3.419,-3.5456,-3.5519,-3.6226,-3.6495,-3.6451,-3.6178,-3.5955,-3.5535,-3.3824,-3.283,-3.2001,-3.0363,-2.8638,-2.7686,-2.6721,-2.6021,-2.5485,-2.4213,-2.3373,-2.2835,-2.2319,-2.2098,-2.1933,-2.1814,-2.1759,-2.1759,-2.1759,-2.1759,-2.1663,-2.1473,-2.1663,-2.1759,-2.1187,-2.0528,-1.9083,-1.7147,-1.4239,-1.0558,-0.823,-0.7252,-0.6475,-0.6181,-0.6181,-0.6181,-0.6181,-0.6181,-0.6181,-0.6181,-0.6181,-0.6181,-0.6181,-0.6181,-0.6181,-0.6181,-0.5199,-0.3628,-0.3136,-0.2157,-0.0981,0.0,-0.0098,0.0883,0.2745,0.5684,0.8519,0.9202,0.9296,0.9296,0.9296,0.9296,0.9296,0.9397,0.9792,1.0376,1.1156,1.2123,1.3094,1.387,1.4657,1.5335,1.5528,1.5528,1.5528,1.5528,1.5528,1.5625,1.5721,1.6576,1.7628,1.9075,2.0701,2.2044,2.3667,2.5095,2.664,2.8078,2.8971,3.0619,3.2241,3.3319,3.4022,3.4151,3.3767,3.3972,3.3869,3.4074,3.419,3.419,3.419,3.419,3.419,3.419,3.419,3.419,3.419,-3.5984,-3.6242,-3.6466,-3.6508,-3.6539,-3.6497,-3.6408,-3.6288,-3.5505,-3.4425,-3.3239,-3.2346,-3.1,-2.9647,-2.8684,-2.7928,-2.7406,-2.5413,-2.4286,-2.3334,-2.2576,-2.2051,-2.1795,-2.1759,-2.1759,-2.1759,-2.1759,-2.1759,-2.1759,-2.1759,-2.1759,-2.1759,-2.1759,-2.0901,-1.9762,-1.8604,-1.6851,-1.2496,-0.9783,-0.7741,-0.657,-0.6377,-0.6377,-0.6279,-0.6279,-0.6181,-0.6181,-0.6181,-0.6181,-0.6181,-0.6181,-0.6181,-0.6181,-0.6181,-0.5199,-0.3628,-0.3234,-0.2549,-0.1668,-0.098,-0.0687,0.0687,0.2943,0.5867,0.8508,0.9296,0.9296,0.9296,0.9296,0.9296,0.9296,0.9296,0.9987,1.0766,1.1535,1.2701,1.3767,1.4554,1.5238,1.5528,1.5528,1.5528,1.5528,1.5528,1.5625,1.5721,1.648,1.7339,1.878,2.0311,2.1559,2.2529,2.3981,2.5264,2.6995,2.8825,3.0331,3.1729,3.295,3.3855,3.4138,3.4177,3.419,3.419,3.419,3.419,3.419,3.419,3.419,3.419,3.419,3.419,3.419,3.419,3.419,-3.6303,-3.6508,-3.6508,-3.6508,-3.6508,-3.6508,-3.6508,-3.651,-3.6272,-3.5677,-3.4844,-3.4171,-3.3388,-3.233,-3.0875,-3.0143,-2.9262,-2.7414,-2.5784,-2.4685,-2.3488,-2.2434,-2.2044,-2.1759,-2.1759,-2.1759,-2.1759,-2.1759,-2.1759,-2.1759,-2.1759,-2.1759,-2.1663,-2.1187,-2.0719,-1.9762,-1.802,-1.5791,-1.2787,-1.0164,-0.8422,-0.7643,-0.7157,-0.6279,-0.6671,-0.6573,-0.6377,-0.6181,-0.6181,-0.6181,-0.6181,-0.6181,-0.6181,-0.6083,-0.5297,-0.343,-0.3528,-0.3233,-0.2349,-0.1752,-0.1268,0.0,0.2628,0.535,0.6947,0.832,0.9296,0.9296,0.9296,0.9296,0.9296,0.9296,1.0186,1.1156,1.2006,1.3175,1.4348,1.5135,1.5528,1.5528,1.5528,1.5528,1.5528,1.5528,1.5625,1.5915,1.668,1.7628,1.8971,2.0987,2.2424,2.3288,2.4391,2.5622,2.7488,2.9329,3.0754,3.2218,3.3455,3.3854,3.4073,3.419,3.419,3.419,3.419,3.419,3.419,3.419,3.419,3.419,3.419,3.419,3.419,3.419,3.419,-3.6508,-3.6508,-3.6508,-3.6508,-3.6508,-3.6508,-3.6508,-3.6508,-3.6539,-3.6508,-3.6271,-3.5659,-3.5261,-3.4789,-3.3293,-3.2438,-3.1364,-2.9756,-2.7933,-2.6776,-2.5523,-2.4204,-2.251,-2.2225,-2.2415,-2.1759,-2.1759,-2.1759,-2.1759,-2.1759,-2.1759,-2.1759,-2.1759,-2.1663,-2.1282,-2.0519,-1.9675,-1.8987,-1.6851,-1.3943,-1.0942,-0.9491,-0.823,-0.7353,-0.7255,-0.7353,-0.6668,-0.6279,-0.6279,-0.6181,-0.6181,-0.6181,-0.6181,-0.6181,-0.5101,-0.4409,-0.41,-0.4382,-0.3291,-0.2396,-0.1721,-0.0673,0.2405,0.4139,0.58,0.7472,0.9296,0.9296,0.9296,0.9296,0.9296,0.9491,1.0571,1.1632,1.2588,1.3653,1.4929,1.5528,1.5528,1.5528,1.5528,1.5528,1.5528,1.5528,1.5625,1.6204,1.6872,1.7731,1.9163,2.1654,2.3383,2.414,2.5137,2.6252,2.7891,2.9598,3.118,3.2724,3.3436,3.3787,3.4097,3.419,3.419,3.419,3.419,3.419,3.419,3.419,3.419,3.419,3.419,3.419,3.419,3.419,3.419,-3.6508,-3.6508,-3.6508,-3.6508,-3.6508,-3.6508,-3.6508,-3.6508,-3.6508,-3.6508,-3.6523,-3.6391,-3.6196,-3.6121,-3.5666,-3.5133,-3.4257,-3.1934,-3.068,-2.9695,-2.8571,-2.6802,-2.5303,-2.4467,-2.3722,-2.251,-2.194,-2.1759,-2.1759,-2.1759,-2.1759,-2.1759,-2.1759,-2.1759,-2.1759,-2.1282,-2.0519,-1.9554,-1.7997,-1.5867,-1.2782,-1.0558,-0.9007,-0.8812,-0.8034,-0.7741,-0.7252,-0.6657,-0.6266,-0.6277,-0.6173,-0.6179,-0.6181,-0.6181,-0.5985,-0.5663,-0.5711,-0.5078,-0.4122,-0.3172,-0.2245,-0.151,0.237,0.4062,0.5305,0.7198,0.9264,0.9296,0.93,0.93,0.9588,1.0067,1.1142,1.2307,1.3078,1.3841,1.5032,1.5528,1.5528,1.5528,1.5528,1.5528,1.5528,1.5528,1.5528,1.6108,1.7739,1.8596,1.9554,2.2139,2.4046,2.4896,2.5682,2.6701,2.8216,2.9928,3.1285,3.2657,3.3164,3.3719,3.4005,3.4177,3.419,3.419,3.419,3.419,3.419,3.419,3.419,3.419,3.419,3.419,3.419,3.419,3.419,-3.6508,-3.6508,-3.6508,-3.6508,-3.6508,-3.6508,-3.6508,-3.6508,-3.6508,-3.6508,-3.6508,-3.6508,-3.6508,-3.6508,-3.6508,-3.6328,-3.5518,-3.3951,-3.2844,-3.1916,-3.0894,-2.9115,-2.7432,-2.6417,-2.5115,-2.3911,-2.2795,-2.2339,-2.1854,-2.1854,-2.1759,-2.1759,-2.1759,-2.1759,-2.1759,-2.1759,-2.1282,-2.0805,-2.0024,-1.8572,-1.6273,-1.3756,-1.1142,-0.9881,-0.8812,-0.8226,-0.7728,-0.672,-0.6221,-0.6255,-0.621,-0.6218,-0.6134,-0.6121,-0.6054,-0.6094,-0.6001,-0.5655,-0.5095,-0.3668,-0.2665,-0.1664,0.2032,0.4252,0.5208,0.7021,0.8994,0.9207,0.9286,0.9592,1.0275,1.1142,1.2016,1.2992,1.3562,1.4336,1.5128,1.5431,1.5528,1.5528,1.5528,1.5528,1.5528,1.5528,1.5528,1.6776,1.8508,1.9371,1.9954,2.2244,2.4518,2.5179,2.566,2.6938,2.8707,3.0053,3.1274,3.2255,3.2891,3.3423,3.3787,3.4099,3.419,3.419,3.419,3.419,3.419,3.419,3.419,3.419,3.419,3.419,3.419,3.419,3.419,-3.6508,-3.6508,-3.6508,-3.6508,-3.6508,-3.6508,-3.6508,-3.6508,-3.6508,-3.6508,-3.6508,-3.6508,-3.6508,-3.6508,-3.6508,-3.6508,-3.6328,-3.5609,-3.4585,-3.365,-3.2922,-3.1445,-2.9842,-2.8547,-2.7164,-2.5971,-2.5053,-2.3458,-2.2329,-2.2053,-2.2329,-2.1854,-2.2044,-2.1949,-2.1854,-2.1759,-2.1663,-2.1378,-2.1369,-2.051,-1.8788,-1.6762,-1.4439,-1.1146,-0.9978,-0.9202,-0.8101,-0.704,-0.6243,-0.6129,-0.6022,-0.6102,-0.6081,-0.6012,-0.5935,-0.5974,-0.5936,-0.5645,-0.491,-0.3515,-0.2623,-0.1183,0.2361,0.4722,0.5463,0.7225,0.8666,0.8981,0.923,0.9851,1.1244,1.2118,1.2992,1.3574,1.3949,1.4336,1.5231,1.5528,1.5528,1.5528,1.5528,1.5528,1.5528,1.5528,1.5908,1.7058,1.8796,1.9954,2.1005,2.2909,2.4801,2.5378,2.5754,2.7349,2.904,3.0095,3.1268,3.2151,3.2826,3.3358,3.3813,3.4073,3.419,3.419,3.419,3.419,3.419,3.419,3.419,3.419,3.419,3.419,3.419,3.419,3.419,-3.6508,-3.6508,-3.6508,-3.6508,-3.6508,-3.6508,-3.6508,-3.6508,-3.6508,-3.6508,-3.6508,-3.6508,-3.6508,-3.6508,-3.6508,-3.6508,-3.6508,-3.6239,-3.6149,-3.5579,-3.5323,-3.4103,-3.236,-3.088,-2.9577,-2.864,-2.7641,-2.5324,-2.3363,-2.3288,-2.3288,-2.2139,-2.2624,-2.2519,-2.1949,-2.1759,-2.1759,-2.1759,-2.1759,-2.11,-1.9667,-1.8892,-1.7058,-1.3955,-1.221,-1.047,-0.9167,-0.7998,-0.6967,-0.6126,-0.6078,-0.5924,-0.5771,-0.5662,-0.5734,-0.5742,-0.5756,-0.5144,-0.3983,-0.2288,-0.0614,0.0791,0.4177,0.5893,0.6324,0.7566,0.8593,0.8747,0.8978,0.9693,1.0929,1.2593,1.3762,1.3967,1.3853,1.4239,1.5231,1.5528,1.5528,1.5528,1.5721,1.6004,1.6004,1.6294,1.6769,1.7436,1.9083,2.0623,2.2149,2.3762,2.4896,2.5754,2.6224,2.7536,2.8984,3.0226,3.1355,3.2203,3.2826,3.3384,3.393,3.4099,3.419,3.419,3.419,3.419,3.419,3.419,3.419,3.419,3.419,3.419,3.419,3.419,3.419,-3.6508,-3.6508,-3.6508,-3.6508,-3.6508,-3.6508,-3.6508,-3.6508,-3.6508,-3.6508,-3.6508,-3.6508,-3.6508,-3.6508,-3.6508,-3.6508,-3.6508,-3.6508,-3.6508,-3.6508,-3.6508,-3.5864,-3.4571,-3.3377,-3.2086,-3.0972,-2.9498,-2.7362,-2.522,-2.4686,-2.4329,-2.2814,-2.2994,-2.2899,-2.1949,-2.1759,-2.1759,-2.1759,-2.1759,-2.1482,-2.0623,-1.9954,-1.8412,-1.7051,-1.4729,-1.2399,-1.0637,-0.941,-0.7912,-0.6523,-0.5911,-0.5726,-0.5612,-0.5678,-0.5678,-0.5675,-0.5588,-0.4799,-0.3049,-0.1479,0.0087,0.1918,0.4655,0.5877,0.6599,0.7695,0.8448,0.858,0.8817,0.9637,1.1421,1.3555,1.4632,1.4844,1.4741,1.4832,1.5328,1.5528,1.5528,1.5625,1.6197,1.6673,1.7347,1.8212,1.8692,1.9163,2.071,2.1759,2.3278,2.4319,2.5367,2.6412,2.6787,2.7641,2.9194,3.0352,3.1446,3.1956,3.2566,3.319,3.3592,3.3839,3.4112,3.4177,3.4164,3.4177,3.419,3.419,3.419,3.419,3.419,3.419,3.419,3.419,3.419,-3.7476,-3.7476,-3.7476,-3.7298,-3.703,-3.703,-3.6851,-3.6598,-3.6508,-3.6508,-3.6508,-3.6508,-3.6508,-3.6508,-3.6508,-3.6508,-3.6508,-3.6508,-3.6508,-3.6508,-3.6508,-3.6508,-3.6223,-3.5398,-3.4103,-3.2543,-3.0605,-2.8837,-2.7455,-2.6555,-2.5722,-2.4498,-2.4393,-2.3647,-2.27,-2.232,-2.1759,-2.1759,-2.1759,-2.1663,-2.1378,-2.0519,-1.9762,-1.8987,-1.7339,-1.4987,-1.2487,-1.0679,-0.8778,-0.69,-0.597,-0.574,-0.5689,-0.5675,-0.5675,-0.5675,-0.5588,-0.4446,-0.2088,-0.0608,0.0869,0.3483,0.5784,0.6665,0.6837,0.7949,0.8463,0.86,0.8884,1.0189,1.2126,1.4293,1.5206,1.5431,1.5431,1.5431,1.5528,1.5528,1.5528,1.5811,1.6769,1.8108,1.8876,1.9554,2.0224,2.1083,2.2035,2.2984,2.4025,2.5063,2.6213,2.7443,2.791,2.8563,2.9808,3.0454,3.1096,3.1437,3.2151,3.2813,3.2956,3.319,3.3745,3.3891,3.4086,3.4177,3.419,3.419,3.419,3.419,3.419,3.419,3.419,3.419,3.419,-4.036,-4.036,-4.0377,-3.9641,-3.8494,-3.8422,-3.755,-3.6687,-3.6508,-3.6508,-3.6508,-3.6508,-3.6508,-3.6508,-3.6508,-3.6508,-3.6508,-3.6508,-3.6508,-3.6508,-3.6508,-3.6508,-3.6508,-3.6133,-3.5037,-3.3468,-3.374,-3.1235,-2.9115,-3.0262,-2.9522,-2.7362,-2.6604,-2.6042,-2.4749,-2.2974,-2.1949,-2.1949,-2.1854,-2.1759,-2.1663,-2.1473,-2.0719,-1.985,-1.8979,-1.7134,-1.4323,-1.1362,-0.9392,-0.7691,-0.6476,-0.5847,-0.5683,-0.5675,-0.5675,-0.5675,-0.5498,-0.4008,-0.0957,0.0435,0.2522,0.5601,0.7363,0.8324,0.8258,0.8534,0.877,0.8735,0.9873,1.1058,1.2862,1.4434,1.5373,1.5528,1.5528,1.5528,1.5528,1.5528,1.5528,1.5625,1.6962,1.85,1.9554,2.0328,2.1083,2.2889,2.3637,2.4676,2.5816,2.6379,2.7139,2.819,2.8854,2.9492,3.0035,3.059,3.0786,3.1008,3.1774,3.2151,3.2307,3.2951,3.3341,3.3745,3.4008,3.4177,3.419,3.419,3.419,3.419,3.419,3.419,3.419,3.419,3.419,-4.0518,-4.0728,-3.9058,-3.8422,-3.8583,-3.7801,-3.7119,-3.6598,-3.6508,-3.6508,-3.6508,-3.6508,-3.6508,-3.6508,-3.6508,-3.6508,-3.6508,-3.6508,-3.6508,-3.6508,-3.6508,-3.6508,-3.6508,-3.6508,-3.6044,-3.5023,-3.4571,-3.3181,-3.1798,-3.1838,-3.1091,-2.9498,-2.9127,-2.8188,-2.6521,-2.4655,-2.3543,-2.2709,-2.2044,-2.1759,-2.1759,-2.1759,-2.1282,-2.0996,-2.071,-2.0276,-1.8068,-1.4281,-1.1386,-0.9599,-0.7231,-0.5724,-0.5678,-0.5675,-0.5675,-0.5675,-0.5588,-0.4097,-0.1044,0.0695,0.3065,0.6132,0.7864,0.8487,0.8778,0.8897,0.907,0.9082,0.9978,1.1452,1.2964,1.3997,1.4758,1.5399,1.5528,1.5528,1.5528,1.6294,1.639,1.668,1.8404,2.1178,2.2719,2.2994,2.3846,2.4781,2.5241,2.6379,2.7501,2.7595,2.798,2.8656,2.9319,2.977,3.0313,3.059,3.0839,3.0839,3.1333,3.1476,3.193,3.2781,3.3159,3.3563,3.3992,3.419,3.419,3.419,3.419,3.419,3.419,3.419,3.419,3.419,3.419,-4.1025,-4.1147,-3.8704,-3.8083,-3.8406,-3.7639,-3.694,-3.6598,-3.694,-3.694,-3.6687,-3.694,-3.694,-3.6508,-3.6508,-3.6508,-3.6508,-3.6508,-3.6508,-3.6508,-3.6508,-3.6508,-3.6508,-3.6508,-3.6508,-3.6313,-3.5503,-3.4752,-3.439,-3.3769,-3.2922,-3.172,-3.1353,-3.0328,-2.8373,-2.6428,-2.4948,-2.3931,-2.2519,-2.1759,-2.1759,-2.1759,-2.1759,-2.1759,-2.1759,-2.1559,-2.0857,-1.7312,-1.4312,-1.2105,-0.8468,-0.6192,-0.576,-0.5675,-0.5675,-0.5588,-0.5324,-0.3921,-0.1131,0.0782,0.317,0.6218,0.7882,0.877,0.8945,0.9072,0.9135,0.9399,1.0685,1.2236,1.3542,1.414,1.4631,1.5392,1.5528,1.5528,1.5818,1.6865,1.7628,1.7354,2.0232,2.2614,2.414,2.4896,2.5472,2.6412,2.6963,2.7618,2.8539,2.8898,2.9096,2.9585,2.977,3.0141,3.0405,3.0682,3.0761,3.0761,3.0878,3.1086,3.1554,3.2125,3.2612,3.3289,3.3566,3.4112,3.4177,3.419,3.419,3.419,3.419,3.419,3.419,3.4586,3.4586,-4.2775,-4.2603,-4.1147,-3.9834,-3.8936,-3.8671,-3.789,-3.703,-3.789,-3.7801,-3.7119,-3.7728,-3.7639,-3.6687,-3.6508,-3.6508,-3.6508,-3.6508,-3.6508,-3.6508,-3.6508,-3.6508,-3.6508,-3.6508,-3.6508,-3.6508,-3.6328,-3.5669,-3.4752,-3.5413,-3.5594,-3.4118,-3.3286,-3.2543,-3.1431,-2.7723,-2.5584,-2.5042,-2.2984,-2.1759,-2.1759,-2.1759,-2.1759,-2.1759,-2.1759,-2.136,-2.0561,-1.923,-1.7394,-1.4714,-1.0603,-0.749,-0.6021,-0.5675,-0.5675,-0.5588,-0.4801,-0.3223,-0.1044,0.122,0.3705,0.615,0.7881,0.8949,0.908,0.9195,0.9266,0.9371,1.1601,1.3765,1.4847,1.527,1.5283,1.5528,1.5456,1.5476,1.5605,1.694,1.8303,1.9575,2.1273,2.3184,2.4623,2.5566,2.6495,2.7525,2.8364,2.9121,2.985,3.0023,3.0405,3.0498,3.0405,3.059,3.059,3.0761,3.0761,3.0761,3.08,3.0878,3.1099,3.1216,3.1437,3.245,3.3216,3.3839,3.4164,3.4177,3.419,3.4484,3.4484,3.4292,3.4484,3.4981,3.5185,-4.3995,-4.391,-4.1773,-4.0972,-4.1303,-4.0343,-3.9641,-3.9323,-3.8848,-3.8422,-3.7801,-3.755,-3.703,-3.6598,-3.6508,-3.6508,-3.6508,-3.6508,-3.6508,-3.6508,-3.6508,-3.6508,-3.6508,-3.6508,-3.6508,-3.6508,-3.6508,-3.6239,-3.5774,-3.6223,-3.6313,-3.5849,-3.5398,-3.4766,-3.3468,-2.9934,-2.7245,-2.6053,-2.3343,-2.1759,-2.1759,-2.1759,-2.1759,-2.1759,-2.1759,-2.145,-2.0896,-2.0159,-1.8333,-1.5236,-1.2534,-0.9216,-0.6021,-0.5675,-0.5675,-0.5501,-0.4712,-0.3662,-0.1919,0.1143,0.3763,0.5382,0.7559,0.8965,0.91,0.9072,0.908,0.9399,1.1379,1.3579,1.5135,1.5521,1.5425,1.5122,1.5119,1.5073,1.5436,1.7457,1.9243,2.0058,2.2206,2.389,2.4906,2.566,2.6881,2.8376,2.9121,2.969,3.0405,3.0761,3.0669,3.0669,3.0761,3.0761,3.0761,3.0761,3.0761,3.0761,3.0761,3.0761,3.0761,3.08,3.0982,3.2034,3.2774,3.3371,3.431,3.4287,3.4671,3.4879,3.5083,3.5083,3.5185,3.5593,3.6101,-4.3962,-4.3915,-4.1736,-4.1408,-4.2102,-4.1234,-4.0815,-4.071,-3.9817,-3.9113,-3.8583,-3.7639,-3.694,-3.6582,-3.6508,-3.6508,-3.6508,-3.6508,-3.6508,-3.6508,-3.6508,-3.6508,-3.6508,-3.6508,-3.6508,-3.6508,-3.6508,-3.6508,-3.6508,-3.6508,-3.6508,-3.6508,-3.6508,-3.5864,-3.448,-3.1038,-2.8535,-2.6977,-2.3627,-2.1759,-2.1759,-2.1759,-2.1759,-2.1749,-2.1639,-2.1327,-2.0822,-2.0359,-1.8594,-1.5815,-1.3605,-1.0407,-0.6624,-0.5675,-0.5675,-0.5501,-0.4537,-0.3402,-0.2358,0.1059,0.3877,0.4929,0.7205,0.872,0.902,0.8858,0.894,0.9689,1.1262,1.3199,1.4828,1.5361,1.5424,1.5384,1.5367,1.5599,1.6474,1.8163,1.9344,1.9943,2.2571,2.4415,2.4737,2.6075,2.742,2.8947,2.9597,2.9956,3.059,3.0761,3.0761,3.0761,3.0761,3.0761,3.0761,3.0761,3.0761,3.0761,3.0761,3.0761,3.0761,3.0813,3.1099,3.167,3.2364,3.3036,3.4071,3.4737,3.5334,3.563,3.6498,3.6595,3.6189,3.6494,3.7202,-4.2787,-4.2732,-4.142,-4.1077,-4.1302,-4.1285,-4.099,-4.0973,-4.0834,-3.9843,-3.8657,-3.8452,-3.7521,-3.6715,-3.6474,-3.6505,-3.6591,-3.6633,-3.6575,-3.6385,-3.6369,-3.6354,-3.6415,-3.64,-3.6489,-3.6505,-3.6477,-3.6508,-3.6508,-3.6508,-3.6508,-3.6508,-3.6508,-3.6059,-3.5157,-3.1418,-2.8825,-2.7257,-2.3911,-2.1854,-2.1759,-2.1759,-2.174,-2.1685,-2.1364,-2.0831,-2.0069,-2.0064,-1.8882,-1.6687,-1.3937,-1.0325,-0.6714,-0.5672,-0.5672,-0.5401,-0.3836,-0.2876,-0.2262,0.1569,0.4255,0.4822,0.7036,0.8719,0.8814,0.8604,0.8929,1.0241,1.1693,1.3182,1.4662,1.4807,1.5242,1.633,1.6414,1.6939,1.8117,1.8811,1.9092,2.0139,2.2458,2.3946,2.4548,2.6036,2.7862,2.9115,3.0103,3.059,3.0669,3.0761,3.0761,3.0761,3.0761,3.0761,3.0761,3.0761,3.0761,3.0761,3.0761,3.1038,3.113,3.1419,3.1684,3.2549,3.328,3.3619,3.4662,3.5663,3.6156,3.6892,3.8278,3.9014,3.91,3.9385,3.95,-4.2677,-4.2633,-4.2758,-4.277,-4.2871,-4.3325,-4.3079,-4.2296,-4.1663,-4.015,-3.8268,-3.742,-3.6683,-3.5929,-3.5918,-3.6369,-3.7266,-3.7335,-3.6823,-3.5929,-3.5424,-3.5455,-3.5825,-3.5903,-3.5918,-3.5964,-3.635,-3.6508,-3.6508,-3.6508,-3.6508,-3.6508,-3.6508,-3.6328,-3.5503,-3.2164,-2.9657,-2.8176,-2.4843,-2.2424,-2.1854,-2.1759,-2.1639,-2.1354,-2.0969,-2.05,-1.9995,-1.9778,-1.8704,-1.6717,-1.4016,-1.1187,-0.8527,-0.6624,-0.5638,-0.5314,-0.3805,-0.2671,-0.2106,0.1737,0.4428,0.458,0.6945,0.8546,0.8589,0.8497,0.902,1.0546,1.2475,1.407,1.4468,1.4309,1.4726,1.5848,1.616,1.6694,1.7944,1.8267,1.9195,2.1043,2.3175,2.4549,2.5319,2.652,2.7881,2.9569,3.0279,3.0749,3.0761,3.0761,3.0761,3.0761,3.0761,3.0761,3.0761,3.0946,3.1038,3.0946,3.0946,3.1498,3.1865,3.2218,3.28,3.3715,3.4382,3.4617,3.5333,3.6449,3.7214,3.784,3.9413,4.0931,4.1281,4.2118,4.2233,-4.335,-4.341,-4.396,-4.394,-4.3781,-4.4237,-4.3841,-4.2823,-4.1945,-4.0696,-3.9245,-3.8258,-3.7681,-3.7338,-3.6124,-3.59,-3.6547,-3.663,-3.6101,-3.5272,-3.483,-3.4914,-3.5532,-3.5578,-3.5671,-3.5949,-3.6277,-3.6508,-3.6508,-3.6508,-3.6508,-3.6508,-3.6508,-3.6344,-3.5503,-3.2452,-3.0052,-2.8454,-2.5136,-2.2804,-2.1863,-2.1759,-2.1492,-2.0987,-2.0645,-2.0249,-1.9843,-1.9243,-1.8241,-1.6786,-1.4194,-1.179,-0.9817,-0.7609,-0.6063,-0.529,-0.3664,-0.263,-0.1985,0.1807,0.4375,0.4596,0.6966,0.8432,0.8504,0.8425,0.896,1.0655,1.2935,1.4253,1.4277,1.4544,1.5278,1.6445,1.7099,1.8088,1.8977,1.94,2.0076,2.2064,2.3377,2.4802,2.5834,2.6846,2.7857,2.9328,2.993,3.0203,3.0372,3.0463,3.0528,3.0697,3.0761,3.0761,3.0761,3.1117,3.1485,3.1393,3.1314,3.1943,3.2949,3.3405,3.3755,3.4593,3.5289,3.5647,3.6058,3.7244,3.8997,3.9751,4.1499,4.2594,4.2155,4.3512,4.4226,-4.456,-4.4513,-4.4678,-4.4256,-4.3704,-4.3822,-4.3406,-4.2556,-4.1997,-4.1578,-4.1183,-4.0602,-4.0495,-4.0037,-3.7031,-3.5319,-3.4763,-3.4847,-3.481,-3.4582,-3.4551,-3.4837,-3.5501,-3.5578,-3.5887,-3.6261,-3.6431,-3.6508,-3.6508,-3.6508,-3.6508,-3.6508,-3.6508,-3.6059,-3.4871,-3.2282,-2.9867,-2.7921,-2.5053,-2.2994,-2.2044,-2.1903,-2.156,-2.0673,-2.0267,-1.9889,-1.9416,-1.8589,-1.7714,-1.6669,-1.4515,-1.2277,-1.0114,-0.8417,-0.6764,-0.5265,-0.3591,-0.2509,-0.206,0.1616,0.4185,0.4613,0.6634,0.8275,0.8291,0.8366,0.9134,1.0945,1.2803,1.3857,1.4023,1.4935,1.6305,1.7575,1.8965,2.0188,2.1629,2.1472,2.2301,2.3148,2.3466,2.4278,2.6372,2.7226,2.7949,2.8802,2.92,2.9421,2.9775,2.9891,3.0125,3.0476,3.0762,3.0894,3.1077,3.1981,3.283,3.3027,3.2676,3.231,3.3587,3.4766,3.5037,3.5428,3.648,3.7092,3.7266,3.8349,4.0133,4.1798,4.3354,4.4568,4.4339,4.526,4.6164,-4.2679,-4.2323,-4.2864,-4.3265,-4.364,-4.4217,-4.3844,-4.2868,-4.2979,-4.1938,-4.0375,-3.9856,-3.947,-3.9047,-3.8263,-3.6862,-3.547,-3.5311,-3.4836,-3.3984,-3.3932,-3.4272,-3.4822,-3.5316,-3.5671,-3.5903,-3.6261,-3.6492,-3.6508,-3.6508,-3.6508,-3.6508,-3.6508,-3.5954,-3.4585,-3.2858,-3.0828,-2.8676,-2.591,-2.414,-2.3567,-2.3376,-2.2319,-2.0346,-2.011,-1.9861,-1.9446,-1.9183,-1.8204,-1.6352,-1.481,-1.3372,-1.2038,-0.8998,-0.6575,-0.5244,-0.3504,-0.2592,-0.2456,0.0765,0.3133,0.4255,0.574,0.7226,0.8097,0.8354,0.922,1.0945,1.276,1.3792,1.3792,1.4221,1.5562,1.7554,1.8189,1.9409,2.164,2.1986,2.2552,2.3949,2.3771,2.4005,2.5671,2.6653,2.744,2.831,2.8887,2.9278,2.9369,2.9421,2.9603,3.006,3.1116,3.1999,3.2935,3.3441,3.3831,3.4132,3.4918,3.5354,3.7056,3.7518,3.7607,3.8156,3.8671,3.9201,3.9537,4.0114,4.1494,4.2937,4.4688,4.6304,4.6204,4.7801,4.8642,-4.3034,-4.2665,-4.3107,-4.3401,-4.3547,-4.4058,-4.3474,-4.2316,-4.2813,-4.1791,-3.9789,-3.9977,-3.9619,-3.8936,-3.8613,-3.7542,-3.592,-3.5358,-3.4934,-3.4706,-3.3625,-3.3822,-3.4779,-3.4913,-3.5069,-3.5594,-3.5964,-3.6165,-3.6227,-3.6385,-3.6508,-3.6508,-3.6508,-3.6149,-3.5188,-3.3242,-3.1384,-2.9708,-2.723,-2.5594,-2.4854,-2.4097,-2.2523,-2.0326,-1.9802,-1.9603,-1.915,-1.8435,-1.7418,-1.5929,-1.4493,-1.341,-1.2697,-0.9599,-0.6979,-0.5175,-0.4026,-0.3241,-0.2512,0.0339,0.2701,0.4175,0.5485,0.6878,0.8184,0.8354,0.9134,1.0945,1.2674,1.3792,1.3878,1.4471,1.5817,1.7892,1.8594,1.9578,2.1724,2.2301,2.3043,2.4364,2.4518,2.4956,2.6118,2.6761,2.7285,2.7802,2.8715,2.9386,2.9555,2.9582,3.0009,3.1052,3.2691,3.3889,3.3944,3.4326,3.5384,3.6372,3.7072,3.8124,3.9553,4.0273,4.0623,4.1181,4.1338,4.1599,4.1773,4.252,4.3075,4.3688,4.5571,4.6568,4.7193,4.8495,4.9338,-4.4363,-4.4384,-4.4299,-4.4066,-4.3309,-4.3359,-4.2686,-4.1593,-4.2094,-4.1196,-3.928,-4.0315,-4.0033,-3.9031,-3.8039,-3.7175,-3.6282,-3.486,-3.4877,-3.5676,-3.3696,-3.3502,-3.4931,-3.4256,-3.4312,-3.5331,-3.5455,-3.5486,-3.5517,-3.6057,-3.6292,-3.6308,-3.6412,-3.6172,-3.5785,-3.3457,-3.1654,-3.0536,-2.8639,-2.7117,-2.6022,-2.436,-2.2315,-2.0195,-1.9614,-1.9058,-1.8637,-1.7133,-1.6069,-1.5414,-1.4104,-1.2973,-1.2124,-1.0093,-0.7632,-0.5126,-0.481,-0.4175,-0.2556,0.0252,0.2602,0.4096,0.5393,0.6599,0.818,0.829,0.9025,1.0835,1.2693,1.3838,1.3982,1.5211,1.6828,1.8697,1.9457,2.0457,2.1715,2.2749,2.3688,2.4601,2.537,2.6455,2.7359,2.7671,2.7684,2.7957,2.8871,2.9529,3.0055,3.0306,3.0837,3.2932,3.4736,3.554,3.5225,3.5861,3.7198,3.8508,3.8876,3.9891,4.139,4.2484,4.3002,4.2416,4.2848,4.3174,4.3537,4.4222,4.4734,4.4779,4.4943,4.55,4.6898,4.7988,4.8618,-4.2243,-4.1757,-4.2381,-4.2223,-4.1693,-4.2382,-4.2444,-4.2188,-4.2316,-4.0789,-3.8344,-3.7936,-3.7572,-3.6849,-3.5781,-3.5642,-3.5954,-3.3933,-3.3617,-3.4691,-3.3805,-3.358,-3.4029,-3.4278,-3.4566,-3.483,-3.4775,-3.4775,-3.4876,-3.4914,-3.5093,-3.5007,-3.5007,-3.4492,-3.337,-3.2705,-3.1841,-3.0805,-2.9817,-2.8429,-2.6578,-2.4825,-2.2862,-2.0724,-1.9178,-1.836,-1.8198,-1.7869,-1.6887,-1.5383,-1.4883,-1.3926,-1.2279,-0.9937,-0.7502,-0.5188,-0.4878,-0.4164,-0.2614,-0.0653,0.16,0.3999,0.4552,0.5736,0.7942,0.787,0.8313,1.018,1.248,1.4025,1.4512,1.5036,1.6122,1.8492,1.916,1.9966,2.1373,2.2565,2.3688,2.4613,2.5536,2.6923,2.864,2.906,2.8993,2.9209,2.9304,2.9833,3.0743,3.103,3.2336,3.4511,3.537,3.5879,3.7526,3.8266,3.9119,4.0295,4.0941,4.1718,4.2717,4.3328,4.3346,4.3365,4.3451,4.3622,4.3622,4.4289,4.48,4.4923,4.5026,4.5391,4.6439,4.7202,4.7913,-4.1795,-4.1528,-4.1875,-4.1905,-4.1666,-4.209,-4.2052,-4.1634,-4.0606,-3.9208,-3.7794,-3.7631,-3.751,-3.7307,-3.6992,-3.6918,-3.6936,-3.4948,-3.4501,-3.5125,-3.3792,-3.3432,-3.3933,-3.3693,-3.3787,-3.4096,-3.4111,-3.4111,-3.421,-3.4505,-3.4405,-3.4226,-3.4489,-3.4205,-3.341,-3.2733,-3.2065,-3.1515,-3.1057,-2.9746,-2.7571,-2.5735,-2.38,-2.1579,-1.9848,-1.8861,-1.8643,-1.8267,-1.7476,-1.6268,-1.5159,-1.4402,-1.3994,-1.0458,-0.7298,-0.5101,-0.4571,-0.3777,-0.2608,-0.1281,0.0732,0.3744,0.4042,0.5167,0.7714,0.7242,0.7775,0.9951,1.2138,1.3839,1.4854,1.5368,1.659,1.915,1.9111,1.9726,2.1348,2.2814,2.3853,2.4449,2.628,2.8083,2.9452,3.0018,3.0341,3.0488,3.0422,3.0825,3.2027,3.3268,3.4939,3.6472,3.6687,3.7174,3.836,3.9239,4.0001,4.0982,4.1507,4.227,4.3392,4.3578,4.3727,4.4043,4.4118,4.4118,4.4203,4.463,4.48,4.4961,4.5378,4.5976,4.6223,4.6888,4.7286,-4.1632,-4.1743,-4.1743,-4.1766,-4.1912,-4.1695,-4.1229,-4.0377,-3.8554,-3.7748,-3.7793,-3.8163,-3.8361,-3.8459,-3.8879,-3.863,-3.7774,-3.6448,-3.6026,-3.6339,-3.4062,-3.3617,-3.4641,-3.3537,-3.3327,-3.3973,-3.3989,-3.3923,-3.3822,-3.4305,-3.4154,-3.3653,-3.4071,-3.4235,-3.4204,-3.3018,-3.2296,-3.2153,-3.1746,-3.0604,-2.8764,-2.6654,-2.4579,-2.2681,-2.0945,-1.987,-1.9305,-1.86,-1.7883,-1.7234,-1.5232,-1.4575,-1.5514,-1.1062,-0.738,-0.5009,-0.4211,-0.3479,-0.272,-0.1721,0.0078,0.2829,0.3455,0.4638,0.6776,0.6531,0.7289,0.9725,1.1748,1.3571,1.5101,1.6062,1.758,1.9723,1.9473,1.9823,2.1923,2.3274,2.4239,2.4479,2.7229,2.9026,2.9578,3.0649,3.1382,3.1567,3.2092,3.241,3.3522,3.5798,3.7347,3.775,3.8075,3.8441,3.8888,3.9462,4.0181,4.1059,4.1269,4.179,4.3205,4.342,4.3609,4.4374,4.429,4.445,4.4563,4.462,4.4563,4.4961,4.5795,4.6565,4.6071,4.6318,4.6325,-3.9614,-3.9633,-3.9633,-3.97,-3.973,-3.9249,-3.8966,-3.894,0.0,0.0,0.0,-3.7971,-3.7904,-3.8408,-3.6957,-3.6743,-3.7458,-3.5895,-3.5802,-3.6769,-3.5997,-3.5798,-3.5954,-3.5798,-3.5727,-3.5845,-3.5862,-3.5295,-3.4301,-3.4398,-3.3856,-3.2737,-3.2749,-3.2876,-3.2795,-3.2527,-3.2214,-3.1889,-3.0562,-2.9758,-2.9591,-2.657,-2.4535,-2.384,-2.1563,-2.0167,-1.9754,-1.8937,-1.7757,-1.6146,-1.5648,-1.4643,-1.2887,-1.0801,-0.8184,-0.5112,-0.4583,-0.4117,-0.3236,-0.1915,-0.0676,0.0537,0.2531,0.4112,0.5052,0.5807,0.7126,0.9101,1.1187,1.329,1.5418,1.6629,1.8163,2.0176,2.0595,2.1468,2.3229,2.4061,2.4626,2.5621,2.6975,2.8355,2.9946,3.1236,3.2184,3.2905,3.4232,3.5285,3.472,3.6204,3.7903,3.8363,3.8439,3.8724,3.9501,3.9938,4.0297,4.1013,4.1164,4.1642,4.2503,4.2768,4.2825,4.3091,4.2977,4.3186,4.3509,4.3262,4.3452,4.4639,4.5151,4.5283,4.5113,4.4799,4.4675,-3.9084,0.0,-3.9116,-3.9308,0.0,-3.8971,-3.8366,-3.777,-3.7592,-3.732,-3.7062,-3.6749,-3.687,-3.7173,-3.6591,-3.6386,-3.6482,-3.6066,-3.5956,-3.6064,-3.6282,-3.6342,-3.6342,-3.6342,-3.6032,-3.5425,-3.5408,-3.4703,-3.3458,-3.3379,-3.303,-3.2195,-3.2195,-3.206,-3.1895,-3.1879,-3.1759,-3.1613,-3.0995,-3.0716,-3.0854,-2.8244,-2.6772,-2.6507,-2.4165,0.0,0.0,0.0,0.0,0.0,0.0,0.0,0.0,0.0,0.0,-0.5944,-0.4527,-0.3464,-0.274,-0.1575,-0.069,-0.0066,0.1578,0.2832,0.3224,0.4113,0.6072,0.9419,1.2385,1.4748,1.6411,1.7673,1.9098,2.071,2.0849,2.1503,2.3066,2.4169,2.5003,2.5637,2.7616,2.9552,3.0611,3.2039,3.3353,3.4203,3.5439,3.6239,3.6187,3.7596,3.8897,3.9296,3.9277,3.9372,3.9902,4.0072,4.0263,4.049,4.0623,4.0965,4.1762,4.1914,4.2066,4.2465,4.264,4.2484,4.2465,4.1781,4.1917,4.3623,4.4506,4.4846,4.4575,4.4781,4.5187,-3.9124,-3.9184,-3.9184,-3.9352,-3.952,-3.8793,-3.7803,-3.664,-3.5955,-3.5439,-3.4985,-3.542,-3.5742,-3.591,-3.6564,-3.6302,-3.5424,-3.6416,-3.6326,-3.54,-3.5965,-3.637,-3.654,-3.614,-3.5544,-3.4756,-3.4463,-3.375,-3.2637,-3.2637,-3.2464,-3.2031,-3.1999,-3.1808,-3.1417,0.0,0.0,0.0,-3.1529,-3.1652,-3.1726,-2.9939,-2.8971,-2.8792,-2.6621,0.0,-2.438,-2.3605,-2.2255,-2.0214,-1.8815,0.0,0.0,0.0,0.0,0.0,0.0,0.0,0.0,0.0,0.0,0.0,0.1001,0.1747,0.2207,0.2888,0.5105,0.9472,1.3892,1.6424,1.6578,1.7585,1.9102,2.1033,2.0646,2.117,2.3665,2.4745,2.5483,2.5684,2.8527,3.0563,3.0911,3.246,3.3886,3.473,3.5779,3.6639,3.7301,3.866,3.9712,3.9844,3.9864,3.9997,4.0072,4.0072,4.0072,4.0072,4.0072,4.0263,4.087,4.1022,4.1307,4.1819,4.2047,4.1838,4.1402,4.0604,4.0814,4.2787,4.3774,4.4258,4.4157,4.4998,4.608,-3.9106,-3.9063,-3.9085,-3.9169,-3.8978,-3.6804,-3.5533,-3.4886,-3.4826,-3.4704,-3.4644,-3.4624,-3.4947,-3.5472,-3.5817,-3.5512,-3.4849,-3.6455,-3.6802,-3.6033,-3.5991,-3.6484,-3.7313,-3.5414,-3.4959,-3.567,-3.474,-3.3901,-3.3304,-3.3304,-3.2991,-3.2416,-3.2416,-3.2197,-3.1783,-3.1446,-3.1289,-3.1238,-3.0903,-3.0962,-3.1372,-2.9824,-2.8791,-2.8412,-2.6918,-2.5621,-2.4489,-2.3692,-2.1972,-1.9248,-1.8862,-1.8097,-1.6749,-1.3534,-0.9997,0.0,-0.5179,0.0,0.0,0.0,0.0,0.0,0.0,0.0,0.0,0.3697,0.5191,0.7974,1.465,1.7293,1.3612,1.4068,1.6292,2.0193,1.9812,2.1603,2.7276,2.6608,2.6197,2.7785,2.8731,2.9441,2.9991,3.1272,3.2682,3.411,3.5289,3.6301,3.73,3.8144,3.8763,3.8858,3.9503,3.9863,3.9958,4.0015,4.0053,4.0053,4.0034,4.011,4.0224,4.0243,4.0301,4.0415,4.051,4.0434,4.0301,4.0186,4.0662,4.2278,4.2495,4.2527,4.315,4.4256,4.5117,-3.7599,-3.7599,-3.7538,-3.7538,-3.7474,-3.6388,-3.5578,-3.5042,-3.5063,-3.4644,-3.3981,-3.3881,-3.384,-3.3778,-3.3906,-3.3958,-3.4036,-3.4922,-3.5332,-3.5351,-3.5774,-3.6037,-3.6105,-3.549,-3.4627,-3.3569,-3.3446,-3.2604,-3.1355,-3.1646,-3.1583,-3.108,-3.1386,-3.0462,-2.8356,-2.9436,-3.0191,-3.0588,-3.0289,-3.0413,-3.0794,-3.0183,-2.9764,-2.9545,-2.8423,-2.7256,-2.605,-2.5157,-2.3173,-1.9944,-1.9693,-1.8849,-1.7019,-1.2972,-0.9322,0.0,0.0,0.0,0.0,0.0,0.0,0.0,0.0,0.0,0.0,0.0,0.5671,0.5047,1.2135,1.6037,1.4192,1.5137,1.6526,1.825,1.789,1.9334,2.3837,2.495,2.4838,2.3622,2.6139,2.795,2.7922,2.9429,3.1526,3.4312,3.3672,3.3417,3.4832,3.5976,3.6656,3.6713,3.7757,3.876,3.9048,3.9579,4.0032,4.017,4.0104,4.0107,4.0166,4.0085,4.0072,4.0072,4.0072,4.0072,4.0072,4.0072,4.0243,4.1217,4.2292,4.3307,4.3434,4.5141,4.6775,-3.6676,-3.6505,-3.4747,-3.4163,-3.4423,-3.4423,-3.4368,-3.4291,-3.4311,-3.364,-3.2577,-3.2891,-3.2185,-3.0755,-3.0733,-3.1193,-3.2106,-3.2644,-3.325,-3.4116,-3.4562,-3.4611,-3.4351,-3.4137,-3.2987,-3.1281,-3.1545,-3.0831,-2.9102,-2.9914,-2.98,-2.8825,-2.9167,-2.7884,-2.517,-2.7277,-2.878,-2.9624,-2.9919,-3.0144,-3.0279,-3.0325,-3.0325,-3.0325,-2.9253,-2.8203,-2.6995,-2.618,-2.4214,-2.1029,-2.0175,-1.9198,-1.7782,-1.2473,0.0,0.0,0.0,0.0,0.0,0.0,0.0,0.0,0.0,0.3645,0.1949,0.0,0.5272,0.0,0.9388,1.4263,1.5383,1.6,0.0,0.0,1.6148,1.6719,1.9894,2.2555,2.294,1.9773,2.3784,2.6449,2.5278,2.7478,3.0565,3.4293,3.2667,3.1322,3.2143,3.3815,3.4913,3.4386,3.5308,3.6314,3.6264,3.7681,3.8922,3.9524,3.9648,3.9826,3.9943,4.0051,4.0112,3.9816,3.9964,3.9945,3.95,3.9909,4.0166,4.0368,4.2357,4.4234,4.4129,4.6035,4.7956,-3.7403,-3.6868,-3.0075,-2.7869,-2.8815,-2.8808,-2.9727,-3.1257,-3.1277,-3.0732,-3.0011,-3.1239,-2.9612,-2.5857,-2.5702,0.0,-2.8298,-2.9478,-3.0906,-3.2631,-3.1721,-3.1758,-3.2522,-2.979,-2.8915,-2.9698,-2.9269,-2.8521,-2.7683,-2.9157,-2.8374,-2.5359,-2.5089,-2.4664,-2.4136,-2.5884,-2.7465,-2.8677,-2.9898,-3.0213,-2.969,-2.9587,-2.9587,-2.9644,-2.8314,-2.7191,-2.6382,-2.5571,-2.4173,-2.2094,-1.9529,-1.8685,-1.9804,0.0,0.0,0.0,0.0,0.0,0.0,0.0,0.0,0.0,0.0,0.0,0.0,0.0,0.0,0.0,0.7791,0.0,1.6084,1.4684,0.0,0.0,0.0,1.4565,1.8732,2.0551,2.0939,1.9426,0.0,0.0,2.2357,2.5416,2.9497,3.3537,3.39,3.2832,3.0506,3.3025,3.4422,3.2074,3.2366,3.2342,3.1818,3.3663,3.5956,3.7392,3.8544,3.9037,3.9128,3.9846,4.0075,3.9386,3.9936,4.0095,3.8036,3.9497,4.0541,4.061,4.1716,4.3132,4.453,4.5978,4.7408,-3.2148,-2.9335,-2.587,-2.5138,-2.6129,-2.5408,-2.6927,-2.9823,-2.91,-2.8426,-2.7809,-2.7747,-2.5591,-2.1945,-2.1134,0.0,0.0,0.0,-2.6018,-2.8888,-2.7924,-2.8456,-2.9965,-2.8712,-2.7811,-2.73,-2.7516,-2.7128,-2.6236,-2.7293,-2.452,-1.8194,0.0,0.0,-1.9361,-2.3127,-2.5875,-2.7401,-2.8929,-2.9569,-2.9307,-2.9291,-2.904,-2.8519,-2.7965,-2.6823,-2.5156,-2.4749,-2.2922,-1.9308,-1.7669,-1.5463,0.0,0.0,0.0,0.0,0.0,0.0,0.0,0.0,0.0,0.0,0.0,0.3552,0.0,0.0,0.0,0.0,0.565,1.0276,1.7273,1.6342,0.0,0.0,0.0,0.0,0.0,0.0,0.0,1.6794,2.192,2.5297,2.4685,2.633,2.8516,3.089,2.9727,2.8497,2.8077,0.0,3.0767,3.1325,3.1139,3.1461,3.2965,3.3065,3.3271,3.4291,3.5622,3.6792,3.7526,3.8823,3.9743,3.9991,4.0316,4.0466,3.9877,4.0686,4.1501,4.1115,4.2821,4.4573,4.5402,4.6842,4.8121,-2.6237,0.0,0.0,0.0,0.0,-2.1749,-2.3427,-2.6682,-2.588,-2.5,-2.4091,-2.3561,0.0,0.0,0.0,0.0,0.0,0.0,-2.2415,-2.5512,-2.6303,-2.735,-2.8582,-2.8147,-2.7387,-2.6352,-2.6656,-2.6038,-2.4408,-2.3503,-1.9588,-1.2906,0.0,0.0,0.0,0.0,-2.3379,-2.5595,-2.7657,-2.8769,-2.8862,-2.9084,-2.8824,-2.8205,-2.7757,-2.6535,-2.4662,-2.3715,-2.151,-1.7769,-1.5157,0.0,0.0,0.0,0.0,0.0,0.0,0.0,0.0,0.0,0.0,0.0,0.0,0.0,0.0,0.0,0.0,0.0,0.0,0.0,1.6969,1.694,1.5283,0.0,0.0,0.0,0.0,0.0,0.0,0.0,0.0,0.0,2.6183,2.7262,2.8452,0.0,0.0,2.7578,2.7086,2.8228,2.9376,3.0085,2.9828,0.0,3.2641,3.2094,3.1596,3.2166,3.3923,3.5409,3.5929,3.6741,3.739,3.7526,3.8716,3.9379,3.9035,3.9066,3.9736,4.1411,4.1848,4.2294,4.3107,4.4682,4.6179,0.0,0.0,0.0,0.0,0.0,0.0,0.0,0.0,-2.1029,-1.994,0.0,-1.892,0.0,0.0,0.0,0.0,0.0,-1.8356,0.0,0.0,-2.7433,-2.9385,-2.8593,-2.7702,-2.7372,-2.7354,-2.6949,-2.5,-2.1522,-1.7269,0.0,0.0,0.0,0.0,0.0,0.0,-1.9622,-2.3247,-2.6342,-2.7968,-2.8266,-2.8856,-2.9089,-2.9043,-2.7501,-2.62,-2.5118,-2.23,-2.0105,-1.8735,-1.2029,0.0,0.0,0.0,0.0,0.0,0.0,0.0,0.0,0.0,0.0,0.0,0.0,0.0,0.0,0.0,0.0,0.0,0.0,0.0,0.0,1.5374,0.0,0.0,0.0,0.0,0.0,0.0,0.0,0.0,0.0,0.0,2.5732,2.7482,2.9328,3.1274,0.0,0.0,0.0,0.0,3.1731,2.7738,2.793,2.8392,2.7591,2.946,3.1239,3.16,0.0,0.0,3.4396,3.3692,3.2769,3.0901,3.4355,3.6399,3.3685,3.2574,3.4485,4.1071,3.7963,3.4732,3.5997,3.8196,4.0062,0.0,0.0,0.0,0.0,0.0,0.0,0.0,0.0,0.0,-1.546,0.0,-1.442,0.0,0.0,0.0,0.0,0.0,0.0,0.0,0.0,-2.0274,-2.1789,-2.259,-2.3028,-2.242,0.0,-2.0114,-1.8243,0.0,0.0,0.0,0.0,0.0,0.0,0.0,0.0,-1.9494,-2.265,-2.6397,-2.8626,-2.9294,-2.8962,-2.8768,-2.875,-2.7072,-2.4514,-2.1074,-1.9943,-1.7916,0.0,0.0,0.0,0.0,0.0,0.0,0.0,0.0,0.0,0.0,0.0,0.0,0.0,0.0,0.0,0.0,0.0,0.0,0.0,0.0,0.0,0.0,0.0,1.3535,0.0,0.0,0.0,0.0,0.0,0.0,0.0,0.0,0.0,2.2685,2.4888,2.7007,2.8875,3.0985,3.1703,2.9966,0.0,0.0,0.0,0.0,0.0,0.0,0.0,2.8881,2.6679,2.7302,2.8026,2.8008,2.9748,3.1136,3.1125,0.0,0.0,2.5063,2.6746,3.0618,3.5099,3.3016,3.0922,3.2167,3.3031,3.3943,0.0,0.0,0.0,0.0,0.0,0.0,0.0,0.0,0.0,-1.1106,-1.0742,0.0,0.0,0.0,0.0,0.0,0.0,0.0,0.0,0.0,0.0,0.0,-1.8345,-1.9139,0.0,0.0,0.0,0.0,0.0,0.0,0.0,0.0,0.0,0.0,0.0,0.0,-1.9222,-2.2384,-2.6854,-2.9596,-3.0463,-2.9917,-2.952,-2.933,-2.7877,-2.4962,-2.0409,0.0,0.0,0.0,0.0,0.0,0.0,0.0,0.0,0.0,0.0,0.0,0.0,0.0,0.0,0.0,0.0,0.0,0.0,0.0,0.0,0.0,0.0,0.0,0.0,0.0,1.2329,0.0,0.0,0.0,0.0,0.0,0.0,0.0,0.0,0.0,0.0,0.0,2.3739,2.6575,2.9661,3.1688,3.1834,3.302,3.4292,0.0,0.0,0.0,0.0,0.0,0.0,0.0,0.0,0.0,0.0,0.0,0.0,0.0,0.0,2.5857,1.8253,2.0971,2.4973,2.6486,0.0,0.0,0.0,0.0,0.0,0.0,0.0,0.0,0.0,0.0,0.0,0.0,0.0,0.0,0.0,0.0,0.0,0.0,-0.5665,0.0,0.0,0.0,0.0,0.0,0.0,0.0,0.0,0.0,0.0,0.0,0.0,0.0,0.0,0.0,0.0,0.0,0.0,0.0,0.0,0.0,0.0,-1.8693,-2.234,-2.7564,-3.0724,-3.1621,-3.1621,-3.1378,-3.0856,-2.9973,-2.757,-2.3564,0.0,0.0,0.0,0.0,0.0,0.0,0.0,0.0,0.0,0.0,0.0,0.0,0.0,0.0,0.0,0.0,0.0,0.0,0.0,0.0,0.0,0.0,0.0,0.0,0.0,0.0,1.2344,1.629,1.857,0.0,0.0,0.0,0.0,0.0,0.0,0.0,0.0,0.0,0.0,2.9323,3.2707,3.3773,3.5058,3.5885,3.6041,3.484,3.4155,3.4806,3.5146,3.4084,0.0,0.0,0.0,0.0,0.0,0.0,0.0,0.0,0.0,0.0,0.0,0.0,0.0,0.0,0.0,0.0,0.0,0.0,0.0,0.0,0.0,0.0,0.0,0.0,0.0,0.0,0.0,0.0,0.0,0.0,0.0,0.0,0.0,0.0,0.0,0.0,0.0,0.0,0.0,0.0,0.0,0.0,0.0,0.0,0.0,0.0,0.0,0.0,0.0,0.0,0.0,0.0,0.0,0.0,-1.8311,-2.1789,-2.7038,-3.0387,-3.1677,-3.106,-3.0629,-3.0442,-2.9456,-2.7237,0.0,0.0,0.0,0.0,0.0,0.0,0.0,0.0,0.0,0.0,0.0,0.0,0.0,0.0,0.0,0.0,0.0,0.0,0.0,0.0,0.0,0.0,0.0,0.0,0.0,0.0,0.0,0.0,2.3537,2.3503,1.8862,0.0,0.0,0.0,0.0,0.0,0.0,0.0,0.0,0.0,0.0,3.4418,3.6966,3.7722,3.7832,3.7475,3.6963,3.5962,3.4276,3.5727,3.5164,2.985,0.0,0.0,0.0,0.0,0.0,0.0,0.0,0.0,0.0,0.0,0.0,0.0,0.0,0.0,0.0,0.0,0.0,0.0,0.0,0.0,0.0,0.0,0.0,0.0,0.0,0.0,0.0,0.0,0.0,0.0,0.0,0.0,0.0,0.0,0.0,0.0,0.0,0.0,0.0,0.0,0.0,0.0,0.0,0.0,0.0,0.0,0.0,0.0,0.0,0.0,0.0,0.0,0.0,-1.8796,-2.1867,-2.7929,-3.1358,-3.2009,-3.1747,-3.1319,-3.0873,-2.9591,-2.6996,0.0,0.0,0.0,0.0,0.0,0.0,0.0,0.0,0.0,0.0,0.0,0.0,0.0,0.0,0.0,0.0,0.0,0.0,0.0,0.0,0.0,0.0,0.0,0.0,0.0,0.0,0.0,0.0,2.2184,2.287,1.9549,0.0,0.0,0.0,0.0,0.0,0.0,0.0,0.0,0.0,0.0,3.3623,3.6583,3.7475,0.0,0.0,3.765,3.644,3.5864,3.7337,3.6088,2.9148,2.8235,0.0,0.0,0.0,0.0,0.0,0.0,0.0,0.0,0.0,0.0,0.0,0.0,0.0,0.0,0.0,0.0,0.0,0.0,0.0,0.0,0.0,0.0,0.0,0.0,0.0,0.0,0.0,0.0,0.0,0.0,0.0,0.0,0.0,0.0,0.0,0.0,0.0,0.0,0.0,0.0,0.0,0.0,0.0,0.0,0.0,0.0,0.0,0.0,0.0,0.0,0.0,0.0,0.0,-2.2519,-2.9701,-3.3217,-3.2835,-3.3326,-3.3066,-3.1878,-3.0606,-2.7086,0.0,0.0,0.0,0.0,0.0,0.0,0.0,0.0,0.0,0.0,0.0,0.0,0.0,0.0,0.0,0.0,0.0,0.0,0.0,0.0,0.0,0.0,0.0,0.0,0.0,0.0,0.0,0.0,0.0,0.0,0.0,0.0,0.0,0.0,0.0,0.0,0.0,0.0,0.0,0.0,0.0,3.1079,3.3941,3.5186,3.6837,0.0,0.0,3.5738,3.831,3.9052,3.6575,2.836,0.0,0.0,0.0,0.0,0.0,0.0,0.0,0.0,0.0,0.0,0.0,0.0,0.0,0.0,0.0,0.0,0.0,0.0,0.0,0.0,0.0,0.0,0.0,0.0,0.0,0.0,0.0,0.0,0.0,0.0,0.0,0.0,0.0,0.0,0.0,0.0,0.0,0.0,0.0,0.0,0.0,0.0,0.0,0.0,0.0,0.0,0.0,0.0,0.0,0.0,0.0,0.0,0.0,0.0,-2.257,-2.9893,-3.3933,-3.4256,-3.5077,-3.5002,-3.4073,-3.3266,0.0,0.0,0.0,0.0,0.0,0.0,0.0,0.0,0.0,0.0,0.0,0.0,0.0,0.0,0.0,0.0,0.0,0.0,0.0,0.0,0.0,0.0,0.0,0.0,0.0,0.0,0.0,1.0578,0.0,0.0,0.0,0.0,0.0,0.0,0.0,0.0,0.0,0.0,0.0,0.0,0.0,0.0,3.1179,3.6836,3.4674,3.3467,0.0,0.0,3.3447,3.3204,3.5299,3.507,0.0,0.0,0.0,0.0,0.0,0.0,0.0,0.0,0.0,0.0,0.0,0.0,0.0,0.0,0.0,0.0,0.0,0.0,0.0,0.0,0.0,0.0,0.0,0.0,0.0,0.0,0.0,0.0,0.0,0.0,0.0,0.0,0.0,0.0,0.0,0.0,0.0,0.0,0.0,0.0,0.0,0.0,0.0,0.0,0.0,0.0,0.0,0.0,0.0,0.0,0.0,0.0,0.0,0.0,-1.9185,-2.3617,-2.9654,-3.3712,-3.5605,-3.6688,-3.6636,-3.5305,-3.383,-3.0042,0.0,0.0,0.0,0.0,0.0,0.0,0.0,0.0,0.0,0.0,0.0,0.0,0.0,0.0,0.0,0.0,0.0,0.0,0.0,0.0,0.0,0.0,0.0,0.0,0.0,0.0,0.0,0.0,0.0,0.0,0.0,0.0,0.0,0.0,0.0,0.0,0.0,0.0,0.0,0.0,0.0,0.0,3.5398,3.2824,0.0,0.0,0.0,3.1144,3.2212,0.0,0.0,0.0,0.0,0.0,0.0,0.0,0.0,0.0,0.0,0.0,0.0,0.0,0.0,0.0,0.0,0.0,0.0,0.0,0.0,0.0,0.0,0.0,0.0,0.0,0.0,0.0,0.0,0.0,0.0,0.0,0.0,0.0,0.0,0.0,0.0,0.0,0.0,0.0,0.0,0.0,0.0,0.0,0.0,0.0,0.0,0.0,0.0,0.0,0.0,0.0,0.0,0.0,0.0,0.0,0.0,0.0,-2.4704,-2.9688,-3.375,-3.6866,-3.829,-3.8141,-3.6255,-3.3634,-2.9685,0.0,0.0,0.0,0.0,0.0,0.0,0.0,0.0,0.0,0.0,0.0,0.0,0.0,0.0,0.0,0.0,0.0,0.0,0.0,0.0,0.0,0.0,0.0,0.0,0.0,0.0,0.0,0.0,0.0,0.0,0.0,0.0,0.0,0.0,0.0,0.0,0.0,0.0,0.0,0.0,0.0,3.1449,3.2271,3.0356,2.8919,0.0,0.0,2.8914,3.2591,3.2159,0.0,0.0,0.0,0.0,0.0,0.0,0.0,0.0,0.0,0.0,0.0,0.0,0.0,0.0,0.0,0.0,0.0,0.0,0.0,0.0,0.0,0.0,0.0,0.0,0.0,0.0,0.0,0.0,0.0,0.0,0.0,0.0,0.0,0.0,0.0,0.0,0.0,0.0,0.0,0.0,0.0,0.0,0.0,0.0,0.0,0.0,0.0,0.0,0.0,0.0,0.0,0.0,0.0,0.0,0.0,0.0,-2.4508,-3.222,-3.7032,-3.8588,-4.0009,-3.9793,-3.786,-3.6436,-3.2044,0.0,0.0,0.0,0.0,0.0,0.0,0.0,0.0,0.0,0.0,0.0,0.0,0.0,0.0,0.0,0.0,0.0,0.0,0.0,0.0,0.0,0.0,0.0,0.0,0.0,0.0,0.0,0.0,0.0,0.0,0.0,0.0,0.0,0.0,0.0,0.0,0.0,0.0,0.0,0.0,0.0,2.8913,3.3364,2.9344,0.0,0.0,0.0,0.0,2.7903,2.7064,0.0,0.0,0.0,0.0,0.0,0.0,0.0,0.0,0.0,0.0,0.0,0.0,0.0,0.0,0.0,0.0,0.0,0.0,0.0,0.0,0.0,0.0,0.0,0.0,0.0,0.0,0.0,0.0,0.0,0.0,0.0,0.0,0.0,0.0,0.0,0.0,0.0,0.0,0.0,0.0,0.0,0.0,0.0,0.0,0.0,0.0,0.0,0.0,0.0,0.0,0.0,0.0,0.0,0.0,0.0,0.0,-2.7285,-3.3038,-3.7702,-4.1207,-4.1782,-4.1217,-3.9436,-3.7336,-3.2483,0.0,0.0,0.0,0.0,0.0,0.0,0.0,0.0,0.0,0.0,0.0,0.0,0.0,0.0,0.0,0.0,0.0,0.0,0.0,0.0,0.0,0.0,0.0,0.0,0.0,0.0,0.0,0.0,0.0,0.0,0.0,0.0,0.0,0.0,0.0,0.0,0.0,0.0,0.0,0.0,2.6459,2.7317,3.1793,0.0,0.0,0.0,0.0,0.0,0.0,2.5668,2.4079,0.0,0.0,0.0,0.0,0.0,0.0,0.0,0.0,0.0,0.0,0.0,0.0,0.0,0.0,0.0,0.0,0.0,0.0,0.0,0.0,0.0,0.0,0.0,0.0,0.0,0.0,0.0,0.0,0.0,0.0,0.0,0.0,0.0,0.0,0.0,0.0,0.0,0.0,0.0,0.0,0.0,0.0,0.0,0.0,0.0,0.0,0.0,0.0,0.0,0.0,0.0,0.0,0.0,0.0,0.0,-2.9366,-3.2463,-3.6899,-4.2779,-4.2828,-4.1945,-4.0223,-3.7234,-3.227,-2.5222,0.0,0.0,0.0,0.0,0.0,0.0,0.0,0.0,0.0,0.0,0.0,0.0,0.0,0.0,0.0,0.0,0.0,0.0,0.0,0.0,0.0,0.0,0.0,0.0,0.0,0.0,0.0,0.0,0.0,0.0,0.0,0.0,0.0,0.0,0.0,0.0,0.0,0.0,0.0,2.4678,2.5843,0.0,0.0,0.0,0.0,0.0,0.0,0.0,0.0,2.4537,0.0,0.0,0.0,0.0,0.0,0.0,0.0,0.0,0.0,0.0,0.0,0.0,0.0,0.0,0.0,0.0,0.0,0.0,0.0,0.0,0.0,0.0,0.0,0.0,0.0,0.0,0.0,0.0,0.0,0.0,0.0,0.0,0.0,0.0,0.0,0.0,0.0,0.0,0.0,0.0,0.0,0.0,0.0,0.0,0.0,0.0,0.0,0.0,0.0,0.0,0.0,0.0,0.0,0.0,0.0,0.0,-3.01,-3.5262,-3.9587,-4.1252,-4.0864,-3.8695,-3.6892,-3.2431,-2.5155,0.0,0.0,0.0,0.0,0.0,0.0,0.0,0.0,0.0,0.0,0.0,0.0,0.0,0.0,0.0,0.0,0.0,0.0,0.0,0.0,0.0,0.0,0.0,0.0,0.0,0.0,0.0,0.0,0.0,0.0,0.0,0.0,0.0,0.0,0.0,0.0,0.0,0.0,1.7289,2.0468,0.0,0.0,0.0,0.0,0.0,0.0,0.0,0.0,2.5456,0.0,0.0,0.0,0.0,0.0,0.0,0.0,0.0,0.0,0.0,0.0,0.0,0.0,0.0,0.0,0.0,0.0,0.0,0.0,0.0,0.0,0.0,0.0,0.0,0.0,0.0,0.0,0.0,0.0,0.0,0.0,0.0,0.0,0.0,0.0,0.0,0.0,0.0,0.0,0.0,0.0,0.0,0.0,0.0,0.0,0.0,0.0,0.0,0.0,0.0,0.0,0.0,0.0,0.0,0.0,0.0,0.0,0.0,-3.4723,-3.8455,-4.0133,-4.0446,-3.9257,-3.5282,-3.033,0.0,0.0,0.0,0.0,0.0,0.0,0.0,0.0,0.0,0.0,0.0,0.0,0.0,0.0,0.0,0.0,0.0,0.0,0.0,0.0,0.0,0.0,0.0,0.0,0.0,0.0,0.0,0.0,0.0,0.0,0.0,0.0,0.0,0.0,0.0,0.0,0.0,0.0,0.0,0.0,0.0,0.0,0.0,0.0,0.0,0.0,0.0,0.0,0.0,0.0,0.0,0.0,0.0,0.0,0.0,0.0,0.0,0.0,0.0,0.0,0.0,0.0,0.0,0.0,0.0,0.0,0.0,0.0,0.0,0.0,0.0,0.0,0.0,0.0,0.0,0.0,0.0,0.0,0.0,0.0,0.0,0.0,0.0,0.0,0.0,0.0,0.0,0.0,0.0,0.0,0.0,0.0,0.0,0.0,0.0,0.0,0.0,0.0,0.0,0.0,0.0,0.0,0.0,0.0,0.0,0.0,0.0,0.0,-3.3651,-3.7032,-3.9053,-3.9968,-3.9742,-3.3953,-2.8456,0.0,0.0,0.0,0.0,0.0,0.0,0.0,0.0,0.0,0.0,0.0,0.0,0.0,0.0,0.0,0.0,0.0,0.0,0.0,0.0,0.0,0.0,0.0,0.0,0.0,0.0,0.0,0.0,0.0,0.0,0.0,0.0,0.0,0.0,0.0,0.0,0.0,0.0,0.0,0.0,0.0,0.0,0.0,0.0,0.0,0.0,0.0,0.0,2.1126,0.0,0.0,0.0,0.0,0.0,0.0,0.0,0.0,0.0,0.0,0.0,0.0,0.0,0.0,0.0,0.0,0.0,0.0,0.0,0.0,0.0,0.0,0.0,0.0,0.0,0.0,0.0,0.0,0.0,0.0,0.0,0.0,0.0,0.0,0.0,0.0,0.0,0.0,0.0,0.0,0.0,0.0,0.0,0.0,0.0,0.0,0.0,0.0,0.0,0.0,0.0,0.0,0.0,0.0,0.0,0.0,0.0,0.0,0.0,-3.0746,-3.3849,-3.7685,-3.9224,-3.8076,-3.3783,-2.8581,0.0,0.0,0.0,0.0,0.0,0.0,0.0,0.0,0.0,0.0,0.0,0.0,0.0,0.0,0.0,0.0,0.0,0.0,0.0,0.0,0.0,0.0,0.0,0.0,0.0,0.0,0.0,0.0,0.0,0.0,0.0,0.0,0.0,0.0,0.0,0.0,0.0,0.0,0.0,0.0,0.0,0.0,0.0,0.0,0.0,0.0,0.0,0.0,0.0,0.0,0.0,0.0,0.0,0.0,0.0,0.0,0.0,0.0,0.0,0.0,0.0,0.0,0.0,0.0,0.0,0.0,0.0,0.0,0.0,0.0,0.0,0.0,0.0,0.0,0.0,0.0,0.0,0.0,0.0,0.0,0.0,0.0,0.0,0.0,0.0,0.0,0.0,0.0,0.0,0.0,0.0,0.0,0.0,0.0,0.0,0.0,0.0,0.0,0.0,0.0,0.0,0.0,0.0,0.0,0.0,0.0,0.0,0.0,-2.5775,-3.1657,-3.5987,-3.7097,-3.4794,-2.7888,-2.2631,0.0,0.0,0.0,0.0,0.0,0.0,0.0,0.0,0.0,0.0,0.0,0.0,0.0,0.0,0.0,0.0,0.0,0.0,0.0,0.0,0.0,0.0,0.0,0.0,0.0,0.0,0.0,0.0,0.0,0.0,0.0,0.0,0.0,0.0,0.0,0.0,0.0,0.0,0.0,0.0,0.0,0.0,0.0,0.0,0.0,0.0,0.0,0.0,0.0,0.0,0.0,0.0,0.0,0.0,0.0,0.0,0.0,0.0,0.0,0.0,0.0,0.0,0.0,0.0,0.0,0.0,0.0,0.0,0.0,0.0,0.0,0.0,0.0,0.0,0.0,0.0,0.0,0.0,0.0,0.0,0.0,0.0,0.0,0.0,0.0,0.0,0.0,0.0,0.0,0.0,0.0,0.0,0.0,0.0,0.0,0.0,0.0,0.0,0.0,0.0,0.0,0.0,0.0,0.0,0.0,0.0,0.0,0.0,0.0,-2.7126,-3.2134,-3.321,-2.9994,-2.2828,-1.7701,0.0,0.0,0.0,0.0,0.0,0.0,0.0,0.0,0.0,0.0,0.0,0.0,0.0,0.0,0.0,0.0,0.0,0.0,0.0,0.0,0.0,0.0,0.0,0.0,0.0,0.0,0.0,0.0,0.0,0.0,0.0,0.0,0.0,0.0,0.0,0.0,0.0,0.0,0.0,0.0,0.0,0.0,0.0,0.0,0.0,0.0,0.0,0.0,0.0,0.0,0.0,0.0,0.0,0.0,0.0,0.0,0.0,0.0,0.0,0.0,0.0,0.0,0.0,0.0,0.0,0.0,0.0,0.0,0.0,0.0,0.0,0.0,0.0,0.0,0.0,0.0,0.0,0.0,0.0,0.0,0.0,0.0,0.0,0.0,0.0,0.0,0.0,0.0,0.0,0.0,0.0,0.0,0.0,0.0,0.0,0.0,0.0,0.0,0.0,0.0,0.0,0.0,0.0,0.0,0.0,0.0,0.0,0.0,0.0,-1.8589,-2.5063,-2.6846,-2.371,-2.0644,-1.6124,0.0,0.0,0.0,0.0,0.0,0.0,0.0,0.0,0.0,0.0,0.0,0.0,0.0,0.0,0.0,0.0,0.0,0.0,0.0,0.0,0.0,0.0,0.0,0.0,0.0,0.0,0.0,0.0,0.0,0.0,0.0,0.0,0.0,0.0,0.0,0.0,0.0,0.0,0.0,0.0,0.0,0.0,0.0,0.0,0.0,0.0,0.0,0.0,0.0,0.0,0.0,0.0,0.0,0.0,0.0,0.0,0.0,0.0,0.0,0.0,0.0,0.0,0.0,0.0,0.0,0.0,0.0,0.0,0.0,0.0,0.0,0.0,0.0,0.0,0.0,0.0,0.0,0.0,0.0,0.0,0.0,0.0,0.0,0.0,0.0,0.0,0.0,0.0,0.0,0.0,0.0,0.0,0.0,0.0,0.0,0.0,0.0,0.0,0.0,0.0,0.0,0.0,0.0,0.0,0.0,0.0,0.0,0.0,0.0,-0.5512,-1.0649,-1.4767,-1.7252,-1.1723,-0.8751,-0.8715,0.0,0.0,0.0,0.0,0.0,0.0,0.0,0.0,0.0,0.0,0.0,0.0,0.0,0.0,0.0,0.0,0.0,0.0,0.0,0.0,0.0,0.0,0.0,0.0,0.0,0.0,0.0,0.0,0.0,0.0,0.0,0.0,0.0,0.0,0.0,0.0,0.0,0.0,0.0,0.0,0.0,0.0,0.0,0.0,0.0,0.0,0.0,0.0,0.0,0.0,0.0,0.0,0.0,0.0,0.0,0.0,0.0,0.0,0.0,0.0,0.0,0.0,0.0,0.0,0.0,0.0,0.0,0.0,0.0,0.0,0.0,0.0,0.0,0.0,0.0,0.0,0.0,0.0,0.0,0.0,0.0,0.0,0.0,0.0,0.0,0.0,0.0,0.0,0.0,0.0,0.0,0.0,0.0,0.0,0.0,0.0,0.0,0.0,0.0,0.0,0.0,0.0,0.0,0.0,0.0,0.0,0.0,0.0,0.1598,-0.3678,-0.8038,-1.0767,-0.6035,-0.4169,0.0,0.0,0.0,0.0,0.0,0.0,0.0,0.0,0.0,0.0,0.0,0.0,0.0,0.0,0.0,0.0,0.0,0.0,0.0,0.0,0.0,0.0,0.0,0.0,0.0,0.0,0.0,0.0,0.0,0.0,0.0,0.0,0.0,0.0,0.0,0.0,0.0,0.0,0.0,0.0,0.0,0.0,0.0,0.0,0.0,0.0,0.0,0.0,0.0,0.0,0.0,0.0,0.0,0.0,0.0,0.0,0.0,0.0,0.0,0.0,0.0,0.0,0.0,0.0,0.0,0.0,0.0,0.0,0.0,0.0,0.0,0.0,0.0,0.0,0.0,0.0,0.0,0.0,0.0,0.0,0.0,0.0,0.0,0.0,0.0,0.0,0.0,0.0,0.0,0.0,0.0,0.0,0.0,0.0,0.0,0.0,0.0,0.0,0.0,0.0,0.0,0.0,0.0,0.0,0.0,0.0,0.0,0.0,0.9814,0.0381,-0.6093,-0.7847,-0.5253,-0.488,-0.3369,0.0,0.0,0.0,0.0,0.0,0.0,0.0,0.0,0.0,0.0,0.0,0.0,0.0,0.0,0.0,0.0,0.0,0.0,0.0,0.0,0.0,0.0,0.0,0.0,0.0,0.0,0.0,0.0,0.0,0.0,0.0,0.0,0.0,0.0,0.0,0.0,0.0,0.0,0.0,0.0,0.0,0.0,0.0,0.0,0.0,0.0,0.0,0.0,0.0,0.0,0.0,0.0,0.0,0.0,0.0,0.0,0.0,0.0,0.0,0.0,0.0,0.0,0.0,0.0,0.0,0.0,0.0,0.0,0.0,0.0,0.0,0.0,0.0,0.0,0.0,0.0,0.0,0.0,0.0,0.0,0.0,0.0,0.0,0.0,0.0,0.0,0.0,0.0,0.0,0.0,0.0,0.0,0.0,0.0,0.0,0.0,0.0,0.0,0.0,0.0,0.0,0.0,0.0,0.0,0.0,0.0,0.0,0.0,0.0,0.5294,0.0,-0.0666,0.0,-0.0126,0.0285,0.0,0.0,0.0,0.0,0.0,0.0,0.0,0.0,0.0,0.0,0.0,0.0,0.0,0.0,0.0,0.0,0.0,0.0,0.0,0.0,0.0,0.0,0.0,0.0,0.0,0.0,0.0,0.0,0.0,0.0,0.0,0.0,0.0,0.0,0.0,0.0,0.0,0.0,0.0,0.0,0.0,0.0,0.0,0.0,0.0,0.0,0.0,0.0,0.0,0.0,0.0,0.0,0.0,0.0,0.0,0.0,0.0,0.0,0.0,0.0,0.0,0.0,0.0,0.0,0.0,0.0,0.0,0.0,0.0,0.0,0.0,0.0,0.0,0.0,0.0,0.0,0.0,0.0,0.0,0.0,0.0,0.0,0.0,0.0,0.0,0.0,0.0,0.0,0.0,0.0,0.0,0.0,0.0,0.0,0.0,0.0,0.0,0.0,0.0,0.0,0.0,0.0,0.0,0.0,0.0,0.0,0.0,0.0,0.0,0.772,0.571,0.3495,0.0,0.2008,0.2081,0.0,0.0,0.0,0.0,0.0,0.0,0.0,0.0,0.0,0.0,0.0,0.0,0.0,0.0,0.0,0.0,0.0,0.0,0.0,0.0,0.0,0.0,0.0,0.0,0.0,0.0,0.0,0.0,0.0,0.0,0.0,0.0,0.0,0.0,0.0,0.0,0.0,0.0,0.0,0.0,0.0,0.0,0.0,0.0,0.0,0.0,0.0,0.0,0.0,0.0,0.0,0.0,0.0,0.0,0.0,0.0,0.0,0.0,0.0,0.0,0.0,0.0,0.0,0.0,0.0,0.0,0.0,0.0,0.0,0.0,0.0,0.0,0.0,0.0,0.0,0.0,0.0,0.0,0.0,0.0,0.0,0.0,0.0,0.0,0.0,0.0,0.0,0.0,0.0,0.0,0.0,0.0,0.0,0.0,0.0,0.0,0.0,0.0,0.0,0.0,0.0,0.0,0.0,0.0,0.0,0.0,0.0,0.0,0.0,0.0,0.5537,0.4514,0.4798,0.194,0.2199,0.0,0.0,0.0,0.0,0.0,0.0,0.0,0.0,0.0,0.0,0.0,0.0,0.0,0.0,0.0,0.0,0.0,0.0,0.0,0.0,0.0,0.0,0.0,0.0,0.0,0.0,0.0,0.0,0.0,0.0,0.0,0.0,0.0,0.0,0.0,0.0,0.0,0.0,0.0,0.0,0.0,0.0,0.0,0.0,0.0,0.0,0.0,0.0,0.0,0.0,0.0,0.0,0.0,0.0,0.0,0.0,0.0,0.0,0.0,0.0,0.0,0.0,0.0,0.0,0.0,0.0,0.0,0.0,0.0,0.0,0.0,0.0,0.0,0.0,0.0,0.0,0.0,0.0,0.0,0.0,0.0,0.0,0.0,0.0,0.0,0.0,0.0,0.0,0.0,0.0,0.0,0.0,0.0,0.0,0.0,0.0,0.0,0.0,0.0,0.0,0.0,0.0,0.0,0.0,0.0,0.0,0.0,0.0,0.0,0.0,0.7957,0.0,0.6013,0.4916,0.4816,0.5774,0.0,0.0,0.0,0.0,0.0,0.0,0.0,0.0,0.0,0.0,0.0,0.0,0.0,0.0,0.0,0.0,0.0,0.0,0.0,0.0,0.0,0.0,0.0,0.0,0.0,0.0,0.0,0.0,0.0,0.0,0.0,0.0,0.0,0.0,0.0,0.0,0.0,0.0,0.0,0.0,0.0,0.0,0.0,0.0,0.0,0.0,0.0,0.0,0.0,0.0,0.0,0.0,0.0,0.0,0.0,0.0,0.0,0.0,0.0,0.0,0.0,0.0,0.0,0.0,0.0,0.0,0.0,0.0,0.0,0.0,0.0,0.0,0.0,0.0,0.0,0.0,0.0,0.0,0.0,0.0,0.0,0.0,0.0,0.0,0.0,0.0,0.0,0.0,0.0,0.0,0.0,0.0,0.0,0.0,0.0,0.0,0.0,0.0,0.0,0.0,0.0,0.0,0.0,0.0,0.0,0.0,0.0,0.0,0.0,0.0,0.0,0.6434,0.7137,0.7554,0.0,0.0,0.0,0.0,0.0,0.0,0.0,0.0,0.0,0.0,0.0,0.0,0.0,0.0,0.0,0.0,0.0,0.0,0.0,0.0,0.0,0.0,0.0,0.0,0.0,0.0,0.0,0.0,0.0,0.0,0.0,0.0,0.0,0.0,0.0,0.0,0.0,0.0,0.0,0.0,0.0,0.0,0.0,0.0,0.0,0.0,0.0,0.0,0.0,0.0,0.0,0.0,0.0,0.0,0.0,0.0,0.0,0.0,0.0,0.0,0.0,0.0,0.0,0.0,0.0,0.0,0.0,0.0,0.0,0.0,0.0,0.0,0.0,0.0,0.0,0.0,0.0,0.0,0.0,0.0,0.0,0.0,0.0,0.0,0.0,0.0,0.0,0.0,0.0,0.0,0.0,0.0,0.0,0.0,0.0,0.0,0.0,0.0,0.0,0.0,0.0,0.0,0.0,0.0,0.0,0.0,0.0,0.0,0.0,0.0,0.0,0.7997,0.6936,0.902,0.0,1.0019,0.0,0.0,0.0,0.0,0.0,0.0,0.0,0.0,0.0,0.0,0.0,0.0,0.0,0.0,0.0,0.0,0.0,0.0,0.0,0.0,0.0,0.0,0.0,0.0,0.0,0.0,0.0,0.0,0.0,0.0,0.0,0.0,0.0,0.0,0.0,0.0,0.0,0.0,0.0,0.0,0.0,0.0,0.0,0.0,0.0,0.0,0.0,0.0,0.0,0.0,0.0,0.0,0.0,0.0,0.0,0.0,0.0,0.0,0.0,0.0,0.0,0.0,0.0,0.0,0.0,0.0,0.0,0.0,0.0,0.0,0.0,0.0,0.0,0.0,0.0,0.0,0.0,0.0,0.0,0.0,0.0,0.0,0.0,0.0,0.0,0.0,0.0,0.0,0.0,0.0,0.0,0.0,0.0,0.0,0.0,0.0,0.0,0.0,0.0,0.0,0.0,0.0,0.0,0.0,0.0,0.0,0.0,0.0,0.0,0.0,0.0,0.0,1.2196,1.1705,0.8296,0.0,0.0,0.0,0.0,0.0,0.0,0.0,0.0,0.0,0.0,0.0,0.0,0.0,0.0,0.0,0.0,0.0,0.0,0.0,0.0,0.0,0.0,0.0,0.0,0.0,0.0,0.0,0.0,0.0,0.0,0.0,0.0,0.0,0.0,0.0,0.0,0.0,0.0,0.0,0.0,0.0,0.0,0.0,0.0,0.0,0.0,0.0,0.0,0.0,0.0,0.0,0.0,0.0,0.0,0.0,0.0,0.0,0.0,0.0,0.0,0.0,0.0,0.0,0.0,0.0,0.0,0.0,0.0,0.0,0.0,0.0,0.0,0.0,0.0,0.0,0.0,0.0,0.0,0.0,0.0,0.0,0.0,0.0,0.0,0.0,0.0,0.0,0.0,0.0,0.0,0.0,0.0,0.0,0.0,0.0,0.0,0.0,0.0,0.0,0.0,0.0,0.0,0.0,0.0,0.0,0.0,0.0,0.0,0.0,0.0,1.2933,1.0846,1.1801,1.0739,0.7385,0.0,0.0,0.0,0.0,0.0,0.0,0.0,0.0,0.0,0.0,0.0,0.0,0.0,0.0,0.0,0.0,0.0,0.0,0.0,0.0,0.0,0.0,0.0,0.0,0.0,0.0,0.0,0.0,0.0,0.0,0.0,0.0,0.0,0.0,0.0,0.0,0.0,0.0,0.0,0.0,0.0,0.0,0.0,0.0,0.0,0.0,0.0,0.0,0.0,0.0,0.0,0.0,0.0,0.0,0.0,0.0,0.0,0.0,0.0,0.0,0.0,0.0,0.0,0.0,0.0,0.0,0.0,0.0,0.0,0.0,0.0,0.0,0.0,0.0,0.0,0.0,0.0,0.0,0.0,0.0,0.0,0.0,0.0,0.0,0.0,0.0,0.0,0.0,0.0,0.0,0.0,0.0,0.0,0.0,0.0,0.0,0.0,0.0,0.0,0.0,0.0,0.0,0.0,0.0,0.0,0.0,0.0,0.0,0.0,0.0,0.0,0.0,0.0,0.0,0.7223,0.0,0.0,0.0,0.0,0.0,0.0,0.0,0.0,0.0,0.0,0.0,0.0,0.0,0.0,0.0,0.0,0.0,0.0,0.0,0.0,0.0,0.0,0.0,0.0,0.0,0.0,0.0,0.0,0.0,0.0,0.0,0.0,0.0,0.0,0.0,0.0,0.0,0.0,0.0,0.0,0.0,0.0,0.0,0.0,0.0,0.0,0.0,0.0,0.0,0.0,0.0,0.0,0.0,0.0,0.0,0.0,0.0,0.0,0.0,0.0,0.0,0.0,0.0,0.0,0.0,0.0,0.0,0.0,0.0,0.0,0.0,0.0,0.0,0.0,0.0,0.0,0.0,0.0,0.0,0.0,0.0,0.0,0.0,0.0,0.0,0.0,0.0,0.0,0.0,0.0,0.0,0.0,0.0,0.0,0.0,0.0,0.0,0.0,0.0,0.0,0.0,0.0,0.0,0.0,0.0,0.0,0.0,0.0,0.0,0.0,0.0,0.0,0.0,0.0,0.0,0.0,0.0,0.0,0.0,0.0,0.0,0.0,0.0,0.0,0.0,0.0,0.0,0.0,0.0,0.0,0.0,0.0,0.0,0.0,0.0,0.0,0.0,0.0,0.0,0.0,0.0,0.0,0.0,0.0,0.0,0.0,0.0,0.0,0.0,0.0,0.0,0.0,0.0,0.0,0.0,0.0,0.0,0.0,0.0,0.0,0.0,0.0,0.0,0.0,0.0,0.0,0.0,0.0,0.0,0.0,0.0,0.0,0.0,0.0,0.0,0.0,0.0,0.0,0.0,0.0,0.0,0.0,0.0,0.0,0.0,0.0,0.0,0.0,0.0,0.0,0.0,0.0,0.0,0.0,0.0,0.0,0.0,0.0,0.0,0.0,0.0,0.0,0.0,0.0,0.0,0.0,0.0,0.0,0.0,0.0,0.0,0.0,0.0,0.0,0.0,0.0,0.0,0.0,0.0,0.0,0.0,0.0,0.0,0.0,0.0,0.0,0.0,0.0,0.0,0.0,0.0,0.0,0.0,0.0,0.0,0.0,0.0,0.0,0.0,0.0,0.0,0.0,0.0,0.0,0.0,0.0,0.0,0.0,0.0,0.0,0.0,0.0,0.0,0.0,0.0,0.0,0.0,0.0,0.0,0.0,0.0,0.0,0.0,0.0,0.0,0.0,0.0,0.0,0.0,0.0,0.0,0.0,0.0,0.0,0.0,0.0,0.0,0.0,0.0,0.0,0.0,0.0,0.0,0.0,0.0,0.0,0.0,0.0,0.0,0.0,0.0,0.0,0.0,0.0,0.0,0.0,0.0,0.0,0.0,0.0,0.0,0.0,0.0,0.0,0.0,0.0,0.0,0.0,0.0,0.0,0.0,0.0,0.0,0.0,0.0,0.0,0.0,0.0,0.0,0.0,0.0,0.0,0.0,0.0,0.0,0.0,0.0,0.0,0.0,0.0,0.0,0.0,0.0,0.0,0.0,0.0,0.0,0.0,0.0,0.0,0.0,0.0,0.0,0.0,0.0,0.0,0.0,0.0,0.0,0.0,0.0,0.0,0.0,0.0,0.0,0.0,0.0,0.0,0.0,0.0,0.0,0.0,0.0,0.0,0.0,0.0,0.0,0.0,0.0,0.0,0.0,0.0,0.0,0.0,0.0,0.0,0.0,0.0,0.0,0.0,0.0,0.0,0.0,0.0,0.0,0.0,0.0,0.0,0.0,0.0,0.0,0.0,0.0,0.0,0.0,0.0,0.0,0.0,0.0,0.0,0.0,0.0,0.0,0.0,0.0,0.0,0.0,0.0,0.0,0.0,0.0,0.0,0.0,0.0,0.0,0.0,0.0,0.0,0.0,0.0,0.0,0.0,0.0,0.0,0.0,0.0,0.0,0.0,0.0,0.0,0.0,0.0,0.0,0.0,0.0,0.0,0.0,0.0,0.0,0.0,0.0,0.0,0.0,0.0,0.0,0.0,0.0,0.0,0.0,0.0,0.0,0.0,0.0,0.0,0.0,0.0,0.0,0.0,0.0,0.0,0.0,0.0,0.0,0.0,0.0,0.0,0.0,0.0,0.0,0.0,0.0,0.0,0.0,0.0,0.0,0.0,0.0,0.0,0.0,0.0,0.0,0.0,0.0,0.0,0.0,0.0,0.0,0.0,0.0,0.0,0.0,0.0,0.0,0.0,0.0,0.0,0.0,0.0,0.0,0.0,0.0,0.0,0.0,0.0,0.0,0.0,0.0,0.0,0.0,0.0,0.0,0.0,0.0,0.0,0.0,0.0,0.0,0.0,0.0,0.0,0.0,0.0,0.0,0.0,0.0,0.0,0.0,0.0,0.0,0.0,0.0,0.0,0.0,0.0,0.0,0.0,0.0,0.0,0.0,0.0,0.0,0.0,0.0,0.0,0.0,0.0,0.0,0.0,0.0,0.0,0.0,0.0,0.0,0.0,0.0,0.0,0.0,0.0,0.0,0.0,0.0,0.0,0.0,0.0,0.0,0.0,0.0,0.0,0.0,0.0,0.0,0.0,0.0,0.0,0.0,0.0,0.0,0.0,0.0,0.0,0.0,0.0,0.0,0.0,0.0,0.0,0.0,0.0,0.0,0.0,0.0,0.0,0.0,0.0,0.0,0.0,0.0,0.0,0.0,0.0,0.0,0.0,0.0,0.0,0.0,0.0,0.0,0.0,0.0,0.0,0.0,0.0,0.0,0.0,0.0,0.0,0.0,0.0,0.0,0.0,0.0,0.0,0.0,0.0,0.0,0.0,0.0,0.0,0.0,0.0,0.0,0.0,0.0,0.0,0.0,0.0,0.0,0.0,0.0,0.0,0.0,0.0,0.0,0.0,0.0,0.0,0.0,0.0,0.0,0.0,0.0,0.0,0.0,0.0,0.0,0.0,0.0,0.0,0.0,0.0,0.0,0.0,0.0,0.0,0.0,0.0,0.0,0.0,0.0,0.0,0.0,0.0,0.0,0.0,0.0,0.0,0.0,0.0,0.0,0.0,0.0,0.0,0.0,0.0,0.0,0.0,0.0,0.0,0.0,0.0,0.0,0.0,0.0,0.0,0.0,0.0,0.0,0.0,0.0,0.0,0.0,0.0,0.0,0.0,0.0,0.0,0.0,0.0,0.0,0.0,0.0,0.0,0.0,0.0,0.0,0.0,0.0,0.0,0.0,0.0,0.0,0.0,0.0,0.0,0.0,0.0,0.0,0.0,0.0,0.0,0.0,0.0,0.0,0.0,0.0,0.0,0.0,0.0,0.0,0.0,0.0,0.0,0.0,0.0,0.0,0.0,0.0,0.0,0.0,0.0,0.0,0.0,0.0,0.0,0.0,0.0,0.0,0.0,0.0,0.0,0.0,0.0,0.0,0.0,0.0,0.0,0.0,0.0,0.0,0.0,0.0,0.0,0.0,0.0,0.0,0.0,0.0,0.0,0.0,0.0,0.0,0.0,0.0,0.0,0.0,0.0,0.0,0.0,0.0,0.0,0.0,0.0,0.0,0.0,0.0,0.0,0.0,0.0,0.0,0.0,0.0,0.0,0.0,0.0,0.0,0.0,0.0,0.0,0.0,0.0,0.0,0.0,0.0,0.0,0.0,0.0,0.0,0.0,0.0,0.0,0.0,0.0,0.0,0.0,0.0,0.0,0.0,0.0,0.0,0.0,0.0,0.0,0.0,0.0,0.0,0.0,0.0,0.0,0.0,0.0,0.0,0.0,0.0,0.0,0.0,0.0,0.0,0.0,0.0,0.0,0.0,0.0,0.0,0.0,0.0,0.0,0.0,0.0,0.0,0.0,0.0,0.0,0.0,0.0,0.0,0.0,0.0,0.0,0.0,0.0,0.0,0.0,0.0,0.0,0.0,0.0,0.0,0.0,0.0,0.0,0.0,0.0,0.0,0.0,0.0,0.0,0.0,0.0,0.0,0.0,0.0,0.0,0.0,0.0,0.0,0.0,0.0,0.0,0.0,0.0,0.0,0.0,0.0,0.0,0.0,0.0,0.0,0.0,0.0,0.0,0.0,0.0,0.0,0.0,0.0,0.0,0.0,0.0,0.0,0.0,0.0,0.0,0.0,0.0,0.0,0.0,0.0,0.0,0.0,0.0,0.0,0.0,0.0,0.0,0.0,0.0,0.0,0.0,0.0,0.0,0.0,0.0,0.0,0.0,0.0,0.0,0.0,0.0,0.0,0.0,0.0,0.0,0.0,0.0,0.0,0.0,0.0,0.0,0.0,0.0,0.0,0.0,0.0,0.0,0.0,0.0,0.0,0.0,0.0,0.0,0.0,0.0,0.0,0.0,0.0,0.0,0.0,0.0,0.0,0.0,0.0,0.0,0.0,0.0,0.0,0.0,0.0,0.0]}],[{"header":{"parameterUnit":"kt","parameterCategory":2,"dx":1,"dy":1,"la1":29.587661999999998,"la2":31.0,"lo1":-88.76705300000003,"lo2":-86.6583820000003,"nx":115,"ny":88,"refTime":"2022-10-02T06:00:00:Z","depth":0,"parameterNumber":2,"parameterNumberName":"V-component_of_WINDS"},"data":[9.6984,9.6984,9.6984,9.6984,9.6984,9.6984,9.7088,9.7302,9.7377,9.7499,9.7719,9.7935,9.8043,9.8085,9.8238,9.8511,9.8847,9.9004,9.9208,9.9461,9.9514,9.9593,9.9655,9.9689,9.9712,9.972,9.972,9.972,9.972,9.972,9.972,9.972,9.972,9.972,9.972,9.972,9.972,9.972,9.972,9.972,9.972,9.972,9.972,9.972,9.972,9.972,9.972,9.972,9.972,9.9757,9.9783,9.9864,9.9906,9.9902,9.9882,9.9888,9.9888,9.9888,9.9888,9.9888,9.9888,9.9888,9.9888,9.9888,9.9888,9.9888,9.9888,9.9888,9.9888,9.9888,9.9793,9.9643,9.9541,9.9551,9.9541,9.9514,9.9421,9.9232,9.9027,9.8844,9.8767,9.8683,9.852,9.852,9.852,9.852,9.852,9.852,9.852,9.852,9.8557,9.852,9.852,9.852,9.852,9.852,9.852,9.852,9.852,9.852,9.852,9.852,9.852,9.852,9.852,9.852,9.852,9.852,9.852,9.852,9.852,9.8501,9.8501,9.8444,9.8327,9.6984,9.6984,9.6984,9.6984,9.6984,9.6984,9.701,9.7062,9.724,9.7401,9.745,9.7499,9.7641,9.7847,9.8069,9.8389,9.862,9.8671,9.8908,9.9156,9.9317,9.9444,9.9526,9.9655,9.9697,9.9712,9.972,9.972,9.972,9.9682,9.9682,9.972,9.972,9.9682,9.972,9.972,9.972,9.972,9.972,9.972,9.972,9.972,9.972,9.972,9.972,9.972,9.972,9.972,9.972,9.9742,9.9757,9.9847,9.9864,9.9885,9.9908,9.9882,9.9888,9.9888,9.9888,9.9888,9.9888,9.9888,9.9888,9.9888,9.9888,9.9888,9.9888,9.9888,9.9888,9.9874,9.9735,9.9655,9.9582,9.9558,9.9514,9.9506,9.9258,9.9047,9.8844,9.863,9.8575,9.8594,9.852,9.852,9.852,9.852,9.852,9.852,9.852,9.852,9.852,9.852,9.852,9.852,9.852,9.852,9.852,9.852,9.852,9.852,9.852,9.852,9.852,9.852,9.852,9.852,9.852,9.852,9.852,9.852,9.8481,9.8366,9.8347,9.8189,9.8106,9.6984,9.6984,9.6984,9.6984,9.6984,9.6984,9.6984,9.7047,9.7125,9.7176,9.7176,9.7201,9.7327,9.757,9.7664,9.7904,9.8135,9.8197,9.8443,9.8666,9.8818,9.9132,9.9412,9.9574,9.9638,9.9712,9.9712,9.9712,9.972,9.9606,9.9,9.847,9.9266,9.9303,9.8394,9.9303,9.972,9.972,9.972,9.972,9.972,9.972,9.972,9.972,9.972,9.972,9.972,9.972,9.972,9.9682,9.9531,9.9574,9.9485,9.9641,9.9788,9.98,9.9736,9.9888,9.9888,9.9888,9.9888,9.9888,9.9888,9.9888,9.9888,9.9394,9.9394,9.966,9.966,9.9803,9.9695,9.9611,9.9568,9.9563,9.9529,9.9494,9.9359,9.9071,9.8828,9.861,9.8576,9.8557,9.852,9.852,9.852,9.852,9.852,9.852,9.852,9.852,9.852,9.852,9.852,9.852,9.852,9.852,9.852,9.852,9.852,9.852,9.852,9.852,9.852,9.852,9.852,9.852,9.852,9.852,9.852,9.8462,9.8347,9.8267,9.8064,9.7913,9.7462,9.6984,9.6984,9.6984,9.6984,9.6984,9.6984,9.6984,9.6984,9.6984,9.702,9.6984,9.701,9.7176,9.7401,9.745,9.7618,9.7787,9.7904,9.7973,9.816,9.8351,9.8694,9.9119,9.922,9.9476,9.9582,9.9567,9.9453,9.8803,9.8394,9.7902,9.7485,9.8091,9.8925,9.8394,9.9076,9.972,9.972,9.9644,9.9569,9.9,9.9038,9.8811,9.8432,9.8357,9.8167,9.8205,9.8319,9.847,9.8584,9.8584,9.8461,9.8438,9.8836,9.91,9.9153,9.8635,9.8711,9.8825,9.9052,9.9052,9.9204,9.9622,9.9774,9.9546,9.9052,9.8862,9.9166,9.9393,9.9555,9.9629,9.9602,9.9529,9.9529,9.9518,9.9532,9.9546,9.9188,9.8891,9.8733,9.8594,9.8576,9.8538,9.852,9.852,9.852,9.852,9.852,9.852,9.852,9.852,9.852,9.852,9.852,9.852,9.852,9.852,9.852,9.852,9.852,9.852,9.852,9.852,9.852,9.8501,9.852,9.852,9.8501,9.8386,9.8307,9.8168,9.8021,9.7847,9.7228,9.666,9.6984,9.6984,9.6984,9.6984,9.6984,9.6984,9.6984,9.6984,9.6984,9.6984,9.6984,9.6984,9.715,9.7302,9.7327,9.7462,9.7594,9.7664,9.7742,9.7809,9.7994,9.7996,9.8333,9.8644,9.8378,9.9099,9.9128,9.8051,9.722,9.6652,9.6614,9.722,9.7523,9.8016,9.866,9.9379,9.9266,9.9038,9.8735,9.847,9.7675,9.7182,9.6766,9.5743,9.5554,9.5554,9.5478,9.5365,9.5251,9.5289,9.5213,9.4948,9.5299,9.5818,9.7023,9.7207,9.6658,9.6812,9.7192,9.761,9.7686,9.8293,9.9014,9.909,9.7951,9.6888,9.6926,9.723,9.8976,9.9474,9.9061,9.8873,9.9298,9.9529,9.9303,9.9091,9.9158,9.9174,9.8891,9.8729,9.863,9.8557,9.852,9.852,9.852,9.852,9.852,9.852,9.852,9.852,9.852,9.852,9.852,9.852,9.852,9.852,9.852,9.852,9.852,9.852,9.852,9.852,9.852,9.8423,9.8267,9.8404,9.8423,9.8307,9.8226,9.8085,9.7913,9.7779,9.7203,9.6456,9.5909,9.6984,9.6984,9.6984,9.6984,9.6984,9.6984,9.6984,9.6984,9.6984,9.6984,9.6984,9.6984,9.7073,9.7176,9.7176,9.719,9.7352,9.7377,9.7413,9.7509,9.765,9.741,9.6873,9.6775,9.681,9.6178,9.6048,9.6298,9.5659,9.5008,9.4986,9.5933,9.6917,9.7561,9.8281,9.8849,9.8546,9.7561,9.6842,9.6349,9.6008,9.5743,9.5516,9.5099,9.5024,9.5024,9.4986,9.5024,9.4948,9.4872,9.4872,9.4273,9.3643,9.4459,9.5629,9.5521,9.499,9.5104,9.5066,9.5597,9.6395,9.6812,9.6926,9.704,9.5823,9.4607,9.4677,9.5423,9.7538,9.8949,9.8425,9.8146,9.8785,9.9389,9.8963,9.8525,9.8655,9.8882,9.8757,9.8579,9.8516,9.8389,9.8445,9.852,9.852,9.8295,9.822,9.8071,9.7921,9.7772,9.766,9.766,9.7884,9.8239,9.852,9.852,9.852,9.852,9.852,9.852,9.852,9.8481,9.8327,9.8206,9.808,9.8,9.7978,9.7957,9.7957,9.7756,9.757,9.6999,9.6218,9.5654,9.5333,9.6984,9.6984,9.6984,9.6984,9.6957,9.6851,9.6878,9.6994,9.6984,9.6984,9.6984,9.6984,9.702,9.6984,9.6984,9.6984,9.6984,9.701,9.7113,9.719,9.729,9.6811,9.6314,9.587,9.5228,9.4801,9.4328,9.4155,9.3825,9.3852,9.3986,9.4789,9.5857,9.669,9.7334,9.7902,9.669,9.5705,9.5365,9.4796,9.4342,9.4115,9.3547,9.3168,9.2903,9.2903,9.2948,9.3023,9.3023,9.3168,9.3282,9.3137,9.2159,9.2855,9.344,9.3459,9.3509,9.3395,9.275,9.3585,9.4648,9.5142,9.4269,9.3775,9.2931,9.2051,9.1734,9.3073,9.4886,9.4548,9.394,9.5083,9.6401,9.6784,9.6811,9.6553,9.6592,9.6704,9.6569,9.6541,9.7302,9.723,9.7323,9.7398,9.7248,9.7585,9.7585,9.7174,9.6874,9.6426,9.6239,9.6239,9.6463,9.6968,9.7417,9.8276,9.837,9.8426,9.852,9.852,9.8366,9.8189,9.8106,9.7957,9.7756,9.7664,9.7533,9.758,9.7567,9.7389,9.6947,9.6041,9.5333,9.5099,9.4795,9.6984,9.6984,9.6984,9.6957,9.6904,9.6512,9.6531,9.6994,9.6994,9.6984,9.6984,9.6984,9.6984,9.6984,9.6984,9.6984,9.6984,9.6984,9.701,9.701,9.673,9.6599,9.6205,9.5175,9.4125,9.4445,9.3917,9.2111,9.2057,9.2011,9.2927,9.4115,9.4562,9.5357,9.5728,9.5766,9.4865,9.4153,9.3774,9.3244,9.26,9.2373,9.1842,9.1274,9.0858,9.082,9.082,9.0789,9.0599,9.0479,9.0365,9.0183,9.0051,8.9974,9.0049,9.0249,9.0466,9.0624,9.0738,9.1839,9.2826,9.3054,9.1687,9.0662,9.0316,9.052,9.0679,9.1705,9.2065,9.0928,9.0183,9.2068,9.3989,9.4696,9.4885,9.482,9.4807,9.478,9.4682,9.495,9.5694,9.5958,9.6015,9.5902,9.5678,9.5828,9.5641,9.5379,9.5304,9.493,9.5024,9.4987,9.4838,9.5473,9.6632,9.7659,9.7732,9.7091,9.7456,9.7989,9.7984,9.7794,9.7483,9.7266,9.729,9.719,9.692,9.6884,9.704,9.6741,9.6305,9.5523,9.4726,9.4516,9.441,9.6475,9.6419,9.613,9.6152,9.6419,9.6305,9.6305,9.6503,9.6851,9.6984,9.6984,9.6984,9.6984,9.6984,9.6984,9.6984,9.6984,9.6984,9.6984,9.6873,9.6026,9.5119,9.3915,9.2329,9.2063,9.0426,8.9891,9.0067,8.9995,8.995,9.063,9.169,9.2525,9.3494,9.3591,9.3448,9.2745,9.2025,9.1994,9.1539,9.113,9.0713,9.0403,9.0024,8.9804,8.9804,8.9804,8.9842,8.988,8.9918,8.9911,8.988,8.988,8.9874,8.985,8.9841,8.9879,8.993,8.9979,9.0852,9.108,9.1345,9.0548,8.9979,8.9858,8.9864,9.0281,9.0234,8.9959,8.9668,8.9668,8.9772,9.1799,9.3989,9.4081,9.3799,9.3804,9.4009,9.3939,9.4008,9.4456,9.4386,9.4369,9.4108,9.3734,9.3659,9.3584,9.3659,9.3659,9.3772,9.3941,9.3082,9.2652,9.2909,9.3933,9.5765,9.6155,9.5838,9.634,9.7007,9.7056,9.7118,9.6757,9.643,9.6624,9.6633,9.6284,9.6108,9.6167,9.5988,9.5586,9.4963,9.4267,9.4121,9.4084,9.5945,9.5915,9.5608,9.4797,9.3858,9.4388,9.4797,9.5185,9.6191,9.6851,9.6957,9.6984,9.6984,9.6984,9.6984,9.6984,9.6984,9.6984,9.6394,9.6173,9.5289,9.3642,9.2267,9.1026,8.9707,8.8619,8.7888,8.8287,8.8475,8.8787,8.8928,8.9543,9.1185,9.1577,9.1293,9.1178,9.0948,8.9943,8.979,8.9804,8.9842,8.988,8.988,8.988,8.9804,8.9804,8.9804,8.9804,8.9804,8.9804,8.9804,8.9804,8.9804,8.9804,8.9828,8.9829,8.9813,8.9877,8.9979,8.9979,8.9979,9.0016,8.9941,8.9903,8.9794,8.9844,8.9703,8.9525,8.9478,8.9468,8.9383,8.9458,8.9949,9.2139,9.2609,9.2354,9.2272,9.2556,9.27,9.2642,9.2734,9.2648,9.1902,9.1266,9.1209,9.1154,9.1079,9.1191,9.151,9.1848,9.2018,9.0934,9.0459,9.0463,9.0988,9.2753,9.3485,9.4494,9.5462,9.6008,9.6199,9.6301,9.6021,9.5732,9.5927,9.6024,9.5523,9.5166,9.5235,9.5205,9.4795,9.4267,9.4011,9.3937,9.3935,9.5237,9.5273,9.51,9.2705,8.9654,9.0938,9.1998,9.2674,9.484,9.6272,9.6878,9.6984,9.6984,9.6984,9.6984,9.6799,9.6689,9.6615,9.5952,9.4699,9.3863,9.3299,9.1825,9.0388,8.9083,8.9343,8.8494,8.7823,8.8194,8.823,8.8421,8.9156,8.9991,9.0524,8.9234,8.9468,8.9674,8.9661,8.9731,8.979,8.9804,8.9804,8.9804,8.9804,8.9804,8.9804,8.9804,8.9804,8.9804,8.9804,8.9804,8.9804,8.9804,8.9804,8.9828,8.9799,8.981,8.9879,8.9979,8.9979,8.9941,8.9847,8.9885,8.9817,8.9769,8.9641,8.9412,8.9432,8.9383,8.9383,8.9383,8.942,8.942,9.0052,9.0182,9.0079,9.0038,9.0179,9.0304,9.0317,9.057,9.0631,8.9546,8.8928,8.9152,8.9077,8.8741,8.8761,8.9138,8.9368,8.9423,8.8816,8.8677,8.8996,8.9882,9.0791,9.1936,9.3469,9.454,9.5019,9.5259,9.5488,9.5382,9.5099,9.5169,9.5366,9.4865,9.4303,9.441,9.4517,9.4084,9.3974,9.3937,9.3935,9.3935,9.2073,9.0792,9.0438,8.9466,8.8496,8.9332,8.9796,9.036,9.2569,9.4628,9.6447,9.6851,9.6984,9.6984,9.6947,9.6552,9.5668,9.5336,9.4331,9.3115,9.1984,9.1026,9.0105,8.9135,8.8275,8.7966,8.752,8.7524,8.786,8.7856,8.8062,8.8325,8.877,8.8991,8.8611,8.9134,8.9536,8.9607,8.9716,8.9797,8.9804,8.9804,8.9804,8.9804,8.9804,8.9804,8.9804,8.9804,8.9804,8.9804,8.9804,8.9804,8.9804,8.9817,8.9796,8.9817,8.982,8.9877,8.9941,8.9979,8.9941,8.9805,8.9798,8.9741,8.9672,8.9543,8.943,8.9383,8.9383,8.9383,8.9383,8.942,8.942,8.9417,8.9358,8.9218,8.9095,8.8944,8.8802,8.8662,8.8907,8.9434,8.8741,8.8741,8.889,8.8816,8.8629,8.8612,8.8525,8.8251,8.7962,8.767,8.7396,8.8093,8.8955,8.994,9.0995,9.2512,9.3742,9.4142,9.4524,9.4679,9.4691,9.4587,9.4587,9.4622,9.4446,9.4158,9.4009,9.3935,9.3935,9.3937,9.3935,9.3935,9.3935,8.9649,8.8362,8.6515,8.5783,8.5932,8.6961,8.7397,8.7795,9.0007,9.2081,9.3364,9.4836,9.5832,9.6486,9.6642,9.5988,9.4654,9.4548,9.3126,9.1542,9.0253,8.9479,8.8632,8.7895,8.7269,8.7343,8.7306,8.7386,8.7538,8.7524,8.7713,8.7777,8.7824,8.7872,8.8156,8.8605,8.9133,8.9393,8.9632,8.9738,8.979,8.9804,8.9804,8.9804,8.9804,8.9804,8.9804,8.9804,8.9804,8.9804,8.9804,8.9804,8.9804,8.9804,8.9834,8.9799,8.981,8.9881,8.9941,8.9979,8.9941,8.9853,8.9785,8.9709,8.9577,8.9479,8.943,8.9383,8.9383,8.9383,8.9383,8.942,8.9389,8.9384,8.9343,8.9197,8.9065,8.8938,8.8824,8.8679,8.8629,8.8629,8.8629,8.8629,8.8629,8.8629,8.8612,8.8577,8.8344,8.8098,8.775,8.7456,8.7076,8.7506,8.8564,8.936,9.01,9.1549,9.2998,9.3546,9.4087,9.4195,9.4339,9.423,9.4194,9.4266,9.4194,9.4009,9.3935,9.3935,9.3935,9.3935,9.3935,9.3935,9.3935,8.7756,8.7362,8.3814,8.2453,8.2597,8.4206,8.4962,8.5262,8.7544,8.8691,8.9437,9.1408,9.3671,9.4986,9.5143,9.4629,9.3477,9.4049,9.203,9.0326,8.9516,8.8632,8.7969,8.749,8.7269,8.7269,8.7269,8.7269,8.7293,8.734,8.7293,8.7269,8.7409,8.7606,8.7893,8.8214,8.8652,8.9204,8.9563,8.9648,8.9783,8.9804,8.9804,8.9804,8.9804,8.9804,8.9804,8.9804,8.9804,8.9804,8.9804,8.9804,8.9804,8.9804,8.9828,8.9829,8.981,8.9877,8.9935,8.9979,8.9978,8.9974,8.9861,8.9723,8.9498,8.943,8.9383,8.9383,8.9383,8.9383,8.9383,8.941,8.9406,8.934,8.9246,8.9081,8.8944,8.8826,8.8777,8.8662,8.8629,8.8629,8.8629,8.8629,8.8629,8.8612,8.8594,8.8361,8.8119,8.7856,8.7487,8.7197,8.681,8.7159,8.8168,8.9393,9.0504,9.1843,9.2975,9.3442,9.3794,9.3828,9.4048,9.3974,9.4011,9.3937,9.3935,9.3935,9.3935,9.3935,9.3935,9.3935,9.3935,9.3935,9.3935,8.5032,8.36,8.2631,8.2239,8.2309,8.2701,8.2989,8.3207,8.5192,8.6288,8.7159,8.8869,9.0351,9.1244,9.167,9.1348,8.9641,9.0108,8.9081,8.8236,8.7689,8.7626,8.7416,8.7269,8.7269,8.7269,8.7269,8.7269,8.7269,8.7269,8.7269,8.7269,8.7269,8.7478,8.7781,8.7996,8.8232,8.8915,8.9331,8.9607,8.9738,8.979,8.979,8.9797,8.9797,8.9804,8.9804,8.9804,8.9804,8.9804,8.9804,8.9804,8.9804,8.9804,8.9828,8.9829,8.9806,8.9866,8.9925,8.9821,8.9976,8.9976,8.9892,8.9521,8.9385,8.9383,8.9383,8.9383,8.9383,8.9383,8.9383,8.9383,8.9384,8.9294,8.9121,8.8963,8.8804,8.8755,8.8679,8.8629,8.8629,8.8629,8.8629,8.8629,8.8612,8.8594,8.8379,8.8176,8.788,8.7539,8.7279,8.7113,8.6842,8.7031,8.8298,8.9714,9.0978,9.2148,9.3049,9.3652,9.3792,9.3899,9.3935,9.3935,9.3935,9.3935,9.3935,9.3935,9.3935,9.3935,9.3935,9.3935,9.3935,9.3935,9.3935,8.3242,8.2239,8.2239,8.2239,8.2239,8.2239,8.2239,8.2487,8.3421,8.4049,8.4644,8.6471,8.7549,8.8228,8.935,8.8798,8.7773,8.8288,8.7749,8.6802,8.6898,8.7137,8.7197,8.7269,8.7269,8.7269,8.7269,8.7269,8.7269,8.7269,8.7269,8.7269,8.7293,8.7409,8.7561,8.7781,8.8078,8.8428,8.8874,8.9212,8.9507,8.9615,8.9693,8.9797,8.9769,8.9776,8.979,8.9804,8.9804,8.9804,8.9804,8.9804,8.9804,8.9811,8.9822,8.9799,8.9795,8.9768,8.972,8.9202,8.94,8.9599,8.9218,8.9059,8.952,8.9479,8.9383,8.9383,8.9383,8.9383,8.9383,8.9383,8.94,8.9246,8.8944,8.8817,8.8712,8.8658,8.8629,8.8629,8.8629,8.8629,8.8629,8.8629,8.8612,8.856,8.838,8.8119,8.7839,8.7419,8.71,8.6913,8.6846,8.6847,8.8186,8.927,9.0275,9.1616,9.2545,9.333,9.3614,9.3935,9.3935,9.3935,9.3935,9.3935,9.3935,9.3935,9.3935,9.3935,9.3935,9.3935,9.3935,9.3935,9.3935,8.2239,8.2239,8.2239,8.2239,8.2239,8.2239,8.2239,8.2239,8.2309,8.2239,8.2676,8.4263,8.5129,8.5569,8.73,8.7339,8.6761,8.6724,8.6611,8.5902,8.6164,8.6544,8.7039,8.7112,8.7063,8.7269,8.7269,8.7269,8.7269,8.7269,8.7269,8.7269,8.7269,8.7293,8.7386,8.7569,8.784,8.7913,8.8232,8.8661,8.9119,8.9362,8.9563,8.9678,8.9686,8.9678,8.9731,8.9797,8.9797,8.9804,8.9804,8.9804,8.9804,8.9804,8.9834,8.9756,8.9429,8.9188,8.8703,8.782,8.7646,8.8192,8.8161,8.8173,8.8498,8.8753,8.9383,8.9383,8.9383,8.9383,8.9383,8.9362,8.9317,8.9109,8.8864,8.8706,8.8616,8.8629,8.8629,8.8629,8.8629,8.8629,8.8629,8.8629,8.8612,8.8507,8.8344,8.8137,8.7798,8.7256,8.6887,8.668,8.6594,8.654,8.7461,8.8141,8.9285,9.0832,9.1866,9.2829,9.3363,9.3935,9.3935,9.3935,9.3935,9.3935,9.3935,9.3935,9.3935,9.3935,9.3935,9.3935,9.3935,9.3935,9.3935,8.2239,8.2239,8.2239,8.2239,8.2239,8.2239,8.2239,8.2239,8.2239,8.2239,8.2274,8.2706,8.2999,8.3073,8.3517,8.3784,8.3736,8.4568,8.4869,8.4736,8.5082,8.5655,8.611,8.6391,8.6638,8.7039,8.7184,8.7269,8.7269,8.7269,8.7269,8.7269,8.7269,8.7269,8.7269,8.7386,8.7569,8.775,8.7967,8.8298,8.8836,8.9204,8.945,8.947,8.9581,8.9607,8.9648,8.958,8.9608,8.9759,8.969,8.9766,8.9804,8.9804,8.9817,8.9382,8.7134,8.6108,8.5817,8.5478,8.5735,8.651,8.6871,8.6542,8.6741,8.7786,8.908,8.9383,8.942,8.942,8.9352,8.9223,8.9133,8.898,8.8831,8.8639,8.8637,8.8629,8.8629,8.8629,8.8629,8.8629,8.8629,8.8629,8.8629,8.8525,8.8174,8.7958,8.775,8.7173,8.6706,8.6466,8.6354,8.6323,8.6519,8.7227,8.804,8.9725,9.1117,9.2328,9.3113,9.3899,9.3935,9.3935,9.3935,9.3935,9.3935,9.3935,9.3935,9.3935,9.3935,9.3935,9.3935,9.3935,9.3935,8.2239,8.2239,8.2239,8.2239,8.2239,8.2239,8.2239,8.2239,8.2239,8.2239,8.2239,8.2239,8.2239,8.2239,8.2239,8.2319,8.2671,8.3246,8.3648,8.3965,8.4307,8.4857,8.5376,8.5735,8.6165,8.6586,8.6965,8.7161,8.7245,8.7245,8.7269,8.7269,8.7269,8.7269,8.7269,8.7269,8.7386,8.7501,8.7605,8.7847,8.834,8.8729,8.9133,8.932,8.947,8.9525,8.9456,8.9118,8.8964,8.9456,8.8813,8.8926,8.9122,8.8933,8.7948,8.7146,8.5821,8.4855,8.4814,8.4014,8.4204,8.4761,8.4677,8.4671,8.515,8.5629,8.6475,8.7598,8.8353,8.9389,8.9314,8.9133,8.9019,8.8921,8.8759,8.8637,8.8621,8.8645,8.8629,8.8629,8.8629,8.8629,8.8629,8.8629,8.8629,8.8362,8.8016,8.783,8.7738,8.7186,8.6574,8.6384,8.6282,8.609,8.5797,8.6059,8.6511,8.8619,9.0367,9.183,9.2829,9.3685,9.3935,9.3935,9.3935,9.3935,9.3935,9.3935,9.3935,9.3935,9.3935,9.3935,9.3935,9.3935,9.3935,8.2239,8.2239,8.2239,8.2239,8.2239,8.2239,8.2239,8.2239,8.2239,8.2239,8.2239,8.2239,8.2239,8.2239,8.2239,8.2239,8.2319,8.2633,8.2984,8.3286,8.3576,8.4103,8.4564,8.501,8.5502,8.5951,8.6302,8.6788,8.7125,8.7234,8.7125,8.7245,8.7197,8.7221,8.7245,8.7269,8.7293,8.7363,8.7326,8.7532,8.7918,8.8288,8.8659,8.9171,8.9309,8.943,8.9232,8.8217,8.7897,8.9046,8.7494,8.726,8.6957,8.5972,8.4874,8.411,8.358,8.3333,8.3266,8.2576,8.2875,8.3402,8.3225,8.3163,8.3346,8.3631,8.4219,8.5446,8.6908,8.9056,8.9158,8.9044,8.8921,8.8834,8.8699,8.8637,8.8641,8.8629,8.8629,8.8629,8.8629,8.8629,8.8629,8.8629,8.8523,8.827,8.7955,8.7738,8.7492,8.7013,8.6493,8.6365,8.6254,8.5761,8.5244,8.528,8.5908,8.8334,9.0189,9.1652,9.29,9.3614,9.3935,9.3935,9.3935,9.3935,9.3935,9.3935,9.3935,9.3935,9.3935,9.3935,9.3935,9.3935,9.3935,8.2239,8.2239,8.2239,8.2239,8.2239,8.2239,8.2239,8.2239,8.2239,8.2239,8.2239,8.2239,8.2239,8.2239,8.2239,8.2239,8.2239,8.2358,8.2398,8.2563,8.2714,8.3101,8.3755,8.4271,8.4697,8.4978,8.5388,8.6183,8.6814,8.6913,8.6913,8.7173,8.7088,8.7076,8.7221,8.7269,8.7269,8.7269,8.7269,8.7469,8.7803,8.7934,8.827,8.8736,8.8993,8.9291,8.909,8.8098,8.7309,8.7601,8.6919,8.4722,8.2526,8.0973,8.0739,8.0853,8.1042,8.1198,8.1073,8.0645,8.0409,8.0559,8.1405,8.1718,8.1495,8.2342,8.2623,8.3218,8.453,8.7622,8.9006,8.8901,8.8766,8.8811,8.8714,8.8652,8.8641,8.8629,8.8629,8.8629,8.8594,8.8505,8.8505,8.8452,8.8325,8.8157,8.7893,8.7583,8.721,8.6784,8.6466,8.6254,8.6112,8.5701,8.5383,8.5354,8.6442,8.8477,9.0189,9.1723,9.3221,9.3685,9.3935,9.3935,9.3935,9.3935,9.3935,9.3935,9.3935,9.3935,9.3935,9.3935,9.3935,9.3935,9.3935,8.2239,8.2239,8.2239,8.2239,8.2239,8.2239,8.2239,8.2239,8.2239,8.2239,8.2239,8.2239,8.2239,8.2239,8.2239,8.2239,8.2239,8.2239,8.2239,8.2239,8.2239,8.2481,8.2949,8.3396,8.386,8.4237,8.4765,8.5478,8.6174,8.6447,8.6627,8.7038,8.6952,8.6977,8.7221,8.7269,8.7269,8.7269,8.7269,8.7377,8.7583,8.7738,8.8036,8.8232,8.8611,8.8928,8.9042,8.7691,8.7152,8.6506,8.4533,8.1882,8.0253,7.9944,7.9944,7.9906,7.9912,7.9888,7.9821,7.9752,7.9728,7.9895,8.0428,8.0272,8.0483,8.0843,8.1226,8.1632,8.3019,8.5412,8.749,8.8068,8.8627,8.8707,8.8686,8.8632,8.8625,8.8629,8.8629,8.8612,8.847,8.8343,8.8213,8.8039,8.7938,8.7798,8.7524,8.7269,8.6876,8.659,8.6329,8.6054,8.5938,8.5707,8.5392,8.5712,8.6691,8.7799,8.9475,9.1188,9.2294,9.2972,9.3721,9.3899,9.3864,9.3899,9.3935,9.3935,9.3935,9.3935,9.3935,9.3935,9.3935,9.3935,9.3935,8.1761,8.1761,8.1761,8.1842,8.1964,8.1964,8.2045,8.2199,8.2239,8.2239,8.2239,8.2239,8.2239,8.2239,8.2239,8.2239,8.2239,8.2239,8.2239,8.2239,8.2239,8.2239,8.2324,8.264,8.3101,8.3684,8.4372,8.4952,8.5448,8.5852,8.6144,8.6501,8.6491,8.6737,8.699,8.7088,8.7269,8.7269,8.7269,8.7293,8.7363,8.7569,8.7781,8.7913,8.8176,8.8375,8.8149,8.6972,8.623,8.5296,8.2778,8.0815,8.0096,7.9906,7.9906,7.9906,7.9912,7.9832,7.9738,7.9688,7.9685,7.9766,8.0203,8.0211,8.0158,8.0704,8.1377,8.1821,8.2783,8.4507,8.6283,8.7759,8.8492,8.8645,8.8645,8.8645,8.8629,8.8629,8.8629,8.854,8.8325,8.8021,8.786,8.775,8.7598,8.7396,8.716,8.6915,8.6633,8.6338,8.6076,8.5731,8.558,8.5365,8.5059,8.5112,8.5728,8.6372,8.8334,9.0153,9.0546,9.1188,9.24,9.3114,9.365,9.3899,9.3935,9.3935,9.3935,9.3935,9.3935,9.3935,9.3935,9.3935,9.3935,8.0291,8.0291,8.0325,8.0606,8.116,8.1237,8.1685,8.216,8.2239,8.2239,8.2239,8.2239,8.2239,8.2239,8.2239,8.2239,8.2239,8.2239,8.2239,8.2239,8.2239,8.2239,8.2239,8.2363,8.2794,8.3359,8.3249,8.41,8.4857,8.4576,8.4837,8.5478,8.5677,8.585,8.631,8.6878,8.7221,8.7221,8.7245,8.7269,8.7293,8.734,8.7561,8.7723,8.7876,8.7636,8.6754,8.5583,8.4064,8.2712,8.2283,8.1074,8.002,7.9906,7.9906,7.9906,7.9881,7.9817,7.9722,7.9689,7.9688,8.0102,8.1103,8.1773,8.2009,8.2935,8.3444,8.3105,8.5003,8.5431,8.6061,8.7428,8.8309,8.8629,8.8629,8.8629,8.8629,8.8629,8.8629,8.8612,8.8288,8.7979,8.775,8.7613,8.7396,8.694,8.67,8.641,8.6116,8.5946,8.5748,8.5489,8.5307,8.5048,8.4817,8.4619,8.4871,8.5194,8.7299,8.8334,8.8762,9.0224,9.1294,9.24,9.3435,9.3899,9.3935,9.3935,9.3935,9.3935,9.3935,9.3935,9.3935,9.3935,9.3935,8.0169,8.0148,8.0975,8.1237,8.1118,8.1528,8.1924,8.2199,8.2239,8.2239,8.2239,8.2239,8.2239,8.2239,8.2239,8.2239,8.2239,8.2239,8.2239,8.2239,8.2239,8.2239,8.2239,8.2239,8.2402,8.2759,8.2949,8.3433,8.3929,8.4036,8.4275,8.4765,8.4893,8.5169,8.5743,8.6337,8.6726,8.7026,8.7197,8.7269,8.7269,8.7269,8.7386,8.7456,8.7524,8.7391,8.6866,8.5914,8.3664,8.1098,8.0619,8.0588,7.9944,7.9906,7.9906,7.9906,7.9912,7.9851,7.9721,7.9687,8.0239,8.1319,8.1666,8.2481,8.352,8.4653,8.5398,8.4633,8.4303,8.4843,8.547,8.6538,8.7605,8.8458,8.8629,8.8629,8.8629,8.8452,8.8435,8.838,8.7999,8.7373,8.7063,8.6952,8.6722,8.642,8.6247,8.5946,8.5593,8.5563,8.5478,8.5334,8.5148,8.4951,8.4719,8.4619,8.4731,8.4731,8.6086,8.6479,8.7727,8.9761,9.0795,9.1901,9.3077,9.3935,9.3935,9.3935,9.3935,9.3935,9.3935,9.3935,9.3935,9.3935,9.3935,7.9868,7.9891,8.1145,8.1438,8.1202,8.1644,8.2004,8.2199,8.2004,8.2004,8.216,8.2004,8.2004,8.2239,8.2239,8.2239,8.2239,8.2239,8.2239,8.2239,8.2239,8.2239,8.2239,8.2239,8.2239,8.2284,8.2637,8.2873,8.3024,8.3319,8.3576,8.3999,8.4137,8.4471,8.5108,8.5772,8.6293,8.6659,8.7076,8.7269,8.7269,8.7269,8.7269,8.7269,8.7269,8.7279,8.7294,8.6052,8.3291,7.9802,7.9735,7.9792,7.9862,7.9906,7.9906,7.9912,7.9892,7.9821,7.972,7.9686,8.0691,8.2455,8.2808,8.3444,8.5106,8.6314,8.6918,8.6699,8.5479,8.504,8.6111,8.6822,8.7434,8.8421,8.8629,8.8629,8.8577,8.8307,8.8119,8.825,8.7635,8.7051,8.668,8.6466,8.6337,8.6054,8.5844,8.5635,8.5293,8.5131,8.5104,8.5016,8.4951,8.482,8.4686,8.4586,8.4516,8.4516,8.4838,8.5408,8.6693,8.8262,8.9297,9.1152,9.2222,9.3721,9.3899,9.3935,9.3935,9.3935,9.3935,9.3935,9.3935,9.3749,9.3749,7.8988,7.9081,7.9891,8.0554,8.0949,8.1076,8.1486,8.1964,8.1486,8.1528,8.1924,8.1603,8.1644,8.216,8.2239,8.2239,8.2239,8.2239,8.2239,8.2239,8.2239,8.2239,8.2239,8.2239,8.2239,8.2239,8.2319,8.2524,8.2873,8.2675,8.2598,8.3136,8.3432,8.3684,8.4067,8.5322,8.6027,8.6265,8.6915,8.7269,8.7269,8.7269,8.7269,8.7269,8.7269,8.7289,8.6896,8.4554,8.2275,8.0868,7.9862,7.9604,7.9843,7.9906,7.9906,7.9912,7.9925,7.9815,7.9721,7.987,8.082,8.2765,8.3762,8.5143,8.6389,8.7484,8.8164,8.8229,8.8117,8.8151,8.8129,8.8288,8.8363,8.8629,8.8217,8.8329,8.8499,8.8176,8.7516,8.7395,8.7349,8.6901,8.6583,8.631,8.5989,8.5665,8.5391,8.5176,8.4883,8.4782,8.4686,8.4652,8.4686,8.4619,8.4619,8.4516,8.4516,8.4516,8.4624,8.4838,8.5444,8.5765,8.6372,8.9154,9.1259,9.2972,9.3864,9.3899,9.3935,9.3787,9.3787,9.3898,9.3787,9.3562,9.3485,7.8359,7.8407,7.9608,7.9981,7.9768,8.0257,8.0606,8.0847,8.0992,8.1237,8.1528,8.1685,8.1964,8.2199,8.2239,8.2239,8.2239,8.2239,8.2239,8.2239,8.2239,8.2239,8.2239,8.2239,8.2239,8.2239,8.2239,8.2358,8.252,8.2324,8.2284,8.2446,8.264,8.2908,8.3359,8.4531,8.5436,8.5886,8.674,8.7269,8.7269,8.7269,8.7269,8.7269,8.7269,8.6837,8.58,8.2775,8.1021,8.0732,7.9697,7.9346,7.9843,7.9906,7.9906,7.9918,7.9893,7.9872,7.9933,8.0631,8.2071,8.3503,8.4287,8.5295,8.6578,8.6314,8.6389,8.6699,8.7916,8.8871,8.8658,8.8591,8.8608,8.8583,8.685,8.6588,8.8105,8.7262,8.5914,8.5181,8.5863,8.6513,8.6502,8.6282,8.5909,8.5427,8.5176,8.5019,8.4686,8.4516,8.455,8.455,8.4516,8.4516,8.4516,8.4516,8.4516,8.4516,8.4516,8.4516,8.4516,8.4624,8.5123,8.8013,9.0046,9.1687,9.3001,9.3252,9.3353,9.36,9.3524,9.3524,9.3485,9.3331,9.3135,7.7505,7.7619,7.9327,7.9756,7.9392,7.9846,8.0104,8.0114,8.052,8.0864,8.1118,8.1644,8.2004,8.2165,8.2239,8.2239,8.2239,8.2239,8.2239,8.2239,8.2239,8.2239,8.2239,8.2239,8.2239,8.2239,8.2239,8.2239,8.2239,8.2239,8.2239,8.2239,8.2239,8.2481,8.2987,8.4132,8.4974,8.5561,8.6664,8.7269,8.7269,8.7269,8.7269,8.7232,8.679,8.5538,8.3511,8.1279,8.0143,7.9963,7.9175,7.9046,7.9719,7.9906,7.9906,7.9918,7.9903,7.9921,8.0035,8.086,8.2598,8.5166,8.4471,8.4747,8.5823,8.4275,8.3312,8.4222,8.7013,8.8314,8.7439,8.7116,8.6372,8.5608,8.4454,8.4681,8.6255,8.545,8.3788,8.2672,8.4236,8.5498,8.5563,8.5959,8.5659,8.5275,8.5052,8.4886,8.4619,8.4516,8.4516,8.4516,8.4516,8.4516,8.4516,8.4516,8.4516,8.4516,8.4516,8.4516,8.4516,8.4659,8.5444,8.7014,8.862,9.0153,9.143,9.1991,9.2048,9.2219,9.2655,9.2902,9.3061,9.2942,9.266,7.6207,7.6499,7.8936,7.9543,7.934,7.9307,7.9801,7.9554,7.971,7.9913,8.0368,8.0844,8.1155,8.1981,8.1922,8.1991,8.1704,8.156,8.1669,8.1962,8.1927,8.1892,8.2031,8.1996,8.1957,8.1991,8.217,8.2239,8.2239,8.2239,8.2239,8.2239,8.2239,8.2437,8.2826,8.4031,8.4916,8.5472,8.6586,8.7245,8.7269,8.7269,8.7195,8.6974,8.5685,8.3548,8.0491,8.0101,7.9412,7.8505,7.8539,7.9095,7.9749,7.9868,7.9868,7.9735,7.9864,7.9866,7.9734,7.9902,8.2922,8.6579,8.4675,8.2954,8.386,8.1859,8.0716,8.2665,8.5921,8.7549,8.4772,8.3975,8.274,7.9821,8.1586,8.2796,8.3441,8.3131,8.2288,8.153,8.2732,8.3855,8.3879,8.4502,8.5117,8.4857,8.4713,8.4619,8.455,8.4516,8.4516,8.4516,8.4516,8.4516,8.4516,8.4516,8.4516,8.4516,8.4516,8.4415,8.4381,8.4315,8.5026,8.5349,8.698,8.7867,8.9133,9.0535,9.0625,9.1025,9.1563,9.1912,9.1834,9.1671,9.1663,7.448,7.4592,7.5002,7.5213,7.52,7.4852,7.4993,7.5525,7.5746,7.6515,7.7601,7.8014,7.9117,8.0461,8.0673,7.9804,7.8129,7.8054,7.8968,8.0461,7.9564,7.9633,8.0465,8.0639,8.0673,8.0777,8.1645,8.2239,8.2239,8.2239,8.2239,8.2239,8.2239,8.2319,8.2637,8.379,8.4629,8.5133,8.6283,8.71,8.7245,8.7269,8.679,8.5648,8.4101,8.2222,8.0196,7.8959,7.8284,7.8227,7.8486,7.8977,7.9461,7.9719,7.9376,7.8447,7.9219,7.8961,7.7193,7.9595,8.2761,8.5604,8.3578,8.217,8.2585,8.0839,7.9942,8.0789,8.3471,8.5218,8.3649,8.1673,7.9939,7.9221,7.9429,7.9823,7.9707,7.9517,7.9571,7.9927,8.1153,8.2216,8.2816,8.3475,8.3631,8.3211,8.4045,8.4481,8.4516,8.4516,8.4516,8.4516,8.4516,8.4516,8.4516,8.4449,8.4415,8.4449,8.4449,8.4245,8.4107,8.3931,8.4073,8.4241,8.4832,8.568,8.6905,8.8541,8.9292,8.9688,8.9838,9.0075,9.0583,9.0322,9.0311,7.1438,7.2068,7.2445,7.2768,7.2864,7.2543,7.2783,7.343,7.3761,7.4371,7.5189,7.5697,7.662,7.7842,7.7911,7.7429,7.6621,7.6582,7.7419,7.8758,7.8,7.8419,7.9806,7.991,8.0118,8.0743,8.1719,8.2239,8.2239,8.2239,8.2239,8.2239,8.2239,8.2354,8.2637,8.3719,8.457,8.5041,8.6238,8.7002,8.7282,8.7269,8.6201,8.4175,8.2421,8.0837,7.9217,7.827,7.7847,7.8135,7.8493,7.889,7.9236,7.9021,7.8126,7.685,7.8047,7.7747,7.5791,7.8872,8.1775,8.2523,8.1671,8.1075,8.0915,8.0159,7.9414,7.9587,8.1095,8.1875,8.1486,7.9934,7.8598,7.8634,7.8339,7.7961,7.7554,7.7449,7.7629,7.8233,7.892,7.9876,8.0705,8.2014,8.2358,8.1684,8.2233,8.2982,8.3446,8.3696,8.3874,8.4338,8.4516,8.4516,8.4516,8.4346,8.4209,8.4244,8.4313,8.4036,8.3647,8.3466,8.3284,8.3515,8.3388,8.3979,8.3927,8.54,8.5324,8.598,8.7004,8.7573,8.9382,8.8476,8.8461,6.7482,6.937,7.1154,7.2042,7.2556,7.2395,7.2778,7.2971,7.3294,7.3489,7.3537,7.3816,7.4005,7.4124,7.4273,7.5312,7.6947,7.6909,7.7051,7.7445,7.7376,7.8246,7.9737,7.991,8.0604,8.1684,8.2066,8.2239,8.2239,8.2239,8.2239,8.2239,8.2239,8.2437,8.2905,8.3825,8.4635,8.5297,8.6302,8.6952,8.7197,8.7037,8.5283,8.2531,8.0911,7.9401,7.7875,7.7804,7.7891,7.8005,7.8318,7.8623,7.8816,7.764,7.6354,7.5292,7.6492,7.665,7.5524,7.7965,7.9846,7.9708,7.9832,7.9564,7.9715,7.9593,7.9394,7.9126,7.9155,7.9093,7.9025,7.8664,7.8392,7.8467,7.7869,7.7365,7.7014,7.7097,7.6822,7.6611,7.6752,7.7295,7.797,8.0206,8.0882,8.0219,7.9954,8.056,8.1805,8.2126,8.2768,8.3732,8.4233,8.4307,8.4239,8.386,8.3612,8.3576,8.3754,8.3896,8.3393,8.2908,8.2794,8.271,8.2418,8.2102,8.1773,8.1774,8.2057,8.2926,8.4178,8.5387,8.7256,8.6482,8.6821,6.7971,6.8729,6.893,6.8903,6.8666,6.8251,6.8491,6.9106,6.8948,6.9453,7.0285,7.0625,7.0841,7.0989,7.1026,7.1763,7.2926,7.3003,7.4071,7.5883,7.5989,7.6752,7.8211,7.9321,8.0118,8.0639,8.1684,8.2205,8.2239,8.2239,8.2239,8.2239,8.2239,8.2442,8.2984,8.3683,8.4412,8.5086,8.6088,8.668,8.6444,8.4291,8.2219,8.0852,8.0285,7.929,7.7633,7.7659,7.731,7.6519,7.6639,7.6325,7.5471,7.532,7.5151,7.4989,7.642,7.6609,7.5018,7.794,7.9742,7.9538,7.9597,7.959,7.9545,7.948,7.9384,7.9126,7.8892,7.8719,7.8719,7.8642,7.8233,7.7577,7.7625,7.7486,7.705,7.6992,7.6749,7.6245,7.6261,7.6426,7.6724,7.8236,7.9411,7.858,7.9098,8.0168,8.0417,8.056,8.1059,8.259,8.2401,8.2021,8.1773,8.251,8.3212,8.3171,8.2762,8.2536,8.1785,8.1616,8.1575,8.1362,8.1076,8.0821,8.0615,8.0457,8.0566,8.1827,8.3606,8.5281,8.5766,8.6235,8.6635,6.7387,6.7621,6.734,6.7151,6.7056,6.6722,6.7104,6.7885,6.7527,6.8031,6.909,6.9069,6.9318,6.9704,6.984,7.0422,7.1263,7.1501,7.2426,7.3587,7.4212,7.5081,7.6315,7.7504,7.8766,7.9945,8.0777,8.1228,8.1367,8.1962,8.2239,8.2239,8.2239,8.2398,8.2648,8.2795,8.3111,8.3604,8.3805,8.4042,8.3907,8.1676,8.0194,8.0034,7.9422,7.8259,7.6807,7.6787,7.6206,7.494,7.4999,7.4159,7.2011,7.291,7.3322,7.2862,7.3733,7.4228,7.4256,7.7753,7.9834,7.9656,7.9691,7.9621,7.9536,7.948,7.9394,7.9126,7.8906,7.8719,7.8704,7.8558,7.8182,7.7499,7.7451,7.7443,7.7027,7.6822,7.6563,7.6113,7.6024,7.5961,7.5851,7.6632,7.7052,7.6907,7.7057,7.7819,7.8526,7.8597,7.9207,8.0109,7.9413,7.9116,8.0454,8.1858,8.2358,8.2175,8.182,8.1293,8.065,8.0335,8.0159,7.9959,7.9835,7.9699,7.9608,7.9341,7.9128,8.0047,8.2001,8.4227,8.5139,8.5497,8.5671,6.5925,6.5957,6.5831,6.6261,6.6849,6.7087,6.7653,6.8375,6.8023,6.8393,6.9075,6.8784,6.8992,6.9695,7.0241,7.0659,7.1207,7.1872,7.1906,7.1555,7.2676,7.3726,7.4697,7.5385,7.7066,7.9355,7.9633,7.9702,7.9772,8.0986,8.1754,8.1788,8.1783,8.1724,8.1811,8.1273,8.1137,8.1402,8.0317,7.9883,8.0086,7.9059,7.8793,7.9519,7.7943,7.6439,7.5096,7.5336,7.4794,7.3303,7.3412,7.2193,6.9645,7.0697,7.1119,7.0011,6.9881,7.0797,7.3191,7.7146,7.9495,7.9813,7.9621,7.9416,7.9498,7.8876,7.8451,7.8337,7.848,7.8479,7.8299,7.7799,7.7504,7.7505,7.7317,7.7019,7.6674,7.6493,7.6287,7.5997,7.5824,7.5492,7.5169,7.5258,7.5293,7.5273,7.5212,7.5446,7.63,7.6446,7.6806,7.6882,7.6001,7.6215,7.8654,8.0782,8.1387,8.0734,8.0599,8.0229,7.9722,7.9274,7.8994,7.9354,7.9121,7.89,7.8745,7.8362,7.8071,7.8745,8.0047,8.2084,8.3956,8.4388,8.4421,6.337,6.3691,6.3278,6.4248,6.6079,6.7171,6.776,6.8009,6.7885,6.7884,6.7946,6.8088,6.9199,7.0787,7.1375,7.1487,7.1331,7.2356,7.2503,7.2122,7.3963,7.4982,7.5321,7.6541,7.741,7.8,7.8107,7.8107,7.8104,7.8419,7.8589,7.8627,7.8627,7.8855,7.9336,7.9202,7.9307,7.9471,7.6923,7.5786,7.6374,7.5285,7.5071,7.5689,7.4489,7.3639,7.3327,7.3369,7.2783,7.1602,7.1552,7.0816,6.9193,6.9607,6.9911,6.9816,6.9762,7.0607,7.2581,7.4865,7.7205,7.9627,7.8647,7.8341,7.8873,7.4873,7.2266,7.3598,7.663,7.7559,7.5537,7.4738,7.5443,7.7397,7.6491,7.55,7.5153,7.5874,7.6287,7.6033,7.5768,7.5246,7.461,7.4488,7.4555,7.4389,7.4392,7.4304,7.422,7.4224,7.3706,7.3175,7.2721,7.336,7.445,7.8025,7.9763,7.8237,7.7816,7.8048,7.8674,7.8773,7.8806,7.8839,7.8792,7.8697,7.8697,7.828,7.7989,7.8006,7.8778,7.9619,8.1251,8.217,8.2987,6.2847,6.3795,6.3568,6.4682,6.6679,6.6547,6.6167,6.5668,6.6263,6.6396,6.6294,6.6344,6.6978,6.8002,6.8131,6.8171,6.8205,7.0094,7.0738,7.0642,7.3091,7.4216,7.403,7.5014,7.5887,7.6581,7.6615,7.6615,7.6613,7.7272,7.7274,7.6648,7.7237,7.7737,7.7999,7.7585,7.7412,7.7515,7.3389,7.1592,7.2295,7.0468,6.9862,7.058,7.0376,6.9782,6.8976,6.9077,6.8498,6.7116,6.7336,6.7036,6.6192,6.7456,6.8711,6.967,6.9745,7.0591,7.2429,7.3376,7.4599,7.6219,7.5557,7.507,7.4966,6.8908,6.6939,7.1368,7.4532,7.5586,7.3419,7.2692,7.3318,7.575,7.5251,7.4267,7.3541,7.4331,7.5081,7.4969,7.4991,7.4862,7.4293,7.4066,7.3934,7.3832,7.3901,7.3734,7.322,7.258,7.1834,7.1195,7.1042,7.1602,7.291,7.5578,7.6636,7.6073,7.5658,7.6061,7.7086,7.7417,7.7682,7.8244,7.8377,7.8377,7.8329,7.8086,7.7989,7.8071,7.8795,7.9633,8.0061,8.1212,8.1902,6.2454,6.3972,6.3972,6.5088,6.6749,6.5134,6.3944,6.3227,6.3691,6.4083,6.4321,6.4146,6.4161,6.4324,6.4071,6.4132,6.4772,6.7303,6.8475,6.8524,7.1413,7.2503,7.202,7.254,7.3555,7.4763,7.4797,7.4869,7.5081,7.6154,7.6264,7.5365,7.6301,7.6893,7.6824,7.5935,7.5172,7.4613,7.027,6.8536,6.9657,6.7234,6.5958,6.5871,6.6683,6.602,6.3891,6.4337,6.3673,6.1883,6.2249,6.19,6.0809,6.3548,6.6716,6.9449,6.8855,6.9276,7.121,7.1696,7.1869,7.2003,7.1938,7.0768,6.8039,6.2798,6.2753,6.9752,7.2133,7.2779,7.1817,7.0986,7.1172,7.2656,7.3313,7.3023,7.1428,7.2436,7.3239,7.316,7.3559,7.3686,7.367,7.3313,7.3044,7.3254,7.315,7.3009,7.2506,7.1409,7.0611,7.044,7.0308,7.08,7.181,7.2492,7.3051,7.3693,7.388,7.4241,7.5402,7.5586,7.5915,7.7052,7.71,7.7183,7.7381,7.7479,7.7381,7.8071,7.9519,8.0653,7.9798,8.0225,8.044,5.9008,5.9315,5.9315,6.0409,6.2064,6.2055,6.2815,6.3856,0.0,0.0,0.0,6.2268,6.324,6.4398,6.5155,6.5275,6.5043,6.7686,6.8593,6.8252,7.0458,7.1409,7.1331,7.1409,7.1657,7.1895,7.1929,7.2166,7.2728,7.2934,7.3229,7.3529,7.3773,7.3841,7.3877,7.3705,7.2141,6.9371,6.8845,7.0105,7.301,7.2264,6.9769,6.5501,6.6366,6.4698,6.0127,6.1701,6.1419,5.8717,5.8656,5.6368,5.1448,5.5567,6.1647,6.8794,6.4531,6.2812,6.5867,6.7514,6.8904,7.0272,7.0267,6.7225,6.0001,5.9628,6.1358,6.5277,6.8224,6.9586,6.8835,6.8279,6.8083,6.8385,6.9806,7.0217,6.9174,7.0375,7.1265,7.0873,7.0734,7.0847,7.1632,7.1411,7.1447,7.2412,7.2173,7.1749,7.1982,7.1247,7.0357,7.0108,7.0066,7.0039,6.9996,7.0054,7.0505,7.1758,7.2021,7.2491,7.3617,7.4077,7.4175,7.4636,7.4439,7.48,7.5359,7.4932,7.526,7.7512,7.84,7.8631,7.8335,7.7595,7.7185,5.8632,0.0,5.9521,6.0529,0.0,6.1467,6.1399,6.1634,5.9868,5.9725,6.0777,6.101,6.1514,6.2173,6.243,6.2549,6.2713,6.5739,6.7094,6.7294,6.9883,7.1134,7.1134,7.1134,7.1292,7.1637,7.1603,7.1947,7.2577,7.2613,7.1854,7.0441,7.0441,6.9543,6.7818,6.7784,6.6959,6.5176,6.7233,6.9192,7.0749,6.9254,6.7105,6.4591,6.5503,0.0,0.0,0.0,0.0,0.0,0.0,0.0,0.0,0.0,0.0,6.3924,5.673,5.2849,5.4564,5.5521,5.7514,6.0821,6.0269,5.7638,5.2712,5.5353,5.7769,5.9049,6.485,6.8282,6.7706,6.7427,6.7156,6.6955,6.7667,6.794,6.7465,6.8489,6.9401,6.9493,6.9221,6.9409,7.0399,7.0304,7.0321,7.0713,7.1079,7.1314,7.1213,7.0522,6.9813,6.9633,6.96,6.959,6.9287,6.9233,6.9561,7.0131,7.0361,7.0953,7.2334,7.2597,7.286,7.3551,7.3669,7.3584,7.3551,7.2367,7.242,7.5556,7.7282,7.748,7.5484,7.4344,7.392,5.897,6.0338,6.0338,6.1179,6.2333,6.0455,5.9196,5.8494,5.8961,5.9273,5.9542,5.924,5.9046,5.9033,5.8943,5.9239,5.9988,6.3234,6.5031,6.5711,6.8722,7.0052,7.0006,7.0171,7.0517,7.0867,7.1052,7.1561,7.245,7.245,7.1236,6.8886,6.8818,6.7062,6.3708,0.0,0.0,0.0,6.6101,6.8267,6.8819,6.6462,6.4691,6.3731,6.4668,0.0,6.2091,6.2511,6.2199,6.0854,6.1063,0.0,0.0,0.0,0.0,0.0,0.0,0.0,0.0,0.0,0.0,0.0,4.8282,4.7083,4.7026,5.0868,5.3021,5.2378,6.1706,6.6804,6.4103,6.4779,6.5535,6.546,6.5981,6.6134,6.5686,6.6625,6.7484,6.8016,6.7616,6.7847,6.9022,6.9021,6.8714,6.8716,6.9844,7.0383,6.9603,6.9032,6.8783,6.8838,6.9046,6.9276,6.9233,6.9233,6.9233,6.9233,6.9233,6.9737,7.0789,7.1052,7.1545,7.2433,7.2827,7.2466,7.171,7.0329,7.0514,7.411,7.5819,7.589,7.2769,7.1491,7.1296,5.8251,5.8463,5.8494,5.862,5.8611,5.627,5.5374,5.556,5.5598,5.5674,5.5712,5.5679,5.5522,5.5413,5.6903,5.7808,5.8431,6.1275,6.279,6.3365,6.5433,6.6159,6.5782,6.678,6.6977,6.6558,6.7091,6.8367,7.0218,7.0218,7.0952,7.2383,7.2383,7.0649,6.72,6.4117,6.2585,6.2653,6.6271,6.9747,7.28,7.156,6.8658,6.4192,6.4586,6.2821,5.84,5.9954,5.9959,5.7735,5.7623,6.0131,6.5353,5.6645,4.7285,0.0,3.9335,0.0,0.0,0.0,0.0,0.0,0.0,0.0,0.0,4.697,4.7401,4.5511,5.8756,6.2891,5.2164,5.6162,6.0016,6.1461,6.4053,6.5274,6.4064,6.4837,6.525,6.4672,6.4341,6.4979,6.6772,6.6307,6.609,6.6945,6.779,6.7383,6.6095,6.6401,6.7139,6.7304,6.8422,6.8871,6.9036,6.9134,6.92,6.92,6.9167,6.9299,6.9496,6.9529,6.9627,6.9824,6.9989,6.9857,6.9627,6.943,7.0251,7.3044,7.305,7.2196,7.076,6.9804,6.9975,5.5742,5.5742,5.5783,5.5783,5.5689,5.4588,5.4395,5.4742,5.4774,5.504,5.5452,5.5424,5.5493,5.5664,5.6429,5.6796,5.6927,5.9138,6.0131,6.0164,6.1807,6.2576,6.2536,6.2888,6.328,6.3805,6.4939,6.6298,6.7819,6.8646,6.8508,6.7611,6.8473,6.5513,5.9118,5.969,6.1053,6.2888,6.4588,6.7123,7.061,7.0253,6.8863,6.6555,6.6959,6.5802,6.2891,6.3866,6.3885,6.2539,6.246,6.4146,6.7321,5.3773,4.2265,0.0,0.0,0.0,0.0,0.0,0.0,0.0,0.0,0.0,0.0,0.0,4.2716,2.918,4.529,5.3495,4.6239,5.3007,5.6241,5.2259,5.9678,6.3485,5.9938,5.9318,5.8871,5.8101,5.9758,6.1153,6.1624,6.2223,6.3231,6.4701,6.2503,6.0132,5.8839,6.1381,6.349,6.3588,6.5397,6.6966,6.7633,6.8553,6.8817,6.7856,6.8424,6.8773,6.7681,6.8391,6.9233,6.9233,6.9233,6.9233,6.9233,6.9233,6.9529,7.0499,6.9015,6.7167,6.6723,6.6454,6.6802,5.3615,5.3364,5.0795,5.0411,5.1518,5.1518,5.2419,5.3825,5.3857,5.3966,5.4216,5.447,5.3831,5.2472,5.2044,5.2301,5.317,5.5281,5.673,5.763,5.8822,5.9497,5.9647,5.9727,6.0283,6.1228,6.2414,6.3741,6.5173,6.564,6.4272,6.1291,6.1843,5.846,5.1465,5.5464,5.9335,6.2635,6.3797,6.5576,6.7808,6.7912,6.7912,6.7912,6.7884,6.7464,6.6606,6.689,6.6981,6.6696,6.4974,6.5072,6.7242,5.0261,0.0,0.0,0.0,0.0,0.0,0.0,0.0,0.0,0.0,3.1682,2.1209,0.0,3.376,0.0,3.3012,4.5064,4.4051,4.9611,0.0,0.0,5.3025,5.6897,5.2509,5.2498,5.229,5.0847,5.4862,5.7372,5.6444,5.777,5.9505,6.1078,5.7592,5.4251,5.297,5.6838,5.9716,5.9408,6.1155,6.2898,6.297,6.5265,6.674,6.5943,6.6974,6.7442,6.5823,6.6822,6.7758,6.7932,6.7845,6.7813,6.8073,6.7922,6.7681,6.7517,6.5068,6.288,6.3464,6.3507,6.393,5.2924,5.2047,4.197,4.055,4.4799,4.4894,4.7458,5.151,5.1542,5.0895,4.9823,5.0853,4.7619,4.128,3.9578,0.0,4.5396,4.8459,5.2207,5.6519,5.7079,5.7145,5.6758,5.8152,5.8635,5.8285,5.8544,5.9796,6.1815,5.9616,5.7378,5.5324,5.365,5.1709,4.9899,5.4114,5.807,6.115,6.5605,6.7463,6.649,6.6453,6.6453,6.6386,6.5312,6.4842,6.5093,6.5334,6.5743,6.6031,5.9441,5.9036,6.5802,0.0,0.0,0.0,0.0,0.0,0.0,0.0,0.0,0.0,0.0,0.0,0.0,0.0,0.0,0.0,2.7624,0.0,4.6058,4.3569,0.0,0.0,0.0,4.1562,3.9606,4.4706,4.7031,4.3632,0.0,0.0,5.283,5.3286,5.4186,5.5677,5.5456,5.4373,5.231,5.5099,5.7005,5.4999,5.6059,5.616,5.4972,5.8159,6.1965,6.4116,6.4626,6.433,6.4008,6.3922,6.3823,6.4429,6.391,6.3855,6.5059,6.4138,6.3483,6.3439,6.258,6.203,6.2718,6.242,6.2345,4.3844,3.9644,3.5688,3.5651,3.8107,3.7404,4.0682,4.6588,4.5788,4.5271,4.494,4.4621,4.0954,3.495,3.3577,0.0,0.0,0.0,4.2876,4.784,4.8365,5.0553,5.4059,5.4863,5.5325,5.5664,5.6572,5.7683,5.8927,5.8696,5.0978,3.6491,0.0,0.0,3.6703,4.4545,5.0646,5.4809,5.9642,6.182,6.1272,6.1238,6.1399,6.1685,6.1187,6.1324,6.2067,6.2231,6.0902,5.7915,5.3978,4.759,0.0,0.0,0.0,0.0,0.0,0.0,0.0,0.0,0.0,0.0,0.0,2.1809,0.0,0.0,0.0,0.0,1.6123,2.6596,4.1829,4.342,0.0,0.0,0.0,0.0,0.0,0.0,0.0,3.5609,4.3371,4.8594,4.7928,4.7869,4.793,4.8024,4.8039,4.7544,4.6156,0.0,5.1715,5.2134,5.2995,5.4082,5.5135,5.503,5.5924,5.9244,6.0929,6.1384,5.9909,6.183,6.3449,6.3382,6.3131,6.2312,6.0247,5.9198,5.8722,5.8993,5.8803,5.9016,6.0388,6.0771,6.1315,3.4039,0.0,0.0,0.0,0.0,3.0561,3.3928,3.9933,3.9007,3.8314,3.7815,3.7342,0.0,0.0,0.0,0.0,0.0,0.0,3.6758,4.1227,4.4211,4.7732,5.183,5.2111,5.2471,5.2999,5.361,5.3534,5.2794,5.1872,4.1888,2.3708,0.0,0.0,0.0,0.0,4.351,4.8137,5.4722,5.786,5.7261,5.7702,5.8129,5.8474,5.8688,5.9251,6.0095,5.8514,5.5671,5.1421,4.4651,0.0,0.0,0.0,0.0,0.0,0.0,0.0,0.0,0.0,0.0,0.0,0.0,0.0,0.0,0.0,0.0,0.0,0.0,0.0,3.5778,3.896,3.5788,0.0,0.0,0.0,0.0,0.0,0.0,0.0,0.0,0.0,4.3042,4.3312,4.3813,0.0,0.0,4.4458,4.2929,4.5395,4.7587,4.8263,4.8556,0.0,5.1859,5.0498,5.0319,5.34,5.6597,5.7782,5.4801,5.7396,5.9547,5.82,5.9193,5.9074,5.549,5.3647,5.3578,5.5456,5.417,5.329,5.4681,5.6048,5.7281,0.0,0.0,0.0,0.0,0.0,0.0,0.0,0.0,3.1473,3.0054,0.0,2.9134,0.0,0.0,0.0,0.0,0.0,3.0028,0.0,0.0,4.7158,5.0897,4.9776,5.0234,5.0544,5.0511,4.8742,4.6043,4.2126,3.5803,0.0,0.0,0.0,0.0,0.0,0.0,3.7895,4.1939,5.2834,5.7661,5.5776,5.7094,5.7869,5.7935,5.8641,5.9192,5.9536,5.4171,5.0554,4.8806,3.015,0.0,0.0,0.0,0.0,0.0,0.0,0.0,0.0,0.0,0.0,0.0,0.0,0.0,0.0,0.0,0.0,0.0,0.0,0.0,0.0,2.7593,0.0,0.0,0.0,0.0,0.0,0.0,0.0,0.0,0.0,0.0,3.833,3.9987,4.2772,4.7138,0.0,0.0,0.0,0.0,4.5634,4.2918,4.1701,4.0927,3.9958,4.2865,4.588,4.7742,0.0,0.0,4.993,4.9951,4.9745,4.702,5.0694,5.2838,5.0413,4.7175,4.7355,5.3283,4.892,4.4555,4.5153,4.738,4.9142,0.0,0.0,0.0,0.0,0.0,0.0,0.0,0.0,0.0,2.4093,0.0,2.2909,0.0,0.0,0.0,0.0,0.0,0.0,0.0,0.0,3.4939,3.8709,4.0131,4.3654,4.3884,0.0,3.9477,3.4674,0.0,0.0,0.0,0.0,0.0,0.0,0.0,0.0,3.5077,3.8167,4.9,5.4265,5.3258,5.4043,5.4534,5.45,5.5353,5.379,4.9498,4.6141,4.2466,0.0,0.0,0.0,0.0,0.0,0.0,0.0,0.0,0.0,0.0,0.0,0.0,0.0,0.0,0.0,0.0,0.0,0.0,0.0,0.0,0.0,0.0,0.0,1.8417,0.0,0.0,0.0,0.0,0.0,0.0,0.0,0.0,0.0,2.9968,3.3866,3.7863,4.1238,4.314,4.4446,4.4953,0.0,0.0,0.0,0.0,0.0,0.0,0.0,4.0583,4.1478,4.0477,4.0025,4.1329,4.4733,4.6819,4.5499,0.0,0.0,3.8318,3.7583,3.9722,4.344,4.0681,3.7931,3.9021,3.9981,4.0902,0.0,0.0,0.0,0.0,0.0,0.0,0.0,0.0,0.0,1.7142,1.67,0.0,0.0,0.0,0.0,0.0,0.0,0.0,0.0,0.0,0.0,0.0,3.2674,3.609,0.0,0.0,0.0,0.0,0.0,0.0,0.0,0.0,0.0,0.0,0.0,0.0,3.296,3.5391,4.6396,5.2045,5.1587,5.1949,5.2176,5.2239,5.2986,5.034,4.4019,0.0,0.0,0.0,0.0,0.0,0.0,0.0,0.0,0.0,0.0,0.0,0.0,0.0,0.0,0.0,0.0,0.0,0.0,0.0,0.0,0.0,0.0,0.0,0.0,0.0,1.4183,0.0,0.0,0.0,0.0,0.0,0.0,0.0,0.0,0.0,0.0,0.0,3.1361,3.6161,3.8829,4.139,4.4119,4.362,4.3597,0.0,0.0,0.0,0.0,0.0,0.0,0.0,0.0,0.0,0.0,0.0,0.0,0.0,0.0,3.9159,2.6934,2.8405,3.1607,3.1846,0.0,0.0,0.0,0.0,0.0,0.0,0.0,0.0,0.0,0.0,0.0,0.0,0.0,0.0,0.0,0.0,0.0,0.0,0.8223,0.0,0.0,0.0,0.0,0.0,0.0,0.0,0.0,0.0,0.0,0.0,0.0,0.0,0.0,0.0,0.0,0.0,0.0,0.0,0.0,0.0,0.0,3.1421,3.3199,4.5313,5.1387,5.0974,5.0974,5.108,5.1353,5.1785,4.9483,4.3971,0.0,0.0,0.0,0.0,0.0,0.0,0.0,0.0,0.0,0.0,0.0,0.0,0.0,0.0,0.0,0.0,0.0,0.0,0.0,0.0,0.0,0.0,0.0,0.0,0.0,0.0,1.3354,1.4476,1.4217,0.0,0.0,0.0,0.0,0.0,0.0,0.0,0.0,0.0,0.0,3.605,3.9066,4.2459,4.2246,4.1647,4.1461,4.0792,4.0079,3.9515,4.088,4.0982,0.0,0.0,0.0,0.0,0.0,0.0,0.0,0.0,0.0,0.0,0.0,0.0,0.0,0.0,0.0,0.0,0.0,0.0,0.0,0.0,0.0,0.0,0.0,0.0,0.0,0.0,0.0,0.0,0.0,0.0,0.0,0.0,0.0,0.0,0.0,0.0,0.0,0.0,0.0,0.0,0.0,0.0,0.0,0.0,0.0,0.0,0.0,0.0,0.0,0.0,0.0,0.0,0.0,0.0,3.1557,3.3473,4.5673,5.1587,5.094,5.1185,5.1356,5.1423,5.0636,4.7534,0.0,0.0,0.0,0.0,0.0,0.0,0.0,0.0,0.0,0.0,0.0,0.0,0.0,0.0,0.0,0.0,0.0,0.0,0.0,0.0,0.0,0.0,0.0,0.0,0.0,0.0,0.0,0.0,1.5616,1.4615,1.1362,0.0,0.0,0.0,0.0,0.0,0.0,0.0,0.0,0.0,0.0,3.6269,4.1507,4.0718,4.0304,4.2172,4.1051,4.0469,4.1858,4.1281,4.0009,3.7865,0.0,0.0,0.0,0.0,0.0,0.0,0.0,0.0,0.0,0.0,0.0,0.0,0.0,0.0,0.0,0.0,0.0,0.0,0.0,0.0,0.0,0.0,0.0,0.0,0.0,0.0,0.0,0.0,0.0,0.0,0.0,0.0,0.0,0.0,0.0,0.0,0.0,0.0,0.0,0.0,0.0,0.0,0.0,0.0,0.0,0.0,0.0,0.0,0.0,0.0,0.0,0.0,0.0,3.1359,3.3512,4.5133,5.1047,5.0732,5.0806,5.0983,5.1254,4.9985,4.583,0.0,0.0,0.0,0.0,0.0,0.0,0.0,0.0,0.0,0.0,0.0,0.0,0.0,0.0,0.0,0.0,0.0,0.0,0.0,0.0,0.0,0.0,0.0,0.0,0.0,0.0,0.0,0.0,1.2905,1.2775,1.2275,0.0,0.0,0.0,0.0,0.0,0.0,0.0,0.0,0.0,0.0,3.2187,3.7718,3.7639,0.0,0.0,3.9849,3.9162,4.2364,4.2295,4.0255,3.5359,3.3352,0.0,0.0,0.0,0.0,0.0,0.0,0.0,0.0,0.0,0.0,0.0,0.0,0.0,0.0,0.0,0.0,0.0,0.0,0.0,0.0,0.0,0.0,0.0,0.0,0.0,0.0,0.0,0.0,0.0,0.0,0.0,0.0,0.0,0.0,0.0,0.0,0.0,0.0,0.0,0.0,0.0,0.0,0.0,0.0,0.0,0.0,0.0,0.0,0.0,0.0,0.0,0.0,0.0,3.3307,4.4033,4.9949,5.0201,4.9876,4.9958,5.0769,4.9459,4.4092,0.0,0.0,0.0,0.0,0.0,0.0,0.0,0.0,0.0,0.0,0.0,0.0,0.0,0.0,0.0,0.0,0.0,0.0,0.0,0.0,0.0,0.0,0.0,0.0,0.0,0.0,0.0,0.0,0.0,0.0,0.0,0.0,0.0,0.0,0.0,0.0,0.0,0.0,0.0,0.0,0.0,2.7496,3.2349,3.3464,3.5418,0.0,0.0,3.6367,4.0636,4.2899,4.0889,3.1222,0.0,0.0,0.0,0.0,0.0,0.0,0.0,0.0,0.0,0.0,0.0,0.0,0.0,0.0,0.0,0.0,0.0,0.0,0.0,0.0,0.0,0.0,0.0,0.0,0.0,0.0,0.0,0.0,0.0,0.0,0.0,0.0,0.0,0.0,0.0,0.0,0.0,0.0,0.0,0.0,0.0,0.0,0.0,0.0,0.0,0.0,0.0,0.0,0.0,0.0,0.0,0.0,0.0,0.0,3.3227,4.3903,4.9373,4.915,4.8614,4.8621,4.9231,4.6316,0.0,0.0,0.0,0.0,0.0,0.0,0.0,0.0,0.0,0.0,0.0,0.0,0.0,0.0,0.0,0.0,0.0,0.0,0.0,0.0,0.0,0.0,0.0,0.0,0.0,0.0,0.0,0.5159,0.0,0.0,0.0,0.0,0.0,0.0,0.0,0.0,0.0,0.0,0.0,0.0,0.0,0.0,2.6571,3.3754,3.2123,3.169,0.0,0.0,3.237,3.4384,3.5999,3.5532,0.0,0.0,0.0,0.0,0.0,0.0,0.0,0.0,0.0,0.0,0.0,0.0,0.0,0.0,0.0,0.0,0.0,0.0,0.0,0.0,0.0,0.0,0.0,0.0,0.0,0.0,0.0,0.0,0.0,0.0,0.0,0.0,0.0,0.0,0.0,0.0,0.0,0.0,0.0,0.0,0.0,0.0,0.0,0.0,0.0,0.0,0.0,0.0,0.0,0.0,0.0,0.0,0.0,0.0,2.7399,3.2209,4.0258,4.5663,4.7898,4.717,4.721,4.8261,4.4388,3.9063,0.0,0.0,0.0,0.0,0.0,0.0,0.0,0.0,0.0,0.0,0.0,0.0,0.0,0.0,0.0,0.0,0.0,0.0,0.0,0.0,0.0,0.0,0.0,0.0,0.0,0.0,0.0,0.0,0.0,0.0,0.0,0.0,0.0,0.0,0.0,0.0,0.0,0.0,0.0,0.0,0.0,0.0,2.9636,2.8035,0.0,0.0,0.0,2.8727,3.2002,0.0,0.0,0.0,0.0,0.0,0.0,0.0,0.0,0.0,0.0,0.0,0.0,0.0,0.0,0.0,0.0,0.0,0.0,0.0,0.0,0.0,0.0,0.0,0.0,0.0,0.0,0.0,0.0,0.0,0.0,0.0,0.0,0.0,0.0,0.0,0.0,0.0,0.0,0.0,0.0,0.0,0.0,0.0,0.0,0.0,0.0,0.0,0.0,0.0,0.0,0.0,0.0,0.0,0.0,0.0,0.0,0.0,3.085,3.6095,4.1307,4.6451,4.5632,4.5657,4.6929,4.3244,3.7995,0.0,0.0,0.0,0.0,0.0,0.0,0.0,0.0,0.0,0.0,0.0,0.0,0.0,0.0,0.0,0.0,0.0,0.0,0.0,0.0,0.0,0.0,0.0,0.0,0.0,0.0,0.0,0.0,0.0,0.0,0.0,0.0,0.0,0.0,0.0,0.0,0.0,0.0,0.0,0.0,0.0,2.3112,2.3662,2.3241,2.347,0.0,0.0,2.5301,3.0793,3.1949,0.0,0.0,0.0,0.0,0.0,0.0,0.0,0.0,0.0,0.0,0.0,0.0,0.0,0.0,0.0,0.0,0.0,0.0,0.0,0.0,0.0,0.0,0.0,0.0,0.0,0.0,0.0,0.0,0.0,0.0,0.0,0.0,0.0,0.0,0.0,0.0,0.0,0.0,0.0,0.0,0.0,0.0,0.0,0.0,0.0,0.0,0.0,0.0,0.0,0.0,0.0,0.0,0.0,0.0,0.0,0.0,3.144,3.8483,4.3264,4.528,4.4337,4.3713,4.3553,4.1822,3.7189,0.0,0.0,0.0,0.0,0.0,0.0,0.0,0.0,0.0,0.0,0.0,0.0,0.0,0.0,0.0,0.0,0.0,0.0,0.0,0.0,0.0,0.0,0.0,0.0,0.0,0.0,0.0,0.0,0.0,0.0,0.0,0.0,0.0,0.0,0.0,0.0,0.0,0.0,0.0,0.0,0.0,2.0529,2.3308,2.2314,0.0,0.0,0.0,0.0,2.4149,2.4637,0.0,0.0,0.0,0.0,0.0,0.0,0.0,0.0,0.0,0.0,0.0,0.0,0.0,0.0,0.0,0.0,0.0,0.0,0.0,0.0,0.0,0.0,0.0,0.0,0.0,0.0,0.0,0.0,0.0,0.0,0.0,0.0,0.0,0.0,0.0,0.0,0.0,0.0,0.0,0.0,0.0,0.0,0.0,0.0,0.0,0.0,0.0,0.0,0.0,0.0,0.0,0.0,0.0,0.0,0.0,0.0,3.1666,3.5897,3.9643,4.2858,4.16,4.1038,4.1557,3.9258,3.491,0.0,0.0,0.0,0.0,0.0,0.0,0.0,0.0,0.0,0.0,0.0,0.0,0.0,0.0,0.0,0.0,0.0,0.0,0.0,0.0,0.0,0.0,0.0,0.0,0.0,0.0,0.0,0.0,0.0,0.0,0.0,0.0,0.0,0.0,0.0,0.0,0.0,0.0,0.0,0.0,1.582,1.7953,2.0401,0.0,0.0,0.0,0.0,0.0,0.0,2.1682,2.1256,0.0,0.0,0.0,0.0,0.0,0.0,0.0,0.0,0.0,0.0,0.0,0.0,0.0,0.0,0.0,0.0,0.0,0.0,0.0,0.0,0.0,0.0,0.0,0.0,0.0,0.0,0.0,0.0,0.0,0.0,0.0,0.0,0.0,0.0,0.0,0.0,0.0,0.0,0.0,0.0,0.0,0.0,0.0,0.0,0.0,0.0,0.0,0.0,0.0,0.0,0.0,0.0,0.0,0.0,0.0,3.0542,3.1693,3.4636,3.9631,3.8394,3.8351,3.9614,3.6589,3.2482,2.7404,0.0,0.0,0.0,0.0,0.0,0.0,0.0,0.0,0.0,0.0,0.0,0.0,0.0,0.0,0.0,0.0,0.0,0.0,0.0,0.0,0.0,0.0,0.0,0.0,0.0,0.0,0.0,0.0,0.0,0.0,0.0,0.0,0.0,0.0,0.0,0.0,0.0,0.0,0.0,1.382,1.5147,0.0,0.0,0.0,0.0,0.0,0.0,0.0,0.0,2.0726,0.0,0.0,0.0,0.0,0.0,0.0,0.0,0.0,0.0,0.0,0.0,0.0,0.0,0.0,0.0,0.0,0.0,0.0,0.0,0.0,0.0,0.0,0.0,0.0,0.0,0.0,0.0,0.0,0.0,0.0,0.0,0.0,0.0,0.0,0.0,0.0,0.0,0.0,0.0,0.0,0.0,0.0,0.0,0.0,0.0,0.0,0.0,0.0,0.0,0.0,0.0,0.0,0.0,0.0,0.0,0.0,2.8564,3.2382,3.5411,3.5702,3.5916,3.6162,3.5086,3.1455,2.51,0.0,0.0,0.0,0.0,0.0,0.0,0.0,0.0,0.0,0.0,0.0,0.0,0.0,0.0,0.0,0.0,0.0,0.0,0.0,0.0,0.0,0.0,0.0,0.0,0.0,0.0,0.0,0.0,0.0,0.0,0.0,0.0,0.0,0.0,0.0,0.0,0.0,0.0,0.5389,0.9006,0.0,0.0,0.0,0.0,0.0,0.0,0.0,0.0,2.0385,0.0,0.0,0.0,0.0,0.0,0.0,0.0,0.0,0.0,0.0,0.0,0.0,0.0,0.0,0.0,0.0,0.0,0.0,0.0,0.0,0.0,0.0,0.0,0.0,0.0,0.0,0.0,0.0,0.0,0.0,0.0,0.0,0.0,0.0,0.0,0.0,0.0,0.0,0.0,0.0,0.0,0.0,0.0,0.0,0.0,0.0,0.0,0.0,0.0,0.0,0.0,0.0,0.0,0.0,0.0,0.0,0.0,0.0,3.1958,3.4853,3.4733,3.4544,3.4352,3.1283,2.8098,0.0,0.0,0.0,0.0,0.0,0.0,0.0,0.0,0.0,0.0,0.0,0.0,0.0,0.0,0.0,0.0,0.0,0.0,0.0,0.0,0.0,0.0,0.0,0.0,0.0,0.0,0.0,0.0,0.0,0.0,0.0,0.0,0.0,0.0,0.0,0.0,0.0,0.0,0.0,0.0,0.0,0.0,0.0,0.0,0.0,0.0,0.0,0.0,0.0,0.0,0.0,0.0,0.0,0.0,0.0,0.0,0.0,0.0,0.0,0.0,0.0,0.0,0.0,0.0,0.0,0.0,0.0,0.0,0.0,0.0,0.0,0.0,0.0,0.0,0.0,0.0,0.0,0.0,0.0,0.0,0.0,0.0,0.0,0.0,0.0,0.0,0.0,0.0,0.0,0.0,0.0,0.0,0.0,0.0,0.0,0.0,0.0,0.0,0.0,0.0,0.0,0.0,0.0,0.0,0.0,0.0,0.0,0.0,3.0768,3.3934,3.3428,3.3167,3.32,2.7989,2.4845,0.0,0.0,0.0,0.0,0.0,0.0,0.0,0.0,0.0,0.0,0.0,0.0,0.0,0.0,0.0,0.0,0.0,0.0,0.0,0.0,0.0,0.0,0.0,0.0,0.0,0.0,0.0,0.0,0.0,0.0,0.0,0.0,0.0,0.0,0.0,0.0,0.0,0.0,0.0,0.0,0.0,0.0,0.0,0.0,0.0,0.0,0.0,0.0,1.2382,0.0,0.0,0.0,0.0,0.0,0.0,0.0,0.0,0.0,0.0,0.0,0.0,0.0,0.0,0.0,0.0,0.0,0.0,0.0,0.0,0.0,0.0,0.0,0.0,0.0,0.0,0.0,0.0,0.0,0.0,0.0,0.0,0.0,0.0,0.0,0.0,0.0,0.0,0.0,0.0,0.0,0.0,0.0,0.0,0.0,0.0,0.0,0.0,0.0,0.0,0.0,0.0,0.0,0.0,0.0,0.0,0.0,0.0,0.0,2.6434,2.975,3.0381,3.1131,3.1879,2.7296,2.3404,0.0,0.0,0.0,0.0,0.0,0.0,0.0,0.0,0.0,0.0,0.0,0.0,0.0,0.0,0.0,0.0,0.0,0.0,0.0,0.0,0.0,0.0,0.0,0.0,0.0,0.0,0.0,0.0,0.0,0.0,0.0,0.0,0.0,0.0,0.0,0.0,0.0,0.0,0.0,0.0,0.0,0.0,0.0,0.0,0.0,0.0,0.0,0.0,0.0,0.0,0.0,0.0,0.0,0.0,0.0,0.0,0.0,0.0,0.0,0.0,0.0,0.0,0.0,0.0,0.0,0.0,0.0,0.0,0.0,0.0,0.0,0.0,0.0,0.0,0.0,0.0,0.0,0.0,0.0,0.0,0.0,0.0,0.0,0.0,0.0,0.0,0.0,0.0,0.0,0.0,0.0,0.0,0.0,0.0,0.0,0.0,0.0,0.0,0.0,0.0,0.0,0.0,0.0,0.0,0.0,0.0,0.0,0.0,2.4353,2.5578,2.837,2.8984,2.7184,2.4457,2.2631,0.0,0.0,0.0,0.0,0.0,0.0,0.0,0.0,0.0,0.0,0.0,0.0,0.0,0.0,0.0,0.0,0.0,0.0,0.0,0.0,0.0,0.0,0.0,0.0,0.0,0.0,0.0,0.0,0.0,0.0,0.0,0.0,0.0,0.0,0.0,0.0,0.0,0.0,0.0,0.0,0.0,0.0,0.0,0.0,0.0,0.0,0.0,0.0,0.0,0.0,0.0,0.0,0.0,0.0,0.0,0.0,0.0,0.0,0.0,0.0,0.0,0.0,0.0,0.0,0.0,0.0,0.0,0.0,0.0,0.0,0.0,0.0,0.0,0.0,0.0,0.0,0.0,0.0,0.0,0.0,0.0,0.0,0.0,0.0,0.0,0.0,0.0,0.0,0.0,0.0,0.0,0.0,0.0,0.0,0.0,0.0,0.0,0.0,0.0,0.0,0.0,0.0,0.0,0.0,0.0,0.0,0.0,0.0,0.0,2.2661,2.7264,2.7991,2.4073,2.2433,2.1425,0.0,0.0,0.0,0.0,0.0,0.0,0.0,0.0,0.0,0.0,0.0,0.0,0.0,0.0,0.0,0.0,0.0,0.0,0.0,0.0,0.0,0.0,0.0,0.0,0.0,0.0,0.0,0.0,0.0,0.0,0.0,0.0,0.0,0.0,0.0,0.0,0.0,0.0,0.0,0.0,0.0,0.0,0.0,0.0,0.0,0.0,0.0,0.0,0.0,0.0,0.0,0.0,0.0,0.0,0.0,0.0,0.0,0.0,0.0,0.0,0.0,0.0,0.0,0.0,0.0,0.0,0.0,0.0,0.0,0.0,0.0,0.0,0.0,0.0,0.0,0.0,0.0,0.0,0.0,0.0,0.0,0.0,0.0,0.0,0.0,0.0,0.0,0.0,0.0,0.0,0.0,0.0,0.0,0.0,0.0,0.0,0.0,0.0,0.0,0.0,0.0,0.0,0.0,0.0,0.0,0.0,0.0,0.0,0.0,2.0964,2.7292,2.8538,2.4446,2.2382,1.9131,0.0,0.0,0.0,0.0,0.0,0.0,0.0,0.0,0.0,0.0,0.0,0.0,0.0,0.0,0.0,0.0,0.0,0.0,0.0,0.0,0.0,0.0,0.0,0.0,0.0,0.0,0.0,0.0,0.0,0.0,0.0,0.0,0.0,0.0,0.0,0.0,0.0,0.0,0.0,0.0,0.0,0.0,0.0,0.0,0.0,0.0,0.0,0.0,0.0,0.0,0.0,0.0,0.0,0.0,0.0,0.0,0.0,0.0,0.0,0.0,0.0,0.0,0.0,0.0,0.0,0.0,0.0,0.0,0.0,0.0,0.0,0.0,0.0,0.0,0.0,0.0,0.0,0.0,0.0,0.0,0.0,0.0,0.0,0.0,0.0,0.0,0.0,0.0,0.0,0.0,0.0,0.0,0.0,0.0,0.0,0.0,0.0,0.0,0.0,0.0,0.0,0.0,0.0,0.0,0.0,0.0,0.0,0.0,0.0,1.8759,2.3435,2.3632,1.8744,1.9176,1.8875,1.7672,0.0,0.0,0.0,0.0,0.0,0.0,0.0,0.0,0.0,0.0,0.0,0.0,0.0,0.0,0.0,0.0,0.0,0.0,0.0,0.0,0.0,0.0,0.0,0.0,0.0,0.0,0.0,0.0,0.0,0.0,0.0,0.0,0.0,0.0,0.0,0.0,0.0,0.0,0.0,0.0,0.0,0.0,0.0,0.0,0.0,0.0,0.0,0.0,0.0,0.0,0.0,0.0,0.0,0.0,0.0,0.0,0.0,0.0,0.0,0.0,0.0,0.0,0.0,0.0,0.0,0.0,0.0,0.0,0.0,0.0,0.0,0.0,0.0,0.0,0.0,0.0,0.0,0.0,0.0,0.0,0.0,0.0,0.0,0.0,0.0,0.0,0.0,0.0,0.0,0.0,0.0,0.0,0.0,0.0,0.0,0.0,0.0,0.0,0.0,0.0,0.0,0.0,0.0,0.0,0.0,0.0,0.0,0.0,1.7391,2.198,2.2083,1.7357,1.8438,1.8519,0.0,0.0,0.0,0.0,0.0,0.0,0.0,0.0,0.0,0.0,0.0,0.0,0.0,0.0,0.0,0.0,0.0,0.0,0.0,0.0,0.0,0.0,0.0,0.0,0.0,0.0,0.0,0.0,0.0,0.0,0.0,0.0,0.0,0.0,0.0,0.0,0.0,0.0,0.0,0.0,0.0,0.0,0.0,0.0,0.0,0.0,0.0,0.0,0.0,0.0,0.0,0.0,0.0,0.0,0.0,0.0,0.0,0.0,0.0,0.0,0.0,0.0,0.0,0.0,0.0,0.0,0.0,0.0,0.0,0.0,0.0,0.0,0.0,0.0,0.0,0.0,0.0,0.0,0.0,0.0,0.0,0.0,0.0,0.0,0.0,0.0,0.0,0.0,0.0,0.0,0.0,0.0,0.0,0.0,0.0,0.0,0.0,0.0,0.0,0.0,0.0,0.0,0.0,0.0,0.0,0.0,0.0,0.0,1.6999,1.746,2.3561,2.4794,2.1267,2.0927,1.7639,0.0,0.0,0.0,0.0,0.0,0.0,0.0,0.0,0.0,0.0,0.0,0.0,0.0,0.0,0.0,0.0,0.0,0.0,0.0,0.0,0.0,0.0,0.0,0.0,0.0,0.0,0.0,0.0,0.0,0.0,0.0,0.0,0.0,0.0,0.0,0.0,0.0,0.0,0.0,0.0,0.0,0.0,0.0,0.0,0.0,0.0,0.0,0.0,0.0,0.0,0.0,0.0,0.0,0.0,0.0,0.0,0.0,0.0,0.0,0.0,0.0,0.0,0.0,0.0,0.0,0.0,0.0,0.0,0.0,0.0,0.0,0.0,0.0,0.0,0.0,0.0,0.0,0.0,0.0,0.0,0.0,0.0,0.0,0.0,0.0,0.0,0.0,0.0,0.0,0.0,0.0,0.0,0.0,0.0,0.0,0.0,0.0,0.0,0.0,0.0,0.0,0.0,0.0,0.0,0.0,0.0,0.0,0.0,0.0,0.6063,0.0,1.9085,0.0,1.9324,1.7424,0.0,0.0,0.0,0.0,0.0,0.0,0.0,0.0,0.0,0.0,0.0,0.0,0.0,0.0,0.0,0.0,0.0,0.0,0.0,0.0,0.0,0.0,0.0,0.0,0.0,0.0,0.0,0.0,0.0,0.0,0.0,0.0,0.0,0.0,0.0,0.0,0.0,0.0,0.0,0.0,0.0,0.0,0.0,0.0,0.0,0.0,0.0,0.0,0.0,0.0,0.0,0.0,0.0,0.0,0.0,0.0,0.0,0.0,0.0,0.0,0.0,0.0,0.0,0.0,0.0,0.0,0.0,0.0,0.0,0.0,0.0,0.0,0.0,0.0,0.0,0.0,0.0,0.0,0.0,0.0,0.0,0.0,0.0,0.0,0.0,0.0,0.0,0.0,0.0,0.0,0.0,0.0,0.0,0.0,0.0,0.0,0.0,0.0,0.0,0.0,0.0,0.0,0.0,0.0,0.0,0.0,0.0,0.0,0.0,0.5778,1.1237,1.6529,0.0,1.9105,1.7416,0.0,0.0,0.0,0.0,0.0,0.0,0.0,0.0,0.0,0.0,0.0,0.0,0.0,0.0,0.0,0.0,0.0,0.0,0.0,0.0,0.0,0.0,0.0,0.0,0.0,0.0,0.0,0.0,0.0,0.0,0.0,0.0,0.0,0.0,0.0,0.0,0.0,0.0,0.0,0.0,0.0,0.0,0.0,0.0,0.0,0.0,0.0,0.0,0.0,0.0,0.0,0.0,0.0,0.0,0.0,0.0,0.0,0.0,0.0,0.0,0.0,0.0,0.0,0.0,0.0,0.0,0.0,0.0,0.0,0.0,0.0,0.0,0.0,0.0,0.0,0.0,0.0,0.0,0.0,0.0,0.0,0.0,0.0,0.0,0.0,0.0,0.0,0.0,0.0,0.0,0.0,0.0,0.0,0.0,0.0,0.0,0.0,0.0,0.0,0.0,0.0,0.0,0.0,0.0,0.0,0.0,0.0,0.0,0.0,0.0,1.5801,1.7773,2.0478,2.0143,1.7593,0.0,0.0,0.0,0.0,0.0,0.0,0.0,0.0,0.0,0.0,0.0,0.0,0.0,0.0,0.0,0.0,0.0,0.0,0.0,0.0,0.0,0.0,0.0,0.0,0.0,0.0,0.0,0.0,0.0,0.0,0.0,0.0,0.0,0.0,0.0,0.0,0.0,0.0,0.0,0.0,0.0,0.0,0.0,0.0,0.0,0.0,0.0,0.0,0.0,0.0,0.0,0.0,0.0,0.0,0.0,0.0,0.0,0.0,0.0,0.0,0.0,0.0,0.0,0.0,0.0,0.0,0.0,0.0,0.0,0.0,0.0,0.0,0.0,0.0,0.0,0.0,0.0,0.0,0.0,0.0,0.0,0.0,0.0,0.0,0.0,0.0,0.0,0.0,0.0,0.0,0.0,0.0,0.0,0.0,0.0,0.0,0.0,0.0,0.0,0.0,0.0,0.0,0.0,0.0,0.0,0.0,0.0,0.0,0.0,0.0,1.8976,0.0,1.8645,1.743,1.6194,1.4945,0.0,0.0,0.0,0.0,0.0,0.0,0.0,0.0,0.0,0.0,0.0,0.0,0.0,0.0,0.0,0.0,0.0,0.0,0.0,0.0,0.0,0.0,0.0,0.0,0.0,0.0,0.0,0.0,0.0,0.0,0.0,0.0,0.0,0.0,0.0,0.0,0.0,0.0,0.0,0.0,0.0,0.0,0.0,0.0,0.0,0.0,0.0,0.0,0.0,0.0,0.0,0.0,0.0,0.0,0.0,0.0,0.0,0.0,0.0,0.0,0.0,0.0,0.0,0.0,0.0,0.0,0.0,0.0,0.0,0.0,0.0,0.0,0.0,0.0,0.0,0.0,0.0,0.0,0.0,0.0,0.0,0.0,0.0,0.0,0.0,0.0,0.0,0.0,0.0,0.0,0.0,0.0,0.0,0.0,0.0,0.0,0.0,0.0,0.0,0.0,0.0,0.0,0.0,0.0,0.0,0.0,0.0,0.0,0.0,0.0,0.0,1.7738,1.6561,1.5662,0.0,0.0,0.0,0.0,0.0,0.0,0.0,0.0,0.0,0.0,0.0,0.0,0.0,0.0,0.0,0.0,0.0,0.0,0.0,0.0,0.0,0.0,0.0,0.0,0.0,0.0,0.0,0.0,0.0,0.0,0.0,0.0,0.0,0.0,0.0,0.0,0.0,0.0,0.0,0.0,0.0,0.0,0.0,0.0,0.0,0.0,0.0,0.0,0.0,0.0,0.0,0.0,0.0,0.0,0.0,0.0,0.0,0.0,0.0,0.0,0.0,0.0,0.0,0.0,0.0,0.0,0.0,0.0,0.0,0.0,0.0,0.0,0.0,0.0,0.0,0.0,0.0,0.0,0.0,0.0,0.0,0.0,0.0,0.0,0.0,0.0,0.0,0.0,0.0,0.0,0.0,0.0,0.0,0.0,0.0,0.0,0.0,0.0,0.0,0.0,0.0,0.0,0.0,0.0,0.0,0.0,0.0,0.0,0.0,0.0,0.0,1.5611,1.7221,1.6832,0.0,1.3885,0.0,0.0,0.0,0.0,0.0,0.0,0.0,0.0,0.0,0.0,0.0,0.0,0.0,0.0,0.0,0.0,0.0,0.0,0.0,0.0,0.0,0.0,0.0,0.0,0.0,0.0,0.0,0.0,0.0,0.0,0.0,0.0,0.0,0.0,0.0,0.0,0.0,0.0,0.0,0.0,0.0,0.0,0.0,0.0,0.0,0.0,0.0,0.0,0.0,0.0,0.0,0.0,0.0,0.0,0.0,0.0,0.0,0.0,0.0,0.0,0.0,0.0,0.0,0.0,0.0,0.0,0.0,0.0,0.0,0.0,0.0,0.0,0.0,0.0,0.0,0.0,0.0,0.0,0.0,0.0,0.0,0.0,0.0,0.0,0.0,0.0,0.0,0.0,0.0,0.0,0.0,0.0,0.0,0.0,0.0,0.0,0.0,0.0,0.0,0.0,0.0,0.0,0.0,0.0,0.0,0.0,0.0,0.0,0.0,0.0,0.0,0.0,1.6148,1.5185,1.1289,0.0,0.0,0.0,0.0,0.0,0.0,0.0,0.0,0.0,0.0,0.0,0.0,0.0,0.0,0.0,0.0,0.0,0.0,0.0,0.0,0.0,0.0,0.0,0.0,0.0,0.0,0.0,0.0,0.0,0.0,0.0,0.0,0.0,0.0,0.0,0.0,0.0,0.0,0.0,0.0,0.0,0.0,0.0,0.0,0.0,0.0,0.0,0.0,0.0,0.0,0.0,0.0,0.0,0.0,0.0,0.0,0.0,0.0,0.0,0.0,0.0,0.0,0.0,0.0,0.0,0.0,0.0,0.0,0.0,0.0,0.0,0.0,0.0,0.0,0.0,0.0,0.0,0.0,0.0,0.0,0.0,0.0,0.0,0.0,0.0,0.0,0.0,0.0,0.0,0.0,0.0,0.0,0.0,0.0,0.0,0.0,0.0,0.0,0.0,0.0,0.0,0.0,0.0,0.0,0.0,0.0,0.0,0.0,0.0,0.0,1.6442,1.3882,1.5207,1.4155,1.0401,0.0,0.0,0.0,0.0,0.0,0.0,0.0,0.0,0.0,0.0,0.0,0.0,0.0,0.0,0.0,0.0,0.0,0.0,0.0,0.0,0.0,0.0,0.0,0.0,0.0,0.0,0.0,0.0,0.0,0.0,0.0,0.0,0.0,0.0,0.0,0.0,0.0,0.0,0.0,0.0,0.0,0.0,0.0,0.0,0.0,0.0,0.0,0.0,0.0,0.0,0.0,0.0,0.0,0.0,0.0,0.0,0.0,0.0,0.0,0.0,0.0,0.0,0.0,0.0,0.0,0.0,0.0,0.0,0.0,0.0,0.0,0.0,0.0,0.0,0.0,0.0,0.0,0.0,0.0,0.0,0.0,0.0,0.0,0.0,0.0,0.0,0.0,0.0,0.0,0.0,0.0,0.0,0.0,0.0,0.0,0.0,0.0,0.0,0.0,0.0,0.0,0.0,0.0,0.0,0.0,0.0,0.0,0.0,0.0,0.0,0.0,0.0,0.0,0.0,1.0835,0.0,0.0,0.0,0.0,0.0,0.0,0.0,0.0,0.0,0.0,0.0,0.0,0.0,0.0,0.0,0.0,0.0,0.0,0.0,0.0,0.0,0.0,0.0,0.0,0.0,0.0,0.0,0.0,0.0,0.0,0.0,0.0,0.0,0.0,0.0,0.0,0.0,0.0,0.0,0.0,0.0,0.0,0.0,0.0,0.0,0.0,0.0,0.0,0.0,0.0,0.0,0.0,0.0,0.0,0.0,0.0,0.0,0.0,0.0,0.0,0.0,0.0,0.0,0.0,0.0,0.0,0.0,0.0,0.0,0.0,0.0,0.0,0.0,0.0,0.0,0.0,0.0,0.0,0.0,0.0,0.0,0.0,0.0,0.0,0.0,0.0,0.0,0.0,0.0,0.0,0.0,0.0,0.0,0.0,0.0,0.0,0.0,0.0,0.0,0.0,0.0,0.0,0.0,0.0,0.0,0.0,0.0,0.0,0.0,0.0,0.0,0.0,0.0,0.0,0.0,0.0,0.0,0.0,0.0,0.0,0.0,0.0,0.0,0.0,0.0,0.0,0.0,0.0,0.0,0.0,0.0,0.0,0.0,0.0,0.0,0.0,0.0,0.0,0.0,0.0,0.0,0.0,0.0,0.0,0.0,0.0,0.0,0.0,0.0,0.0,0.0,0.0,0.0,0.0,0.0,0.0,0.0,0.0,0.0,0.0,0.0,0.0,0.0,0.0,0.0,0.0,0.0,0.0,0.0,0.0,0.0,0.0,0.0,0.0,0.0,0.0,0.0,0.0,0.0,0.0,0.0,0.0,0.0,0.0,0.0,0.0,0.0,0.0,0.0,0.0,0.0,0.0,0.0,0.0,0.0,0.0,0.0,0.0,0.0,0.0,0.0,0.0,0.0,0.0,0.0,0.0,0.0,0.0,0.0,0.0,0.0,0.0,0.0,0.0,0.0,0.0,0.0,0.0,0.0,0.0,0.0,0.0,0.0,0.0,0.0,0.0,0.0,0.0,0.0,0.0,0.0,0.0,0.0,0.0,0.0,0.0,0.0,0.0,0.0,0.0,0.0,0.0,0.0,0.0,0.0,0.0,0.0,0.0,0.0,0.0,0.0,0.0,0.0,0.0,0.0,0.0,0.0,0.0,0.0,0.0,0.0,0.0,0.0,0.0,0.0,0.0,0.0,0.0,0.0,0.0,0.0,0.0,0.0,0.0,0.0,0.0,0.0,0.0,0.0,0.0,0.0,0.0,0.0,0.0,0.0,0.0,0.0,0.0,0.0,0.0,0.0,0.0,0.0,0.0,0.0,0.0,0.0,0.0,0.0,0.0,0.0,0.0,0.0,0.0,0.0,0.0,0.0,0.0,0.0,0.0,0.0,0.0,0.0,0.0,0.0,0.0,0.0,0.0,0.0,0.0,0.0,0.0,0.0,0.0,0.0,0.0,0.0,0.0,0.0,0.0,0.0,0.0,0.0,0.0,0.0,0.0,0.0,0.0,0.0,0.0,0.0,0.0,0.0,0.0,0.0,0.0,0.0,0.0,0.0,0.0,0.0,0.0,0.0,0.0,0.0,0.0,0.0,0.0,0.0,0.0,0.0,0.0,0.0,0.0,0.0,0.0,0.0,0.0,0.0,0.0,0.0,0.0,0.0,0.0,0.0,0.0,0.0,0.0,0.0,0.0,0.0,0.0,0.0,0.0,0.0,0.0,0.0,0.0,0.0,0.0,0.0,0.0,0.0,0.0,0.0,0.0,0.0,0.0,0.0,0.0,0.0,0.0,0.0,0.0,0.0,0.0,0.0,0.0,0.0,0.0,0.0,0.0,0.0,0.0,0.0,0.0,0.0,0.0,0.0,0.0,0.0,0.0,0.0,0.0,0.0,0.0,0.0,0.0,0.0,0.0,0.0,0.0,0.0,0.0,0.0,0.0,0.0,0.0,0.0,0.0,0.0,0.0,0.0,0.0,0.0,0.0,0.0,0.0,0.0,0.0,0.0,0.0,0.0,0.0,0.0,0.0,0.0,0.0,0.0,0.0,0.0,0.0,0.0,0.0,0.0,0.0,0.0,0.0,0.0,0.0,0.0,0.0,0.0,0.0,0.0,0.0,0.0,0.0,0.0,0.0,0.0,0.0,0.0,0.0,0.0,0.0,0.0,0.0,0.0,0.0,0.0,0.0,0.0,0.0,0.0,0.0,0.0,0.0,0.0,0.0,0.0,0.0,0.0,0.0,0.0,0.0,0.0,0.0,0.0,0.0,0.0,0.0,0.0,0.0,0.0,0.0,0.0,0.0,0.0,0.0,0.0,0.0,0.0,0.0,0.0,0.0,0.0,0.0,0.0,0.0,0.0,0.0,0.0,0.0,0.0,0.0,0.0,0.0,0.0,0.0,0.0,0.0,0.0,0.0,0.0,0.0,0.0,0.0,0.0,0.0,0.0,0.0,0.0,0.0,0.0,0.0,0.0,0.0,0.0,0.0,0.0,0.0,0.0,0.0,0.0,0.0,0.0,0.0,0.0,0.0,0.0,0.0,0.0,0.0,0.0,0.0,0.0,0.0,0.0,0.0,0.0,0.0,0.0,0.0,0.0,0.0,0.0,0.0,0.0,0.0,0.0,0.0,0.0,0.0,0.0,0.0,0.0,0.0,0.0,0.0,0.0,0.0,0.0,0.0,0.0,0.0,0.0,0.0,0.0,0.0,0.0,0.0,0.0,0.0,0.0,0.0,0.0,0.0,0.0,0.0,0.0,0.0,0.0,0.0,0.0,0.0,0.0,0.0,0.0,0.0,0.0,0.0,0.0,0.0,0.0,0.0,0.0,0.0,0.0,0.0,0.0,0.0,0.0,0.0,0.0,0.0,0.0,0.0,0.0,0.0,0.0,0.0,0.0,0.0,0.0,0.0,0.0,0.0,0.0,0.0,0.0,0.0,0.0,0.0,0.0,0.0,0.0,0.0,0.0,0.0,0.0,0.0,0.0,0.0,0.0,0.0,0.0,0.0,0.0,0.0,0.0,0.0,0.0,0.0,0.0,0.0,0.0,0.0,0.0,0.0,0.0,0.0,0.0,0.0,0.0,0.0,0.0,0.0,0.0,0.0,0.0,0.0,0.0,0.0,0.0,0.0,0.0,0.0,0.0,0.0,0.0,0.0,0.0,0.0,0.0,0.0,0.0,0.0,0.0,0.0,0.0,0.0,0.0,0.0,0.0,0.0,0.0,0.0,0.0,0.0,0.0,0.0,0.0,0.0,0.0,0.0,0.0,0.0,0.0,0.0,0.0,0.0,0.0,0.0,0.0,0.0,0.0,0.0,0.0,0.0,0.0,0.0,0.0,0.0,0.0,0.0,0.0,0.0,0.0,0.0,0.0,0.0,0.0,0.0,0.0,0.0,0.0,0.0,0.0,0.0,0.0,0.0,0.0,0.0,0.0,0.0,0.0,0.0,0.0,0.0,0.0,0.0,0.0,0.0,0.0,0.0,0.0,0.0,0.0,0.0,0.0,0.0,0.0,0.0,0.0,0.0,0.0,0.0,0.0,0.0,0.0,0.0,0.0,0.0,0.0,0.0,0.0,0.0,0.0,0.0,0.0,0.0,0.0,0.0,0.0,0.0,0.0,0.0,0.0,0.0,0.0,0.0,0.0,0.0,0.0,0.0,0.0,0.0,0.0,0.0,0.0,0.0,0.0,0.0,0.0,0.0,0.0,0.0,0.0,0.0,0.0,0.0,0.0,0.0,0.0,0.0,0.0,0.0,0.0,0.0,0.0,0.0,0.0,0.0,0.0,0.0,0.0,0.0,0.0,0.0,0.0,0.0,0.0,0.0,0.0,0.0,0.0,0.0,0.0,0.0,0.0,0.0,0.0,0.0,0.0,0.0,0.0,0.0,0.0,0.0,0.0,0.0,0.0,0.0,0.0,0.0,0.0,0.0,0.0,0.0,0.0,0.0,0.0,0.0,0.0,0.0,0.0,0.0,0.0,0.0,0.0,0.0,0.0,0.0,0.0,0.0,0.0,0.0,0.0,0.0,0.0,0.0,0.0,0.0,0.0,0.0,0.0,0.0,0.0,0.0,0.0,0.0,0.0,0.0,0.0,0.0,0.0,0.0,0.0,0.0,0.0,0.0,0.0,0.0,0.0,0.0,0.0,0.0,0.0,0.0,0.0,0.0,0.0,0.0,0.0,0.0,0.0,0.0,0.0,0.0,0.0,0.0,0.0,0.0,0.0,0.0,0.0,0.0,0.0,0.0,0.0,0.0,0.0,0.0,0.0,0.0,0.0,0.0,0.0,0.0,0.0,0.0,0.0,0.0,0.0,0.0,0.0,0.0,0.0,0.0,0.0,0.0,0.0,0.0,0.0,0.0,0.0,0.0]}]]]